[[{"header":{"parameterUnit":"m.s-1","parameterCategory":1,"la1":30.6,"la2":28.766,"lo1":-90.7593,"lo2":-88.6598,"dy":0.0162,"dx":0.0183,"nx":116,"ny":114,"refTime":"2023-02-28T06:00:00:Z","depth":0,"parameterNumber":2,"parameterNumberName":"U-component_of_WINDS"},"data":[0.0,0.0,0.0,0.0,0.0,0.0,0.0,0.0,0.0,0.0,0.0,0.0,0.0,0.0,0.0,0.0,0.0,0.0,0.0,0.0,0.0,0.0,0.0,0.0,0.0,0.0,0.0,0.0,0.0,0.0,0.0,0.0,0.0,0.0,0.0,0.0,0.0,0.0,0.0,0.0,0.0,0.0,0.0,0.0,0.0,0.0,0.0,0.0,0.0,0.0,0.0,0.0,0.0,0.0,0.0,0.0,0.0,0.0,0.0,0.0,0.0,0.0,0.0,0.0,0.0,0.0,0.0,0.0,0.0,0.0,0.0,0.0,0.0,0.0,0.0,0.0,0.0,0.0,0.0,0.0,0.0,0.0,0.0,0.0,0.0,0.0,0.0,0.0,0.0,0.0,0.0,0.0,0.0,0.0,0.0,0.0,0.0,0.0,0.0,0.0,0.0,0.0,0.0,0.0,0.0,0.0,0.0,0.0,0.0,0.0,0.0,0.0,0.0,0.0,0.0,0.0,0.0,0.0,0.0,0.0,0.0,0.0,0.0,0.0,0.0,0.0,0.0,0.0,0.0,0.0,0.0,0.0,0.0,0.0,0.0,0.0,0.0,0.0,0.0,0.0,0.0,0.0,0.0,0.0,0.0,0.0,0.0,0.0,0.0,0.0,0.0,0.0,0.0,0.0,0.0,0.0,0.0,0.0,0.0,0.0,0.0,0.0,0.0,0.0,0.0,0.0,0.0,0.0,0.0,0.0,0.0,0.0,0.0,0.0,0.0,0.0,0.0,0.0,0.0,0.0,0.0,0.0,0.0,0.0,0.0,0.0,0.0,0.0,0.0,0.0,0.0,0.0,0.0,0.0,0.0,0.0,0.0,0.0,0.0,0.0,0.0,0.0,0.0,0.0,0.0,0.0,0.0,0.0,0.0,0.0,0.0,0.0,0.0,0.0,0.0,0.0,0.0,0.0,0.0,0.0,0.0,0.0,0.0,0.0,0.0,0.0,0.0,0.0,0.0,0.0,0.0,0.0,0.0,0.0,0.0,0.0,0.0,0.0,0.0,0.0,0.0,0.0,0.0,0.0,0.0,0.0,0.0,0.0,0.0,0.0,0.0,0.0,0.0,0.0,0.0,0.0,0.0,0.0,0.0,0.0,0.0,0.0,0.0,0.0,0.0,0.0,0.0,0.0,0.0,0.0,0.0,0.0,0.0,0.0,0.0,0.0,0.0,0.0,0.0,0.0,0.0,0.0,0.0,0.0,0.0,0.0,0.0,0.0,0.0,0.0,0.0,0.0,0.0,0.0,0.0,0.0,0.0,0.0,0.0,0.0,0.0,0.0,0.0,0.0,0.0,0.0,0.0,0.0,0.0,0.0,0.0,0.0,0.0,0.0,0.0,0.0,0.0,0.0,0.0,0.0,0.0,0.0,0.0,0.0,0.0,0.0,0.0,0.0,0.0,0.0,0.0,0.0,0.0,0.0,0.0,0.0,0.0,0.0,0.0,0.0,0.0,0.0,0.0,0.0,0.0,0.0,0.0,0.0,0.0,0.0,0.0,0.0,0.0,0.0,0.0,0.0,0.0,0.0,0.0,0.0,0.0,0.0,0.0,0.0,0.0,0.0,0.0,0.0,0.0,0.0,0.0,0.0,0.0,0.0,0.0,0.0,0.0,0.0,0.0,0.0,0.0,0.0,0.0,0.0,0.0,0.0,0.0,0.0,0.0,0.0,0.0,0.0,0.0,0.0,0.0,0.0,0.0,0.0,0.0,0.0,0.0,0.0,0.0,0.0,0.0,0.0,0.0,0.0,0.0,0.0,0.0,0.0,0.0,0.0,0.0,0.0,0.0,0.0,0.0,0.0,0.0,0.0,0.0,0.0,0.0,0.0,0.0,0.0,0.0,0.0,0.0,0.0,0.0,0.0,0.0,0.0,0.0,0.0,0.0,0.0,0.0,0.0,0.0,0.0,0.0,0.0,0.0,0.0,0.0,0.0,0.0,0.0,0.0,0.0,0.0,0.0,0.0,0.0,0.0,0.0,0.0,0.0,0.0,0.0,0.0,0.0,0.0,0.0,0.0,0.0,0.0,0.0,0.0,0.0,0.0,0.0,0.0,0.0,0.0,0.0,0.0,0.0,0.0,0.0,0.0,0.0,0.0,0.0,0.0,0.0,0.0,0.0,0.0,0.0,0.0,0.0,0.0,0.0,0.0,0.0,0.0,0.0,0.0,0.0,0.0,0.0,0.0,0.0,0.0,0.0,0.0,0.0,0.0,0.0,0.0,0.0,0.0,0.0,0.0,0.0,0.0,0.0,0.0,0.0,0.0,0.0,0.0,0.0,0.0,0.0,0.0,0.0,0.0,0.0,0.0,0.0,0.0,0.0,0.0,0.0,0.0,0.0,0.0,0.0,0.0,0.0,0.0,0.0,0.0,0.0,0.0,0.0,0.0,0.0,0.0,0.0,0.0,0.0,0.0,0.0,0.0,0.0,0.0,0.0,0.0,0.0,0.0,0.0,0.0,0.0,0.0,0.0,0.0,0.0,0.0,0.0,0.0,0.0,0.0,0.0,0.0,0.0,0.0,0.0,0.0,0.0,0.0,0.0,0.0,0.0,0.0,0.0,0.0,0.0,0.0,0.0,0.0,0.0,0.0,0.0,0.0,0.0,0.0,0.0,0.0,0.0,0.0,0.0,0.0,0.0,0.0,0.0,0.0,0.0,0.0,0.0,0.0,0.0,0.0,0.0,0.0,0.0,0.0,0.0,0.0,0.0,0.0,0.0,0.0,0.0,0.0,0.0,0.0,0.0,0.0,0.0,0.0,0.0,0.0,0.0,0.0,0.0,0.0,0.0,0.0,0.0,0.0,0.0,0.0,0.0,0.0,0.0,0.0,0.0,0.0,0.0,0.0,0.0,0.0,0.0,0.0,0.0,0.0,0.0,0.0,0.0,0.0,0.0,0.0,0.0,0.0,0.0,0.0,0.0,0.0,0.0,0.0,0.0,0.0,0.0,0.0,0.0,0.0,0.0,0.0,0.0,0.0,0.0,0.0,0.0,0.0,0.0,0.0,0.0,0.0,0.0,0.0,0.0,0.0,0.0,0.0,0.0,0.0,0.0,0.0,0.0,0.0,0.0,0.0,0.0,0.0,0.0,0.0,0.0,0.0,0.0,0.0,0.0,0.0,0.0,0.0,0.0,0.0,0.0,0.0,0.0,0.0,0.0,0.0,0.0,0.0,0.0,0.0,0.0,0.0,0.0,0.0,0.0,0.0,0.0,0.0,0.0,0.0,0.0,0.0,0.0,0.0,0.0,0.0,0.0,0.0,0.0,0.0,0.0,0.0,0.0,0.0,0.0,0.0,0.0,0.0,0.0,0.0,0.0,0.0,0.0,0.0,0.0,0.0,0.0,0.0,0.0,0.0,0.0,0.0,0.0,0.0,0.0,0.0,0.0,0.0,0.0,0.0,0.0,0.0,0.0,0.0,0.0,0.0,0.0,0.0,0.0,0.0,0.0,0.0,0.0,0.0,0.0,0.0,0.0,0.0,0.0,0.0,0.0,0.0,0.0,0.0,0.0,0.0,0.0,0.0,0.0,0.0,0.0,0.0,0.0,0.0,0.0,0.0,0.0,0.0,0.0,0.0,0.0,0.0,0.0,0.0,0.0,0.0,0.0,0.0,0.0,0.0,0.0,0.0,0.0,0.0,0.0,0.0,0.0,0.0,0.0,0.0,0.0,0.0,0.0,0.0,0.0,0.0,0.0,0.0,0.0,0.0,0.0,0.0,0.0,0.0,0.0,0.0,0.0,0.0,0.0,0.0,0.0,0.0,0.0,0.0,0.0,0.0,0.0,0.0,0.0,0.0,0.0,0.0,0.0,0.0,0.0,0.0,0.0,0.0,0.0,0.0,0.0,0.0,0.0,0.0,0.0,0.0,0.0,0.0,0.0,0.0,0.0,0.0,0.0,0.0,0.0,0.0,0.0,0.0,0.0,0.0,0.0,0.0,0.0,0.0,0.0,0.0,0.0,0.0,0.0,0.0,0.0,0.0,0.0,0.0,0.0,0.0,0.0,0.0,0.0,0.0,0.0,0.0,0.0,0.0,0.0,0.0,0.0,0.0,0.0,0.0,0.0,0.0,0.0,0.0,0.0,0.0,0.0,0.0,0.0,0.0,0.0,0.0,0.0,0.0,0.0,0.0,0.0,0.0,0.0,0.0,0.0,0.0,0.0,0.0,0.0,0.0,0.0,0.0,0.0,0.0,0.0,0.0,0.0,0.0,0.0,0.0,0.0,0.0,0.0,0.0,0.0,0.0,0.0,0.0,0.0,0.0,0.0,0.0,0.0,0.0,0.0,0.0,0.0,0.0,0.0,0.0,0.0,0.0,0.0,0.0,0.0,0.0,0.0,0.0,0.0,0.0,0.0,0.0,0.0,0.0,0.0,0.0,0.0,0.0,0.0,0.0,0.0,0.0,0.0,0.0,0.0,0.0,0.0,0.0,0.0,0.0,0.0,0.0,0.0,0.0,0.0,0.0,0.0,0.0,0.0,0.0,0.0,0.0,0.0,0.0,0.0,0.0,0.0,0.0,0.0,0.0,0.0,0.0,0.0,0.0,0.0,0.0,0.0,0.0,0.0,0.0,0.0,0.0,0.0,0.0,0.0,0.0,0.0,0.0,0.0,0.0,0.0,0.0,0.0,0.0,0.0,0.0,0.0,0.0,0.0,0.0,0.0,0.0,0.0,0.0,0.0,0.0,0.0,0.0,0.0,0.0,0.0,0.0,0.0,0.0,0.0,0.0,0.0,0.0,0.0,0.0,0.0,0.0,0.0,0.0,0.0,0.0,0.0,0.0,0.0,0.0,0.0,0.0,0.0,0.0,0.0,0.0,0.0,0.0,0.0,0.0,0.0,0.0,0.0,0.0,0.0,0.0,0.0,0.0,0.0,0.0,0.0,0.0,0.0,0.0,0.0,0.0,0.0,0.0,0.0,0.0,0.0,0.0,0.0,0.0,0.0,0.0,0.0,0.0,0.0,0.0,0.0,0.0,0.0,0.0,0.0,0.0,0.0,0.0,0.0,0.0,0.0,0.0,0.0,0.0,0.0,0.0,0.0,0.0,0.0,0.0,0.0,0.0,0.0,0.0,0.0,0.0,0.0,0.0,0.0,0.0,0.0,0.0,0.0,0.0,0.0,0.0,0.0,0.0,0.0,0.0,0.0,0.0,0.0,0.0,0.0,0.0,0.0,0.0,0.0,0.0,0.0,0.0,0.0,0.0,0.0,0.0,0.0,0.0,0.0,0.0,0.0,0.0,0.0,0.0,0.0,0.0,0.0,0.0,0.0,0.0,0.0,0.0,0.0,0.0,0.0,0.0,0.0,0.0,0.0,0.0,0.0,0.0,0.0,0.0,0.0,0.0,0.0,0.0,0.0,0.0,0.0,0.0,0.0,0.0,0.0,0.0,0.0,0.0,0.0,0.0,0.0,0.0,0.0,0.0,0.0,0.0,0.0,0.0,0.0,0.0,0.0,0.0,0.0,0.0,0.0,0.0,0.0,0.0,0.0,0.0,0.0,0.0,0.0,0.0,0.0,0.0,0.0,0.0,0.0,0.0,0.0,0.0,0.0,0.0,0.0,0.0,0.0,0.0,0.0,0.0,0.0,0.0,0.0,0.0,0.0,0.0,0.0,0.0,0.0,0.0,0.0,0.0,0.0,0.0,0.0,0.0,0.0,0.0,0.0,0.0,0.0,0.0,0.0,0.0,0.0,0.0,0.0,0.0,0.0,0.0,0.0,0.0,0.0,0.0,0.0,0.0,0.0,0.0,0.0,0.0,0.0,0.0,0.0,0.0,0.0,0.0,0.0,0.0,0.0,0.0,0.0,0.0,0.0,0.0,0.0,0.0,0.0,0.0,0.0,0.0,0.0,0.0,0.0,0.0,0.0,0.0,0.0,0.0,0.0,0.0,0.0,0.0,0.0,0.0,0.0,0.0,0.0,0.0,0.0,0.0,0.0,0.0,0.0,0.0,0.0,0.0,0.0,0.0,0.0,0.0,0.0,0.0,0.0,0.0,0.0,0.0,0.0,0.0,0.0,0.0,0.0,2.7893,2.6703,0.0,0.0,0.0,0.0,0.0,0.0,0.0,0.0,0.0,0.0,0.0,0.0,0.0,0.0,0.0,0.0,0.0,0.0,0.0,0.0,0.0,0.0,0.0,0.0,0.0,0.0,0.0,0.0,0.0,0.0,0.0,0.0,0.0,0.0,0.0,0.0,0.0,0.0,0.0,0.0,0.0,0.0,0.0,0.0,0.0,0.0,0.0,0.0,0.0,0.0,0.0,0.0,0.0,0.0,0.0,0.0,0.0,0.0,0.0,0.0,0.0,0.0,0.0,0.0,0.0,0.0,0.0,0.0,0.0,0.0,0.0,0.0,0.0,0.0,0.0,0.0,0.0,0.0,0.0,0.0,0.0,0.0,0.0,0.0,0.0,0.0,0.0,0.0,0.0,0.0,0.0,0.0,0.0,0.0,0.0,0.0,0.0,0.0,0.0,0.0,0.0,0.0,0.0,0.0,0.0,0.0,0.0,0.0,0.0,0.0,0.0,0.0,0.0,0.0,2.9211,2.7992,0.0,0.0,0.0,0.0,0.0,0.0,0.0,0.0,0.0,0.0,0.0,0.0,0.0,0.0,0.0,0.0,0.0,0.0,0.0,0.0,0.0,0.0,0.0,0.0,0.0,0.0,0.0,0.0,0.0,0.0,0.0,0.0,0.0,0.0,0.0,0.0,0.0,0.0,0.0,0.0,0.0,0.0,0.0,0.0,0.0,0.0,0.0,0.0,0.0,0.0,0.0,0.0,0.0,0.0,0.0,0.0,0.0,0.0,0.0,0.0,0.0,0.0,0.0,0.0,0.0,0.0,0.0,0.0,0.0,0.0,0.0,0.0,0.0,0.0,0.0,0.0,0.0,0.0,0.0,0.0,0.0,0.0,0.0,0.0,0.0,0.0,0.0,0.0,0.0,0.0,0.0,0.0,0.0,0.0,0.0,0.0,0.0,0.0,0.0,0.0,0.0,0.0,0.0,0.0,0.0,0.0,0.0,0.0,3.1283,3.1768,3.214,3.3748,3.3961,3.2919,3.0489,2.9612,2.9734,2.9461,0.0,0.0,0.0,0.0,0.0,0.0,0.0,0.0,0.0,0.0,0.0,0.0,0.0,0.0,0.0,0.0,0.0,0.0,0.0,0.0,0.0,0.0,0.0,0.0,0.0,0.0,0.0,0.0,0.0,0.0,0.0,0.0,0.0,0.0,0.0,0.0,0.0,0.0,3.3928,3.3969,3.3988,3.3862,3.0845,0.0,0.0,0.0,0.0,0.0,0.0,0.0,0.0,0.0,0.0,0.0,0.0,0.0,0.0,0.0,0.0,0.0,0.0,0.0,0.0,0.0,0.0,0.0,0.0,0.0,0.0,0.0,0.0,0.0,0.0,0.0,0.0,0.0,0.0,0.0,0.0,0.0,0.0,0.0,0.0,0.0,0.0,0.0,2.7799,2.875,0.0,0.0,0.0,0.0,0.0,0.0,0.0,0.0,0.0,0.0,0.0,0.0,0.0,3.1875,3.2018,3.2909,3.3396,3.3396,3.3945,3.3975,3.3582,3.3429,3.3119,3.2559,3.1727,0.0,3.0813,3.0744,0.0,0.0,0.0,0.0,0.0,0.0,0.0,0.0,0.0,0.0,0.0,0.0,0.0,0.0,0.0,0.0,0.0,0.0,0.0,0.0,0.0,0.0,0.0,0.0,0.0,0.0,0.0,0.0,0.0,0.0,0.0,0.0,0.0,0.0,0.0,0.0,3.1483,3.2603,3.3779,3.3109,3.3215,3.3858,3.1601,3.0993,3.1605,3.1291,0.0,0.0,0.0,0.0,0.0,0.0,0.0,0.0,0.0,0.0,0.0,0.0,0.0,0.0,0.0,0.0,0.0,0.0,0.0,0.0,0.0,0.0,0.0,0.0,0.0,0.0,0.0,0.0,0.0,0.0,0.0,0.0,0.0,0.0,0.0,0.0,0.0,0.0,0.0,2.7861,2.824,2.8946,2.8737,2.8497,0.0,0.0,0.0,0.0,0.0,0.0,0.0,0.0,0.0,3.1685,3.1934,3.2125,3.2265,3.2524,3.2587,3.2644,3.313,3.3402,3.3531,3.4237,3.4242,3.3787,3.3114,3.2509,3.2002,3.1642,3.118,3.0744,0.0,0.0,0.0,0.0,3.0696,3.0856,0.0,0.0,0.0,0.0,0.0,0.0,0.0,0.0,0.0,0.0,0.0,0.0,0.0,0.0,0.0,2.8776,0.0,0.0,0.0,0.0,0.0,0.0,0.0,0.0,0.0,0.0,0.0,0.0,3.1752,3.2348,3.3469,3.2497,3.2557,3.3455,3.2587,3.2408,3.2721,3.2576,3.2053,0.0,0.0,0.0,0.0,0.0,0.0,0.0,0.0,0.0,0.0,0.0,0.0,0.0,0.0,0.0,0.0,0.0,0.0,0.0,0.0,0.0,0.0,0.0,0.0,0.0,0.0,0.0,0.0,0.0,0.0,0.0,0.0,0.0,0.0,0.0,0.0,0.0,0.0,2.8917,2.9102,2.9476,2.9729,2.9744,0.0,0.0,0.0,0.0,0.0,0.0,3.1838,3.2064,3.2277,3.2428,3.2566,3.2684,3.276,3.2624,3.2423,3.2236,3.2962,3.3322,3.3423,3.4842,3.512,3.4421,3.3839,3.3182,3.2561,3.1903,3.1575,3.1529,3.1247,3.1109,3.1075,3.1067,3.1066,3.1251,0.0,0.0,0.0,0.0,0.0,0.0,0.0,0.0,0.0,0.0,0.0,0.0,0.0,0.0,3.0133,2.9518,2.9504,2.9504,0.0,0.0,0.0,0.0,0.0,0.0,0.0,0.0,0.0,3.2242,3.2852,3.3225,3.3499,3.3425,3.344,3.3514,3.388,3.3853,3.341,3.2751,3.2826,3.3257,0.0,0.0,0.0,0.0,0.0,0.0,0.0,0.0,0.0,0.0,0.0,0.0,0.0,0.0,0.0,0.0,0.0,0.0,0.0,0.0,0.0,0.0,0.0,0.0,0.0,0.0,0.0,0.0,0.0,0.0,0.0,0.0,0.0,0.0,0.0,0.0,0.0,0.0,0.0,3.126,3.175,0.0,0.0,0.0,0.0,3.2905,3.2491,3.2441,3.2968,3.2503,3.2466,3.3018,3.3545,3.3834,3.3859,3.4616,3.4484,3.3521,3.5051,3.5095,3.3672,3.5027,3.4799,3.3349,3.3349,3.2803,3.18,3.1275,3.106,3.106,3.123,3.1315,3.1371,3.2082,3.2471,3.2866,0.0,0.0,0.0,0.0,0.0,0.0,0.0,0.0,0.0,0.0,0.0,0.0,0.0,2.9964,3.0389,3.0147,3.0524,3.0584,3.0147,0.0,0.0,0.0,0.0,0.0,0.0,0.0,3.0947,3.1781,3.2422,3.2796,3.2871,3.3305,3.3499,3.3499,3.3662,3.3809,3.3925,3.4148,3.3817,3.3158,3.2767,3.1903,0.0,0.0,0.0,0.0,0.0,0.0,0.0,0.0,0.0,0.0,0.0,0.0,0.0,0.0,0.0,0.0,0.0,0.0,0.0,0.0,0.0,0.0,0.0,0.0,0.0,0.0,0.0,0.0,0.0,0.0,0.0,0.0,0.0,0.0,0.0,0.0,0.0,3.183,3.2428,0.0,3.2252,3.2554,3.2704,3.2528,3.3006,3.3232,3.3081,3.3219,3.3232,3.3081,3.3433,3.3619,3.3429,3.4276,3.4354,3.387,3.4748,3.4835,3.4373,3.5208,3.5263,3.4691,3.4219,3.3637,3.297,3.1953,3.1456,3.1275,3.1383,3.1275,3.1179,3.1638,3.1803,3.2041,0.0,0.0,0.0,0.0,0.0,0.0,0.0,0.0,0.0,0.0,0.0,2.9093,2.9766,3.045,3.0837,3.0837,3.1219,3.1278,3.0777,0.0,0.0,0.0,0.0,0.0,0.0,3.0524,3.1013,3.1869,3.2302,3.2632,3.2856,3.329,3.3499,3.3499,3.3662,3.3928,3.4233,3.4931,3.451,3.3435,3.3558,3.2774,3.1511,0.0,0.0,0.0,0.0,0.0,0.0,0.0,0.0,0.0,0.0,0.0,0.0,0.0,0.0,0.0,0.0,0.0,0.0,0.0,0.0,0.0,0.0,0.0,0.0,0.0,0.0,0.0,0.0,0.0,0.0,0.0,0.0,0.0,0.0,3.1754,3.2301,3.2168,3.3056,3.3407,3.2842,3.3294,3.3545,3.3357,3.3684,3.3822,3.3546,3.3709,3.3809,3.3834,3.3806,3.3801,3.3975,3.4359,3.4354,3.387,3.4723,3.4902,3.4361,3.5195,3.5251,3.4691,3.4314,3.3732,3.2982,3.2155,3.1659,3.1406,3.1468,3.1529,3.1566,3.1762,3.1859,3.1957,0.0,0.0,0.0,0.0,0.0,0.0,0.0,0.0,0.0,0.0,2.9107,2.9794,3.0478,3.1117,3.1497,3.1497,3.1482,3.1409,3.1278,3.0208,0.0,0.0,0.0,0.0,3.0329,3.0984,3.1752,3.2512,3.2557,3.2901,3.3529,3.3544,3.3559,3.3574,3.4014,3.4233,3.4278,3.4931,3.4812,3.4248,3.472,3.4339,3.3412,0.0,0.0,0.0,0.0,0.0,0.0,0.0,0.0,0.0,0.0,0.0,0.0,0.0,0.0,0.0,0.0,0.0,0.0,0.0,0.0,0.0,0.0,0.0,0.0,0.0,0.0,0.0,0.0,0.0,0.0,0.0,0.0,0.0,3.1882,3.2934,3.3508,3.2416,3.3734,3.4512,3.3972,3.4412,3.4926,3.5429,3.45,3.4047,3.4313,3.3841,3.4065,3.5158,3.4661,3.4728,3.5449,3.5301,3.4749,3.3735,3.5305,3.5267,3.3803,3.5125,3.4884,3.3431,3.3431,3.2861,3.1953,3.1953,3.1762,3.1519,3.1634,3.1984,3.2499,3.2499,3.2622,3.2946,0.0,0.0,0.0,0.0,0.0,0.0,0.0,0.0,0.0,0.0,2.9595,3.0543,3.1299,3.1901,3.2243,3.2243,3.1809,3.1278,3.0777,0.0,0.0,0.0,0.0,0.0,3.1029,3.1812,3.2273,3.2512,3.3469,3.4023,3.4218,3.4711,3.4951,3.4966,3.5066,3.5076,3.4946,3.5139,3.4812,3.4263,3.5011,3.4812,3.3977,0.0,0.0,0.0,0.0,0.0,0.0,0.0,0.0,0.0,0.0,0.0,0.0,0.0,0.0,0.0,0.0,0.0,0.0,0.0,0.0,0.0,0.0,0.0,0.0,0.0,0.0,0.0,0.0,0.0,0.0,0.0,3.3398,3.3598,3.3038,3.3631,3.4123,3.4022,3.4437,3.4663,3.4512,3.4625,3.4449,3.3809,3.3847,3.4135,3.4598,3.4485,3.4723,3.5437,3.5139,3.5127,3.5542,3.5675,3.5692,3.5625,3.643,3.668,3.6254,3.7007,3.7071,3.6726,3.6726,3.6346,3.5719,3.5719,3.5521,3.4904,3.238,3.1461,3.1379,3.1379,3.1585,3.1848,0.0,0.0,0.0,0.0,0.0,0.0,0.0,0.0,0.0,0.0,2.9989,3.0925,3.2003,3.2363,3.2512,3.2512,3.1913,3.1278,3.0837,0.0,0.0,0.0,0.0,3.1161,3.1811,3.2258,3.2781,3.3335,3.4098,3.4771,3.5325,3.5729,3.6124,3.6445,3.6043,3.5908,3.5783,3.5463,3.5121,3.4793,3.5275,3.5021,3.4341,3.4655,3.4376,3.3767,3.3619,3.3185,3.2483,3.1703,0.0,0.0,0.0,0.0,0.0,0.0,0.0,0.0,0.0,0.0,0.0,0.0,0.0,0.0,0.0,0.0,0.0,0.0,0.0,0.0,0.0,0.0,0.0,0.0,3.4435,3.4535,3.3989,3.4539,3.4907,3.4713,3.4926,3.4889,3.4424,3.4801,3.47,3.3834,3.4274,3.4635,3.4882,3.4894,3.5244,3.6006,3.5737,3.5849,3.6571,3.648,3.6739,3.7048,3.7374,3.733,3.685,3.7171,3.7106,3.6703,3.6703,3.65,3.6195,3.6195,3.5991,3.5577,0.0,0.0,0.0,0.0,3.2582,3.2643,0.0,0.0,0.0,0.0,0.0,0.0,0.0,0.0,0.0,0.0,0.0,3.1065,3.2601,3.2556,3.2512,3.2512,3.1913,3.1511,0.0,0.0,0.0,3.07,3.1191,3.1781,3.2497,3.2662,3.335,3.4592,3.4666,3.5355,3.6596,3.6596,3.703,3.7692,3.6985,3.6767,3.6808,3.5994,3.5609,3.5609,3.5534,3.513,3.4666,3.5265,3.5338,3.5045,3.4929,3.4696,3.4426,3.4126,0.0,0.0,0.0,0.0,0.0,0.0,0.0,0.0,0.0,0.0,0.0,0.0,0.0,0.0,0.0,0.0,0.0,0.0,0.0,0.0,0.0,0.0,0.0,0.0,3.5657,3.5737,3.4738,3.5251,3.554,3.47,3.5115,3.5064,3.4085,3.4939,3.5316,3.4763,3.524,3.5487,3.5376,3.5388,0.0,0.0,0.0,3.678,3.8002,3.7525,3.7525,3.8002,3.8078,3.7605,3.6698,3.6657,3.6181,3.5271,3.5178,3.5178,3.5178,3.5178,3.5073,3.5062,3.5432,3.5477,3.5489,3.5005,3.459,3.4277,0.0,0.0,0.0,0.0,0.0,0.0,0.0,0.0,0.0,2.9922,3.0213,3.0925,3.2734,3.269,3.2512,3.2512,3.1913,3.1647,0.0,0.0,3.1026,3.1885,3.2139,3.2318,3.2512,3.3559,3.4502,3.531,3.5833,3.6492,3.7225,3.7376,3.7519,3.7707,3.7706,3.7698,3.7719,3.6854,3.6501,3.6391,3.5764,3.5429,3.5325,3.5459,3.5768,3.6164,3.6134,3.6111,3.5908,3.4896,3.4412,3.4012,3.2766,3.2018,0.0,0.0,0.0,0.0,0.0,0.0,0.0,0.0,0.0,0.0,0.0,0.0,0.0,0.0,0.0,0.0,0.0,0.0,0.0,3.4309,3.4654,3.4753,3.4348,3.4819,3.4958,3.4123,3.455,3.4801,3.4587,3.5152,3.5316,3.4763,3.524,3.5742,3.6182,3.6207,3.6614,3.7703,3.7215,3.7337,3.8002,3.7902,3.7902,3.8015,3.8479,0.0,3.8415,3.8325,3.8209,3.8012,3.758,3.7369,3.7369,3.7369,3.7051,3.6542,3.5422,3.4993,3.4901,3.4796,3.4286,3.3415,0.0,0.0,0.0,0.0,0.0,0.0,0.0,0.0,0.0,0.0,2.967,3.0224,3.1486,3.1377,3.1267,3.1267,3.1008,0.0,0.0,3.1617,3.193,3.287,3.2945,3.332,3.3993,3.4322,3.513,3.6462,3.6477,3.7038,3.8052,3.8136,3.8454,3.8979,3.8614,3.853,3.8568,3.7749,3.7116,3.6652,3.627,3.5839,3.5504,3.5504,3.5714,3.6028,3.6372,3.6492,3.6455,3.6148,3.5755,3.5119,3.4172,3.3136,3.2175,0.0,0.0,0.0,0.0,0.0,0.0,0.0,0.0,0.0,0.0,0.0,0.0,0.0,0.0,3.4321,3.3842,0.0,3.39,3.379,3.4126,3.4323,3.4235,3.4882,3.513,3.4763,3.4964,3.514,3.514,3.5655,3.5742,3.5177,3.6157,3.6784,3.6772,3.7036,3.7437,3.799,3.7739,3.7864,3.8429,3.8442,3.858,3.8856,3.9145,3.9168,3.8873,3.8822,3.8631,3.8409,3.8092,3.788,3.7453,3.6557,3.5663,3.4825,3.4032,3.4086,3.4542,3.3966,3.3258,3.2607,0.0,0.0,0.0,0.0,0.0,0.0,0.0,0.0,0.0,0.0,2.8953,2.929,2.9951,2.99,2.9785,0.0,0.0,0.0,0.0,3.2106,3.2811,3.3469,3.3681,3.425,3.528,3.5075,3.5899,3.7863,3.7165,3.7661,3.9149,3.9028,3.9464,4.0246,3.9612,3.9367,3.9489,3.8735,3.7962,3.7126,3.7126,3.6631,3.5878,3.5878,3.5729,3.5579,3.6103,3.6297,3.6224,3.673,3.6422,3.5707,3.5167,3.4016,3.2617,3.1734,3.1289,0.0,0.0,0.0,0.0,0.0,0.0,0.0,0.0,3.4135,3.4426,3.4966,3.4563,3.4034,3.3951,3.3715,3.3555,3.3642,3.411,3.435,3.4325,3.5005,3.5499,3.5599,3.5612,3.5667,3.5554,3.6069,3.6245,3.5893,3.7098,3.7701,3.7362,3.7764,3.8052,3.8165,3.8165,3.8454,3.9032,3.9032,3.9258,3.9697,3.9697,3.9478,3.8945,3.8841,3.8526,3.8092,3.788,3.7441,3.6808,3.5477,3.4123,3.2964,3.2727,3.3077,3.3674,3.2851,3.2282,3.1758,0.0,0.0,0.0,0.0,0.0,0.0,0.0,0.0,0.0,0.0,0.0,0.0,0.0,0.0,0.0,0.0,0.0,0.0,3.2017,3.2372,3.2811,3.3469,3.4162,3.4615,3.4592,3.5799,3.7413,3.9455,3.8582,3.9083,4.0755,4.0092,3.999,4.0261,4.0309,4.0347,4.0347,4.0132,3.9566,3.8736,3.853,3.7931,3.7195,3.7195,3.6492,3.5519,3.5594,3.5398,3.5119,3.5193,3.5277,3.5288,3.4339,3.3751,3.3255,3.2463,3.1741,3.1153,3.1242,3.2114,3.3219,3.4198,3.4487,3.4788,0.0,3.537,3.4853,3.5436,3.4472,3.3756,3.4449,3.4267,3.4086,3.4447,3.4832,3.5019,3.47,3.4982,3.5382,3.5866,3.6188,3.6081,3.5592,3.6044,3.6546,3.6973,3.7174,3.7462,3.7889,3.7977,3.8241,3.8755,3.8781,3.9044,3.9597,3.9597,3.9634,3.9697,3.9697,3.9697,3.9581,3.905,3.8736,3.8631,3.7667,3.6916,3.6375,3.6157,3.5367,3.4134,3.3077,3.2062,3.1275,3.2281,3.2031,3.1321,0.0,0.0,0.0,0.0,0.0,0.0,0.0,0.0,0.0,0.0,0.0,0.0,0.0,0.0,0.0,0.0,0.0,0.0,3.1062,3.2368,3.3196,3.3485,3.4584,3.5105,3.4897,3.5709,3.7104,3.9109,3.8361,3.8792,4.0262,4.0455,4.0715,4.0873,4.1484,4.1438,4.0984,4.0928,4.0091,3.8825,3.8756,3.8157,3.7375,3.6782,3.6185,3.5711,3.5331,3.4729,0.0,0.0,3.3648,3.3663,3.2995,3.2894,3.2895,3.2089,3.2016,3.2431,3.3156,3.3671,3.4223,3.5002,3.5203,3.524,3.5378,3.5052,3.47,3.46,3.4205,3.381,3.3981,3.3958,3.42,3.4865,3.5207,3.5406,3.5401,3.5874,3.5994,3.5824,3.655,3.6808,3.6081,3.641,3.673,3.6955,3.769,3.8266,3.8492,3.8818,3.9094,3.9346,3.9346,3.9459,3.9697,3.9697,3.9697,3.9697,3.9697,3.9697,3.9697,3.9062,3.8291,3.7287,3.6426,3.5079,3.3631,3.3191,3.2416,3.1275,3.0694,3.0236,2.9785,3.0353,3.0236,3.002,0.0,0.0,0.0,0.0,0.0,0.0,0.0,0.0,0.0,0.0,0.0,0.0,0.0,0.0,0.0,0.0,0.0,0.0,0.0,3.1768,3.2805,3.2984,3.4144,3.4753,3.4836,3.534,3.6601,3.8702,3.8151,3.8566,3.9768,4.041,4.0709,4.0954,4.1602,4.1541,4.0939,4.1122,4.0385,3.8988,3.9169,3.8577,3.7491,3.6739,3.5981,3.5285,3.479,3.4084,0.0,0.0,3.2516,3.2445,3.1995,3.2227,3.2488,3.1807,3.2303,3.3282,3.4236,3.4613,3.4851,3.5403,3.5542,3.5441,3.5039,3.4826,3.4613,3.4122,3.4102,3.4028,3.386,3.4163,3.4706,3.5506,3.5837,3.6086,3.64,3.6676,3.6579,3.61,3.6838,3.7158,3.6677,3.6924,3.7169,3.7331,3.8191,3.8817,3.898,3.9368,3.9581,3.9581,3.9697,3.9697,3.9697,3.9697,3.9697,3.9697,3.9697,3.9465,3.8908,3.8031,3.6834,3.5409,3.4958,3.3722,3.1917,3.1486,3.0587,2.944,2.944,2.9331,2.8984,2.8984,2.8984,2.8984,0.0,0.0,0.0,0.0,0.0,0.0,0.0,0.0,0.0,0.0,0.0,0.0,0.0,0.0,0.0,0.0,0.0,0.0,0.0,3.0373,3.1103,3.1646,3.2445,3.3216,3.3991,3.4792,3.6335,3.8702,3.8447,3.8918,3.9965,3.9854,3.9869,4.0026,4.0056,4.0056,4.0071,4.0724,4.0516,3.9711,4.0359,3.9529,3.7866,3.7851,3.623,3.3912,3.3677,0.0,0.0,0.0,3.226,3.2319,3.172,3.1889,3.2298,3.2193,3.2604,3.3206,3.3771,3.4311,3.4851,3.5403,3.5542,3.5542,3.5516,3.5102,3.4635,3.4454,3.4375,3.4445,3.4674,3.5178,3.5803,3.6637,3.6998,3.7257,3.7481,3.7093,3.6892,3.7081,3.7005,3.6905,3.7194,3.768,3.8216,3.8781,3.8616,3.8649,3.9208,3.9258,3.9258,3.9258,3.9581,3.9697,3.9697,3.9697,3.9697,3.9697,3.9697,3.8792,3.7002,3.5221,3.4126,3.362,3.3508,3.317,3.2613,3.2499,3.1832,3.0704,3.0704,3.002,2.8984,2.8984,2.8984,2.8984,0.0,0.0,0.0,0.0,0.0,0.0,0.0,0.0,0.0,0.0,0.0,0.0,0.0,0.0,0.0,0.0,0.0,0.0,0.0,2.9941,3.0602,3.0216,3.1725,3.2509,3.2227,3.3108,3.4233,3.5459,3.6008,3.6626,3.7381,3.8472,3.9345,3.9869,4.0436,4.0561,4.0519,4.0731,4.0299,3.9466,3.9011,3.8438,3.7735,3.5885,3.4723,3.3695,0.0,0.0,0.0,0.0,3.0894,3.1148,3.0991,3.1534,3.2288,3.2701,3.3181,3.3746,3.4299,3.4851,3.5316,3.5491,3.5542,3.5454,3.509,3.4851,3.4635,3.4466,3.4674,3.4972,3.504,3.5796,3.6562,3.6955,3.7556,3.7826,3.738,3.7845,3.8062,3.7616,3.8398,3.8901,3.8646,3.8477,3.8353,3.8361,3.8786,3.8956,3.8933,3.9154,3.9258,3.9258,3.9581,3.9697,3.9697,3.9697,3.9478,3.905,3.795,3.6834,3.5825,3.4371,3.3046,3.1717,3.1717,3.1149,3.0236,3.0236,3.0011,2.9558,2.9558,2.9331,2.8984,2.8984,2.8984,2.8984,0.0,0.0,0.0,0.0,0.0,0.0,0.0,0.0,0.0,0.0,0.0,0.0,0.0,0.0,0.0,0.0,0.0,2.7169,0.0,0.0,2.9285,2.8918,3.0048,3.0628,3.0445,3.1083,3.1789,3.2563,3.3674,3.461,3.5268,3.6837,3.7908,3.8706,3.9197,3.9305,3.9233,3.9233,3.8763,3.8045,3.7388,3.6722,3.5985,3.429,3.3262,0.0,0.0,0.0,0.0,0.0,3.0281,3.0896,3.0896,3.1637,3.2591,3.2968,3.3332,3.3721,3.4274,3.4688,3.5002,3.5203,3.5102,3.4914,3.4751,3.4726,3.4685,3.4807,3.4898,3.508,3.5055,3.5928,3.6604,3.6505,3.7505,3.8111,3.7461,3.8184,3.8687,3.8448,3.9457,4.0121,3.9972,3.9461,3.896,3.8568,3.876,3.8945,3.8841,3.905,3.9154,3.9258,3.9581,3.9697,3.9697,3.949,3.8828,3.7844,3.5606,3.4382,3.3935,3.2592,3.1255,3.0128,3.0128,2.9677,2.8984,2.8984,2.8984,2.8984,2.8984,2.8984,2.8984,2.8984,2.8984,2.8984,0.0,0.0,0.0,0.0,0.0,0.0,0.0,0.0,0.0,0.0,0.0,0.0,0.0,0.0,0.0,0.0,0.0,0.0,0.0,0.0,0.0,2.7709,2.755,2.7907,2.8745,2.8826,2.9295,3.0188,3.1595,3.2783,3.3722,3.4672,3.5715,3.6652,3.6385,3.6328,3.647,3.6485,3.6171,3.5669,3.5568,3.4559,3.3104,3.3003,0.0,0.0,0.0,0.0,0.0,2.9792,3.052,3.1436,3.1461,3.224,3.3119,3.3081,3.3093,3.3232,3.3759,3.3922,3.406,3.4562,3.4286,3.4048,3.46,3.4726,3.4889,3.5466,3.512,3.4775,3.4775,3.5641,3.6182,3.5354,3.6836,3.8001,3.7667,3.8153,3.8937,3.9664,4.0046,4.047,4.1184,4.0533,3.9904,3.9278,3.8704,3.8469,3.8736,3.8761,3.897,3.927,3.9503,3.9619,3.9619,3.8982,3.7761,3.6077,3.3025,3.1677,3.1562,2.9766,2.8984,2.8984,2.8984,2.8984,2.8984,2.8984,2.8984,2.8984,2.8984,2.8984,2.8984,2.8984,2.8984,2.8984,0.0,0.0,0.0,0.0,0.0,0.0,0.0,0.0,0.0,0.0,0.0,0.0,0.0,0.0,0.0,0.0,0.0,0.0,0.0,0.0,0.0,0.0,0.0,0.0,0.0,0.0,0.0,0.0,0.0,3.0174,3.0759,3.1778,3.2917,3.4005,3.4033,3.4371,3.4864,3.504,3.504,3.485,0.0,3.3537,3.2989,0.0,0.0,0.0,0.0,0.0,2.9792,2.9792,3.0783,3.2077,3.2334,3.2946,3.3608,3.3206,3.337,3.3721,3.3859,3.4198,3.4449,3.4173,3.401,3.4048,3.46,3.4726,3.5002,3.5956,3.5473,3.4775,3.4775,3.5641,3.6182,3.5354,3.7127,3.8644,3.8528,3.9349,4.0094,4.0566,4.1264,4.1522,4.1031,4.0678,3.9976,3.8811,3.869,3.8586,3.8457,3.8453,3.8584,3.927,3.9079,3.8837,3.8837,3.6957,3.5435,3.4181,3.2041,3.1033,3.1033,2.9667,2.8984,2.8984,2.8984,2.8984,2.8984,2.8984,2.8984,2.8984,2.8984,2.8984,2.8984,2.8984,2.9222,2.9331,0.0,0.0,0.0,0.0,0.0,0.0,0.0,0.0,0.0,0.0,0.0,0.0,0.0,0.0,0.0,0.0,0.0,0.0,0.0,0.0,0.0,0.0,0.0,0.0,0.0,0.0,0.0,0.0,0.0,0.0,0.0,2.9821,3.0949,3.1982,3.2192,3.2489,3.2949,3.3125,0.0,0.0,0.0,0.0,0.0,0.0,0.0,0.0,0.0,0.0,3.0181,3.0353,3.1192,3.2231,3.2623,3.3108,3.3483,3.3169,3.3294,3.3596,3.3834,3.4123,3.4286,3.3972,3.3897,3.3985,3.4299,3.4164,3.4287,3.5137,3.4316,3.3377,3.3377,3.4614,3.5447,3.4435,3.63,3.8024,3.8607,3.9245,3.9831,4.0404,4.0943,4.1324,4.1028,4.003,3.9338,3.9214,3.8911,3.8511,3.8132,3.8046,3.8287,3.8749,3.8357,3.7828,3.7031,3.5227,3.3643,3.2281,3.0694,3.002,3.002,2.9331,2.8984,2.8984,2.8984,2.8984,2.8984,2.8984,2.8984,2.8984,2.8984,2.8984,2.8984,2.9213,2.9331,2.9558,0.0,0.0,0.0,0.0,0.0,0.0,0.0,0.0,0.0,0.0,0.0,0.0,0.0,0.0,0.0,0.0,0.0,0.0,0.0,0.0,0.0,0.0,0.0,0.0,0.0,0.0,0.0,0.0,0.0,0.0,0.0,0.0,0.0,0.0,0.0,0.0,0.0,0.0,0.0,0.0,0.0,0.0,0.0,0.0,0.0,0.0,0.0,3.0143,3.0536,3.0909,3.1564,3.2331,3.2648,3.2946,3.3169,3.3093,3.3131,3.3294,3.3771,3.3947,3.3985,3.3922,3.396,3.3985,3.3922,3.3526,3.3416,3.3885,3.2735,3.1575,3.1462,3.316,3.422,3.3086,3.4888,3.6838,3.8011,3.8155,3.8564,3.9545,3.9867,4.026,4.06,3.8966,3.8284,3.93,3.8771,3.8147,3.7664,3.7781,3.7816,3.7734,3.737,3.6315,3.4565,3.3412,3.216,3.0597,2.9624,2.9186,2.9186,2.9186,2.9186,2.9177,2.9003,2.8984,2.8984,2.8984,2.8984,2.8984,2.8984,2.8984,2.8984,2.9331,2.9558,2.9558,0.0,0.0,0.0,0.0,0.0,0.0,0.0,0.0,0.0,0.0,2.4917,2.5074,0.0,0.0,0.0,0.0,0.0,0.0,0.0,0.0,0.0,0.0,0.0,0.0,0.0,2.3824,2.3666,2.3666,2.425,0.0,0.0,0.0,0.0,0.0,0.0,0.0,0.0,0.0,0.0,0.0,0.0,0.0,0.0,0.0,0.0,0.0,2.9792,2.9907,3.0133,0.0,3.1573,3.2587,3.2686,3.3034,3.3395,3.3206,3.3395,3.3771,3.3872,3.4223,3.4462,3.401,3.4248,3.4462,3.401,3.382,3.3873,3.397,3.2943,3.1688,3.103,3.2444,3.3175,3.1598,3.3432,3.5479,3.6635,3.6724,3.7223,3.8516,3.8701,3.862,3.8492,3.783,3.7355,3.7057,3.6664,3.6578,3.6712,3.744,3.7092,3.5504,3.5348,3.4114,3.1365,3.1127,3.0448,2.9331,2.9684,2.9851,2.9851,2.9851,2.9851,2.9842,2.925,2.8984,2.8984,2.8984,2.8984,2.8984,2.8984,2.8984,2.8984,2.9331,2.9686,2.9922,0.0,0.0,0.0,0.0,0.0,0.0,0.0,2.2365,2.2953,2.3676,2.4285,2.4707,2.4764,2.4294,2.3956,0.0,0.0,0.0,0.0,0.0,0.0,0.0,0.0,0.0,0.0,2.353,2.3372,2.3298,0.0,2.4095,2.4545,2.482,2.5298,2.5779,2.6359,2.6658,0.0,0.0,0.0,0.0,2.8598,0.0,0.0,0.0,0.0,0.0,0.0,2.8626,2.8952,2.919,3.0144,3.1339,3.2103,3.2822,3.3233,3.2971,3.3383,3.396,3.4248,3.4726,3.509,3.4826,3.4951,3.4819,3.3769,3.2897,3.2294,3.2041,3.1175,3.0208,2.9683,3.1366,3.2412,3.0797,3.2201,3.3928,3.5095,3.5517,3.6031,3.6865,3.7151,3.7425,3.7566,3.637,3.5982,3.6814,3.6135,3.5723,3.5616,3.5758,3.5286,3.4372,3.3776,3.2615,3.0556,3.0556,3.0221,2.9545,2.999,3.0316,3.0635,3.0635,3.0522,3.0074,2.9749,2.9297,2.8984,2.8984,2.8984,2.8984,2.9213,2.9213,2.9331,2.9795,3.0039,3.0157,0.0,0.0,0.0,0.0,0.0,0.0,0.0,2.1824,2.2325,2.3156,2.3795,2.4238,2.4578,2.4315,2.3991,0.0,0.0,0.0,0.0,0.0,0.0,0.0,0.0,0.0,0.0,0.0,0.0,2.3075,2.3372,0.0,0.0,0.0,0.0,0.0,2.539,2.562,2.5773,2.6019,0.0,0.0,0.0,2.798,0.0,0.0,0.0,0.0,0.0,2.7016,2.7284,2.747,2.8294,2.9422,3.0496,3.1734,3.2832,3.2772,3.3283,3.4048,3.4713,3.5303,3.5692,3.5567,3.5642,3.5214,3.3268,3.1912,3.076,2.984,2.9178,2.8674,2.8271,3.0224,3.1339,2.9941,3.0829,3.1971,3.3054,3.3644,3.4278,3.4962,3.5422,3.5949,3.6449,3.4757,3.4403,3.6205,3.5302,3.4574,3.4781,3.3872,3.3217,3.3102,3.2299,3.1315,3.0304,3.0304,3.0231,3.0083,3.0288,3.0663,3.1418,3.1332,3.087,3.0326,3.0027,2.9527,2.8984,2.8984,2.9094,2.9094,2.945,2.9568,2.9686,3.0147,3.0382,3.0509,0.0,0.0,0.0,0.0,0.0,0.0,0.0,2.1267,2.1777,2.3109,2.3352,2.351,2.3845,2.4364,2.4151,0.0,0.0,0.0,0.0,0.0,0.0,0.0,0.0,0.0,0.0,0.0,0.0,2.3298,2.315,0.0,0.0,0.0,0.0,0.0,0.0,2.4703,2.465,2.5662,0.0,0.0,0.0,0.0,0.0,0.0,0.0,0.0,0.0,2.563,2.5497,2.6151,2.6615,2.6962,2.7107,2.9427,3.2162,3.2845,3.347,3.4123,3.519,3.5868,3.6169,3.5667,3.5918,3.5575,3.2492,3.1734,3.0963,2.8471,2.8338,2.8354,2.7542,2.8883,2.9579,2.8056,2.8537,2.9326,3.0247,3.0776,3.1494,3.2893,3.3385,3.366,3.3786,3.3292,3.3048,3.3282,3.2448,3.2607,3.4196,3.2615,3.1404,3.0901,3.0752,3.0174,2.9158,2.9158,2.9471,3.0093,3.0813,3.1456,3.2229,3.1465,3.1143,3.1068,2.9712,2.9021,2.8984,2.8984,2.9213,2.945,2.945,2.9686,2.9922,3.0274,3.0382,3.0509,0.0,0.0,0.0,0.0,0.0,0.0,2.1221,2.1285,2.1667,2.2686,2.3171,2.3375,2.3328,2.4038,2.4084,2.2995,0.0,0.0,0.0,0.0,0.0,0.0,0.0,0.0,0.0,0.0,2.374,2.3298,2.3224,0.0,0.0,0.0,0.0,0.0,0.0,2.3884,2.3981,2.4247,0.0,0.0,0.0,0.0,0.0,0.0,0.0,0.0,0.0,0.0,2.3963,2.4222,2.4794,2.5438,2.57,2.7112,2.9118,3.1065,3.214,3.3076,3.4952,3.5943,3.6213,3.5301,3.5071,3.4316,3.1553,3.0187,2.9062,2.7476,2.7103,2.6914,2.6672,2.7629,2.8232,2.7422,2.7696,2.8202,2.853,2.97,3.08,3.1367,3.2229,3.2921,3.3418,3.2667,3.2294,3.2294,3.177,3.1474,3.1731,3.0964,3.052,3.0547,2.9951,2.9379,2.8984,2.8984,2.9425,3.0093,3.0851,3.138,3.1665,3.176,3.1399,3.0541,2.9981,2.9453,2.8984,2.9213,2.9331,2.9568,2.9912,3.0157,3.0274,3.0518,3.0645,3.0762,0.0,0.0,0.0,0.0,0.0,2.1221,2.1221,2.1336,2.1649,2.2392,2.3107,2.3358,2.3039,2.3706,2.3887,2.3238,2.3536,0.0,0.0,0.0,0.0,0.0,0.0,0.0,0.0,0.0,2.3582,2.2767,2.2692,2.2617,0.0,0.0,2.2617,2.2927,0.0,0.0,0.0,0.0,0.0,0.0,0.0,0.0,0.0,0.0,0.0,0.0,0.0,0.0,0.0,0.0,0.0,2.3821,2.4034,2.4567,2.5752,2.8788,3.0458,3.1589,3.3683,3.5001,3.566,3.4642,3.4078,3.3243,3.0657,2.8915,2.7539,2.6369,2.5961,2.5834,2.5814,2.6626,2.7209,2.698,2.7166,2.7483,2.7614,2.9057,3.0106,3.0118,3.1123,3.1973,3.2593,3.2091,3.1782,3.1782,3.1271,3.068,3.0195,2.9786,2.9827,3.0127,2.937,2.8984,2.8984,2.8984,2.9425,3.0083,3.0607,3.1049,3.1172,3.1598,3.1237,3.0195,3.0073,2.9729,2.9331,2.945,2.9558,2.9795,3.0265,3.0509,3.0635,3.0762,3.0889,3.0889,0.0,0.0,0.0,0.0,0.0,0.0,2.1221,2.1336,2.1649,2.2392,2.3107,2.3358,2.3039,2.346,2.364,2.3214,2.311,0.0,0.0,0.0,0.0,0.0,0.0,0.0,0.0,0.0,2.2734,2.1538,2.1318,2.1242,2.1242,2.1242,2.1558,2.2101,0.0,0.0,0.0,0.0,0.0,0.0,0.0,0.0,0.0,0.0,0.0,0.0,0.0,0.0,0.0,0.0,0.0,0.0,0.0,2.1741,0.0,2.6288,2.8418,2.9788,3.0838,3.2984,3.4612,3.347,3.3278,3.2538,2.9719,2.8369,2.7037,2.4899,2.5073,2.5566,2.5264,2.5834,2.6499,2.672,2.6952,2.7148,2.7567,2.8322,2.8876,2.8938,2.9709,3.0369,3.0754,3.1148,3.1377,3.1377,3.0644,3.0204,3.0204,2.9424,2.8984,2.8993,2.8984,2.8984,2.8984,2.8984,2.9425,3.0083,3.0093,3.0541,3.1153,3.0755,3.0566,3.0528,2.9864,2.9686,2.9922,2.9568,2.9795,3.0382,3.0382,3.0635,3.0889,3.0889,3.0889,3.0889,0.0,0.0,0.0,0.0,0.0,0.0,0.0,2.1486,2.1745,2.2036,2.2703,2.2963,2.2498,2.2907,2.3167,2.2882,2.2661,0.0,0.0,0.0,0.0,0.0,0.0,0.0,0.0,2.2424,2.2124,2.1461,2.1461,2.1308,2.1165,2.1001,2.1001,2.1231,2.1058,2.1201,0.0,0.0,0.0,0.0,0.0,0.0,2.0968,0.0,0.0,0.0,0.0,0.0,0.0,0.0,0.0,0.0,0.0,0.0,0.0,0.0,2.5043,2.719,2.9476,3.0744,3.1088,3.0319,2.9883,2.9203,2.742,2.6488,2.5762,2.4754,2.474,2.4818,2.4923,2.508,2.5646,2.6625,2.6717,2.6826,2.7672,2.8833,2.9427,2.9331,3.0309,3.1057,3.1176,3.1304,3.1377,3.1377,3.0644,3.0204,3.0204,2.9666,2.9213,2.8984,2.8984,2.8984,2.8984,2.8984,2.9287,2.9645,3.0184,3.0351,3.0319,3.0701,3.0625,3.0121,2.9861,2.9804,2.9922,3.0039,3.0274,3.0382,3.0635,3.0772,3.0889,3.0889,3.0889,3.0889,0.0,0.0,0.0,0.0,0.0,0.0,0.0,2.1612,2.1812,2.1862,2.2273,2.2357,2.2023,2.2285,2.2438,2.2356,2.206,0.0,0.0,0.0,0.0,0.0,0.0,0.0,2.1451,2.1593,2.1364,2.0692,2.0692,2.0615,2.0469,2.0304,2.0382,2.0537,2.0362,2.044,0.0,0.0,0.0,0.0,0.0,0.0,2.0032,0.0,0.0,0.0,0.0,0.0,0.0,0.0,0.0,0.0,0.0,0.0,0.0,0.0,2.3041,2.4666,2.6838,2.8261,2.8921,2.8064,2.7774,2.7364,2.6219,2.5522,2.4932,2.4735,2.4529,2.4613,2.4792,2.4776,2.5201,2.6466,2.6607,2.6908,2.8016,2.9173,2.9874,3.0099,3.0826,3.1404,3.1531,3.1551,3.1644,3.1772,3.1021,3.0556,3.0556,3.0017,2.9568,2.934,2.934,2.934,2.934,2.934,2.945,2.9686,3.0077,3.0177,2.9931,3.0543,3.0514,3.0039,3.0039,3.0167,0.0,3.0392,3.0509,3.0635,3.0772,3.0889,3.0889,3.0889,3.0889,3.0889,0.0,0.0,0.0,0.0,0.0,0.0,0.0,2.1726,2.1925,2.1862,2.1788,2.1714,2.1651,2.1651,2.1643,2.1718,0.0,0.0,0.0,0.0,0.0,0.0,0.0,0.0,1.9942,2.0615,2.045,1.9301,1.9301,1.9301,1.9301,1.9301,1.9618,2.0089,1.9539,1.9618,0.0,0.0,0.0,0.0,0.0,0.0,0.0,0.0,0.0,0.0,0.0,0.0,0.0,0.0,0.0,0.0,0.0,0.0,0.0,0.0,0.0,0.0,0.0,2.5651,2.7537,2.6537,2.6636,2.6813,2.6071,2.5197,0.0,2.4833,2.4735,2.4637,2.4833,2.4864,2.5164,2.6385,2.6702,2.7178,2.8343,2.9266,3.0198,3.118,3.1321,3.1439,3.1778,3.1795,3.2029,3.2374,3.1626,3.1153,3.1115,3.0357,2.9922,2.9922,2.9922,2.9931,2.9922,2.9922,2.9922,2.9922,2.9922,2.9922,2.9931,3.0274,3.0392,3.0392,3.0392,3.0635,3.0889,3.0509,3.0635,3.0889,3.0889,3.0889,3.0889,3.0889,3.0889,3.0889,0.0,0.0,0.0,0.0,0.0,0.0,0.0,0.0,0.0,0.0,2.1714,2.1651,2.1514,2.0858,2.0616,0.0,0.0,0.0,0.0,0.0,0.0,0.0,0.0,0.0,1.9942,1.9942,1.9706,1.9301,1.9301,1.9301,1.9301,1.9152,1.9152,1.9231,1.9002,1.9011,0.0,0.0,0.0,0.0,0.0,0.0,0.0,0.0,0.0,0.0,2.0521,2.0979,0.0,0.0,0.0,0.0,0.0,0.0,0.0,0.0,2.2264,0.0,2.2419,0.0,2.441,2.4197,2.4632,2.5055,0.0,2.4801,2.4833,2.4932,2.503,2.5039,2.4932,2.4918,2.5126,2.5743,2.6263,2.6931,2.7891,2.9593,3.0974,3.1522,3.1762,3.164,3.143,3.1668,3.1916,3.1986,3.1465,3.102,3.0698,3.0434,3.0274,3.0274,3.0518,3.0411,2.9931,2.9922,3.0039,3.0274,3.0274,3.0401,3.0655,3.0772,3.0762,3.0762,3.0762,3.0889,3.0889,3.0762,3.0889,3.0889,3.0889,3.0889,3.0889,3.0889,3.0889,3.0889,0.0,0.0,0.0,0.0,0.0,0.0,0.0,0.0,0.0,0.0,0.0,0.0,0.0,0.0,0.0,0.0,0.0,0.0,0.0,0.0,0.0,0.0,0.0,2.0789,2.0108,1.9872,1.9636,1.9469,1.9381,1.9301,1.9301,1.9222,1.9152,1.9152,1.8993,1.9082,1.924,1.939,0.0,0.0,1.9539,0.0,0.0,0.0,0.0,0.0,1.9858,2.0024,0.0,2.0855,2.1203,2.1472,0.0,0.0,0.0,0.0,2.2039,2.1811,2.2176,2.2544,2.2936,2.3342,2.3855,2.4305,2.459,2.4833,2.4932,2.5039,2.5137,2.5137,2.5235,2.5191,2.5467,2.6088,2.6766,2.7709,2.9075,3.0132,3.1132,3.2161,3.1995,3.1875,3.2071,3.2035,3.2124,3.2085,3.1665,3.1226,3.0787,3.0495,3.0382,3.0382,3.0762,3.0772,3.0411,3.0411,3.0411,3.0635,3.0635,3.0762,3.0889,3.0889,3.0889,3.0889,3.0889,3.0889,3.0889,3.0889,3.0889,3.0889,3.0889,3.0889,3.0889,3.0889,3.0889,3.0889,0.0,0.0,0.0,0.0,0.0,0.0,0.0,0.0,0.0,0.0,0.0,0.0,0.0,0.0,0.0,0.0,0.0,0.0,0.0,0.0,0.0,0.0,2.0177,2.0333,2.0108,1.9863,1.9627,1.9399,1.9231,1.9143,1.9143,1.9222,1.9301,1.9381,1.9381,1.9469,1.9645,1.9645,1.9715,1.9872,1.9929,0.0,0.0,0.0,0.0,0.0,0.0,0.0,0.0,1.9226,1.9975,2.0555,2.1003,0.0,0.0,0.0,0.0,0.0,2.2073,2.2242,2.2309,2.3019,2.3569,2.4122,2.4664,2.4884,2.5039,2.5342,2.5137,2.5156,2.5625,2.5679,2.5934,2.672,2.7516,2.8732,3.0752,3.0849,3.1204,3.2542,3.2238,3.2112,3.2574,3.2407,3.2254,3.2142,3.1786,3.1392,3.1059,3.0702,3.0509,3.0509,3.0762,3.0889,3.0889,3.0889,3.0889,3.0889,3.0889,3.0889,3.0889,3.0889,3.0889,3.0889,3.0889,3.0889,3.0889,3.0889,3.0889,3.0889,3.0889,3.0889,3.0889,3.0889,3.0889,3.0889,0.0,0.0,0.0,0.0,0.0,0.0,0.0,0.0,0.0,0.0,0.0,0.0,0.0,0.0,0.0,0.0,0.0,0.0,0.0,0.0,0.0,1.8851,1.9311,1.939,1.924,1.8984,1.8825,1.8603,1.8514,1.8514,1.8514,1.8922,1.924,1.9557,1.9557,1.9636,1.9863,1.9863,1.9863,1.9891,2.0089,0.0,0.0,0.0,0.0,0.0,0.0,0.0,0.0,1.8362,1.9149,1.9943,1.9837,0.0,0.0,0.0,0.0,0.0,2.1401,2.1529,2.1582,2.2309,2.3364,2.4249,2.4411,2.4783,2.5333,2.5538,2.5635,2.5644,2.5794,2.573,2.5788,2.6254,2.7812,2.9534,3.123,3.2041,3.2455,3.2401,3.2371,3.2071,3.1541,3.1424,3.1436,3.1257,3.1142,3.1049,3.0889,3.0801,3.0772,3.0772,3.0889,3.0889,3.0889,3.0889,3.0889,3.0889,3.0889,3.0889,3.0889,3.0889,3.0889,3.0889,3.0889,3.0889,3.0889,3.0889,3.0889,3.0889,3.0889,3.0889,3.0889,3.0889,3.0889,3.0772,0.0,0.0,0.0,0.0,0.0,0.0,0.0,0.0,0.0,0.0,0.0,0.0,0.0,0.0,0.0,0.0,0.0,0.0,0.0,0.0,1.8282,1.8282,1.8514,1.8754,1.9002,1.8825,1.8585,1.8345,1.8353,1.8442,1.8442,1.8175,1.8416,1.8922,1.8585,1.8745,1.939,1.939,1.9678,2.0052,0.0,0.0,0.0,0.0,0.0,0.0,0.0,0.0,0.0,0.0,1.7252,1.7669,1.7841,0.0,0.0,0.0,0.0,0.0,2.0482,2.0576,2.0729,2.1472,2.3192,2.4723,2.5147,2.5718,2.6158,2.6133,2.6084,2.6044,2.592,2.6381,2.7104,2.8192,2.907,2.9968,3.1367,3.1735,3.2021,3.2496,3.2143,3.1674,3.1503,3.1217,3.0831,3.0594,3.0547,3.0367,3.0186,3.0167,3.0167,3.0167,3.0518,3.0635,3.0635,3.0772,3.0889,3.0889,3.0889,3.0889,3.0889,3.0889,3.0889,3.0889,3.0889,3.0889,3.0889,3.0889,3.0889,3.0889,3.0889,3.0889,3.0889,3.0889,3.0645,3.0284,0.0,0.0,0.0,0.0,0.0,0.0,0.0,0.0,0.0,0.0,0.0,0.0,0.0,0.0,0.0,0.0,0.0,0.0,0.0,1.804,1.804,1.804,1.804,1.8201,1.8674,1.8505,1.8264,1.8103,1.8112,1.8112,1.8023,1.7683,1.7764,1.8184,1.7853,1.8175,1.9011,1.8754,1.9039,1.957,0.0,0.0,0.0,0.0,0.0,0.0,0.0,0.0,0.0,0.0,0.0,0.0,0.0,0.0,0.0,1.7787,1.803,1.8701,1.9475,1.9739,2.0087,2.1026,2.2826,2.4676,2.559,2.6174,2.6579,2.6562,2.6533,2.6423,2.6002,2.6917,2.8174,2.9668,2.9938,3.0422,3.1406,3.1362,3.1663,3.2568,3.1854,3.1247,3.1465,3.084,3.0363,2.9962,2.9934,2.9794,2.9587,2.9558,2.9558,2.9558,3.003,3.0274,3.0382,3.0635,3.0772,3.0889,3.0889,3.0889,3.0889,3.0889,3.0889,3.0889,3.0889,3.0889,3.0889,3.0889,3.0889,3.0889,3.0889,3.0772,3.0655,3.0655,3.0284,2.9686,0.0,0.0,0.0,0.0,0.0,0.0,0.0,0.0,0.0,0.0,0.0,0.0,0.0,0.0,0.0,0.0,0.0,0.0,0.0,1.804,1.804,1.804,1.804,1.7951,1.7781,1.7627,1.7473,1.7473,1.7473,1.7302,1.7123,1.7942,1.8095,1.7747,1.8327,1.8745,1.894,1.8175,1.7813,1.7811,1.7339,0.0,0.0,0.0,0.0,0.0,0.0,0.0,0.0,0.0,0.0,0.0,0.0,0.0,1.667,1.6447,1.6854,1.7591,1.8716,1.9247,1.9814,2.09,2.2005,2.3233,2.4723,2.5302,2.5828,2.6807,2.6973,2.6759,2.6228,2.6931,2.7889,2.8816,3.0039,3.1006,3.1455,3.1865,3.2139,3.2207,3.168,3.102,3.0679,3.0121,2.9693,2.9524,2.9487,2.9596,2.9804,2.9922,2.9922,2.9922,2.9922,3.0039,3.0382,3.0382,3.0635,3.0889,3.0889,3.0889,3.0889,3.0889,3.0889,3.0889,3.0889,3.0889,3.0889,3.0889,3.0889,3.0889,3.0889,3.0528,2.9922,2.9922,2.9577,2.8984,0.0,0.0,0.0,0.0,0.0,0.0,0.0,0.0,0.0,0.0,0.0,0.0,0.0,0.0,0.0,0.0,0.0,0.0,0.0,1.804,1.804,1.804,1.804,1.7878,1.7546,1.7473,1.7229,1.6984,1.7139,1.7139,1.7049,1.696,1.7123,1.7286,1.6755,1.6766,1.7365,1.6581,1.6483,1.678,1.5973,1.5729,0.0,0.0,0.0,0.0,0.0,0.0,0.0,0.0,1.3335,0.0,0.0,0.0,0.0,0.0,1.5836,1.7096,1.7728,1.927,2.0898,2.1342,2.2217,2.3372,2.4988,2.5839,2.6319,2.6851,2.7114,2.7168,2.7218,2.8186,2.8991,2.937,3.049,3.121,3.1236,3.1764,3.2168,3.2168,3.1542,3.107,3.0907,3.0062,2.9489,2.9459,2.9331,2.9213,2.9331,2.934,2.934,2.934,2.9686,2.9922,3.0039,3.0518,3.0635,3.0635,3.0762,3.0889,3.0889,3.0889,3.0889,3.0889,3.0645,3.0635,3.0518,3.0401,3.0284,3.0284,3.0039,2.9686,2.934,2.934,2.8975,2.8379,0.0,0.0,0.0,0.0,0.0,0.0,0.0,0.0,0.0,0.0,0.0,0.0,0.0,0.0,0.0,0.0,0.0,0.0,1.804,1.804,1.804,1.804,1.804,1.7797,1.74,1.7392,1.7229,1.6812,1.6894,1.6886,1.6804,1.6386,1.6283,1.6474,1.5689,1.5662,1.5929,1.5178,1.515,1.5429,1.4627,1.4502,0.0,0.0,0.0,0.0,0.0,0.0,0.0,0.0,0.0,0.0,0.0,0.0,0.0,0.0,1.555,1.7175,1.723,1.9263,2.1442,2.1405,2.2124,2.3307,2.5277,2.5992,2.6464,2.7305,2.7428,2.7583,2.8259,2.909,2.9688,2.9679,3.0636,3.1141,3.0741,3.1356,3.1768,3.1768,3.1246,3.0805,3.0805,3.0083,2.9686,2.9686,2.945,2.9331,2.9331,2.9331,2.9222,2.9213,2.9686,2.9922,2.9922,3.0401,3.0645,3.0518,3.0645,3.0762,3.0762,3.0889,3.0889,3.0889,3.0518,3.0382,3.0392,3.0039,2.9804,2.9677,2.9431,2.9085,2.8618,2.8618,2.8259,2.7668,0.0,0.0,0.0,0.0,0.0,0.0,0.0,0.0,0.0,0.0,0.0,0.0,0.0,0.0,0.0,0.0,0.0,0.0,1.804,1.804,1.804,1.804,1.804,1.7797,1.74,1.7392,1.731,1.7139,1.664,1.6304,1.6139,1.6312,1.5905,1.5102,1.5791,1.5705,1.5026,1.4149,1.3806,1.3737,1.3052,1.2764,1.2764,0.0,0.0,0.0,0.0,0.0,0.0,0.0,0.0,0.0,0.0,0.0,0.0,1.4496,1.6213,1.7872,1.7218,1.9182,2.1379,2.1083,2.1567,2.2749,2.5385,2.573,2.6003,2.7939,2.8077,2.8221,2.9414,2.9376,2.9263,2.957,3.0312,3.0732,3.0264,3.0596,3.0889,3.0889,3.0635,3.0382,3.0382,3.0157,2.9922,2.9922,2.9922,2.9922,2.9922,2.9922,2.9804,2.9558,2.9804,2.9922,2.9922,3.0274,3.0518,3.0889,3.0518,3.0382,3.0392,3.0762,3.0889,3.0889,3.0518,3.0382,3.0382,3.0039,2.9677,2.9303,2.9094,2.8618,2.802,2.802,2.7668,2.7073,0.0,0.0,0.0,0.0,0.0,0.0,0.0,0.0,0.0,0.0,0.0,0.0,0.0,0.0,0.0,0.0,0.0,0.0,1.7781,1.7951,1.7951,1.7781,1.7951,1.7797,1.74,1.7066,1.6894,1.6812,1.6648,1.6566,1.6484,1.6126,1.5767,1.5447,1.4827,1.4337,1.4155,1.3406,1.3137,1.3047,1.2926,1.2764,1.2764,0.0,0.0,0.0,0.0,0.0,0.0,0.0,0.0,0.0,0.0,0.0,0.0,1.3829,1.5256,1.6871,1.6738,1.933,2.2059,2.174,2.3137,2.4881,2.5993,2.608,2.6367,2.8076,2.8523,2.8687,2.9138,2.986,3.0188,2.9341,3.0198,3.0616,3.0054,3.049,3.0889,3.0889,3.0772,3.0762,3.0762,3.0401,3.0274,3.0274,3.0039,2.9922,2.9922,2.9922,2.9804,2.9804,3.0039,3.0274,3.0274,3.0518,3.0528,3.0167,3.0274,3.0382,3.0382,3.0509,3.0401,3.0167,3.0039,2.9804,2.9331,2.8856,2.837,2.8113,2.8002,2.7659,2.7306,2.7306,2.7194,2.7073,0.0,0.0,0.0,0.0,0.0,0.0,0.0,0.0,0.0,0.0,1.7174,1.6563,0.0,0.0,0.0,0.0,0.0,0.0,1.787,1.7951,1.7951,1.7781,1.787,1.7708,1.731,1.6894,1.673,1.673,1.6402,1.6402,1.6656,1.5716,1.5324,1.529,1.4251,1.3673,1.3406,1.2989,1.2764,1.2764,1.2764,1.2861,1.2958,0.0,0.0,0.0,0.0,0.0,0.0,0.0,0.0,0.0,0.0,0.0,1.3846,1.3957,1.5556,1.7267,1.7127,1.9794,2.2646,2.2554,2.3979,2.5643,2.6719,2.7046,2.7524,2.8726,2.9205,2.9449,2.9792,3.0266,3.0381,2.9463,3.0042,3.0459,2.9802,3.0383,3.0889,3.0889,3.0889,3.0889,3.0889,3.0762,3.0635,3.0635,3.0401,3.0284,3.0284,3.0284,3.0284,3.0157,3.0392,3.0509,3.0382,3.0762,3.0655,3.0284,3.0147,2.9912,2.9804,3.0039,3.0039,2.9931,2.9686,2.9213,2.8498,2.8011,2.7642,2.7521,2.7409,2.7177,2.7073,2.7073,2.7073,2.7073,0.0,0.0,0.0,0.0,0.0,0.0,0.0,0.0,0.0,0.0,1.6342,1.5833,0.0,0.0,0.0,0.0,0.0,0.0,0.0,1.7951,1.7951,1.7951,1.7781,1.7456,1.7139,1.6812,1.673,1.673,1.6064,1.6079,1.6621,1.5333,1.4683,1.472,1.4001,1.3412,1.2861,1.2861,1.2861,1.2861,1.2861,1.2958,1.3147,1.3147,0.0,0.0,0.0,0.0,0.0,0.0,0.0,0.0,1.3931,1.4118,1.4346,1.4606,1.6531,1.852,1.8003,2.0369,2.2903,2.3107,2.4161,2.5467,2.7328,2.8369,2.9092,2.9482,2.9902,3.0342,3.0801,3.0508,3.0059,2.9639,2.9922,3.0049,2.9629,3.0332,3.0889,3.0889,3.0889,3.0889,3.0889,3.0889,3.0889,3.0889,3.0889,3.0889,3.0889,3.0889,3.0762,3.0392,3.0645,3.0645,3.0274,3.0528,3.0655,3.0645,2.9785,2.9194,2.8984,2.945,2.9686,2.9686,2.9094,2.8379,2.79,2.7521,2.7401,2.7401,2.7185,2.7073,2.7073,2.7073,2.7073,2.7073,0.0,0.0,0.0,0.0,0.0,0.0,0.0,0.0,0.0,0.0,0.0,0.0,0.0,0.0,0.0,0.0,0.0,0.0,0.0,1.787,1.7951,1.7781,1.7546,1.7383,1.7139,1.6812,1.673,1.673,1.6566,1.6277,1.593,1.5136,1.4546,1.4007,1.3334,1.3,1.305,1.305,1.3152,1.3346,1.3346,1.3346,1.3443,1.3443,1.3539,0.0,0.0,0.0,0.0,0.0,0.0,0.0,1.4202,1.4298,1.431,1.437,1.6038,1.7745,1.7344,1.9779,2.2252,2.2313,2.4063,2.6359,2.7834,2.8818,2.9453,2.9551,2.9902,3.0342,3.0801,3.0508,3.0059,2.9639,2.9922,3.0049,2.9629,3.0332,3.0889,3.0889,3.0889,3.0889,3.0889,3.0889,3.0889,3.0889,3.0889,3.0889,3.0889,3.0889,3.0645,3.0039,3.0049,2.9804,2.934,2.934,2.9331,2.8957,2.8838,2.8489,2.8259,2.8379,2.825,2.8002,2.7409,2.7056,2.6935,2.6813,2.6805,2.6813,2.7064,2.7073,2.7073,2.7073,2.7073,2.7073,0.0,0.0,0.0,0.0,0.0,0.0,0.0,0.0,0.0,0.0,0.0,0.0,0.0,0.0,0.0,0.0,0.0,0.0,0.0,0.0,1.7878,1.7546,1.7473,1.7229,1.6894,1.673,1.673,1.673,1.673,1.6399,1.5691,1.5062,1.4462,1.3812,1.3228,1.2953,1.3147,1.3249,1.3346,1.3539,1.3539,1.3539,1.3738,1.3738,1.3829,1.4112,1.4112,0.0,0.0,0.0,0.0,0.0,0.0,0.0,1.4322,1.4461,1.5564,1.6905,1.757,1.9292,2.1213,2.2638,2.4552,2.639,2.7554,2.8736,2.957,2.957,3.0078,3.0605,3.084,3.0342,2.9824,2.96,2.958,2.958,2.957,3.0146,3.0644,3.0859,3.0889,3.0889,3.0889,3.0889,3.0889,3.0889,3.0645,3.0528,3.0889,3.0294,2.9931,2.9922,2.9577,2.9331,2.8984,2.8984,2.8856,2.8737,2.837,2.7891,2.7297,2.7779,2.7771,2.7521,2.7159,2.6935,2.6822,2.6822,2.6822,2.6822,2.7073,2.7073,2.7073,2.7073,2.7073,2.7073,0.0,0.0,0.0,0.0,0.0,0.0,0.0,0.0,0.0,0.0,0.0,0.0,0.0,0.0,0.0,0.0,0.0,0.0,0.0,0.0,0.0,1.7392,1.731,1.7147,1.6738,1.673,1.673,1.673,1.6629,1.6286,1.5691,1.5177,1.4501,1.3812,1.3374,1.3273,1.3471,1.3613,1.3727,1.3919,1.3919,1.4022,1.4214,1.4124,1.4214,1.4394,1.4298,1.4298,1.4298,1.4298,0.0,0.0,0.0,0.0,1.4419,1.4648,1.5382,1.638,1.7816,1.8885,2.0321,2.3314,2.4814,2.5973,2.7125,2.8459,2.9482,2.9551,3.0273,3.0889,3.0889,3.0225,2.9658,2.958,2.9268,2.9131,2.9414,2.9883,3.0342,3.0723,3.084,3.0889,3.0889,3.0889,3.0889,3.0772,3.0167,3.0049,3.0528,2.9577,2.9222,2.9568,2.9094,2.8746,2.8627,2.8627,2.8627,2.8627,2.814,2.7418,2.6692,2.7539,2.765,2.728,2.728,2.7168,2.6952,2.6952,2.7073,2.7073,2.7073,2.7073,2.7073,2.7073,2.7073,2.7073,0.0,0.0,0.0,0.0,0.0,0.0,0.0,0.0,0.0,0.0,1.6853,1.6298,0.0,0.0,0.0,0.0,0.0,0.0,0.0,0.0,0.0,1.7139,1.7139,1.6976,1.6738,1.673,1.673,1.673,1.6354,1.5996,1.5684,1.5641,1.4919,1.3806,1.3749,1.4229,1.4993,1.4386,1.4682,1.5445,1.5445,1.554,1.5547,1.5077,1.4987,1.4885,1.4496,1.4298,1.4298,1.4298,1.4298,0.0,0.0,0.0,1.4666,1.4708,1.5795,1.7069,1.7292,1.8818,2.0941,2.3233,2.4395,2.5537,2.7018,2.8228,2.9111,2.9492,3.0273,3.0889,3.0889,3.0459,2.999,2.9629,2.9521,2.9375,2.9053,2.9687,3.0215,3.0283,3.0644,3.0889,3.0889,3.0889,3.0645,3.0049,2.9922,2.9695,2.934,2.9103,2.8737,2.8259,2.814,2.79,2.7315,2.7315,2.7315,2.7315,2.7315,2.7194,2.7073,2.7194,2.6943,2.6319,2.6319,2.6319,2.6197,2.6571,2.67,2.67,2.6952,2.7073,2.7073,2.7073,2.7073,2.7073,0.0,0.0,0.0,0.0,0.0,0.0,0.0,0.0,0.0,0.0,0.0,1.6643,0.0,0.0,0.0,0.0,0.0,0.0,0.0,0.0,0.0,1.7772,1.7772,1.7689,1.744,1.6916,1.673,1.673,1.6568,1.648,1.6458,1.7,1.6544,1.5259,1.5425,1.5778,1.6178,1.5652,1.5693,1.6175,1.6731,1.7021,1.7244,1.6793,1.6739,1.6759,1.5434,1.5102,1.5115,1.468,1.463,1.4751,1.4751,0.0,0.0,0.0,1.55,1.6215,1.7381,1.8884,2.0711,2.249,2.3712,2.4861,2.6301,2.7583,2.8723,2.9482,3.0068,3.0586,3.084,3.0508,3.0059,2.9639,2.9365,2.9141,2.8945,2.9453,2.9828,2.9728,3.0025,3.0167,2.9813,2.9823,2.9695,2.9459,2.9094,2.8856,2.8984,2.8268,2.7908,2.802,2.7668,2.7306,2.7073,2.7073,2.7073,2.7073,2.7073,2.7073,2.7073,2.7073,2.6943,2.67,2.67,2.67,2.67,2.6822,2.6822,2.6943,2.7073,2.7073,2.7073,2.7073,2.7073,2.7073,0.0,0.0,0.0,0.0,0.0,0.0,0.0,0.0,0.0,0.0,0.0,0.0,0.0,0.0,0.0,0.0,0.0,0.0,0.0,0.0,0.0,0.0,1.8046,1.7963,1.7705,1.703,1.6613,1.6534,1.6946,1.7149,1.7193,1.8534,1.8619,1.7694,1.7492,1.7242,1.7001,1.6954,1.7007,1.7021,1.8125,1.8778,1.8985,1.8812,1.8934,1.892,1.7021,1.6507,1.6559,1.5395,1.5144,1.531,1.5107,1.5155,0.0,0.0,0.0,1.5651,1.738,1.8537,1.974,2.1555,2.285,2.406,2.5423,2.6943,2.8129,2.8993,2.9634,3.0176,3.0403,3.0412,3.012,2.9353,2.9032,2.8713,2.8497,2.8747,2.9,2.8869,2.9282,2.9338,2.8975,2.8984,2.8984,2.8746,2.8259,2.814,2.8507,2.7677,2.7315,2.7779,2.7306,2.7073,2.7073,2.7073,2.7073,2.7073,2.7073,2.7073,2.7073,2.7073,2.7073,2.7073,2.7073,2.7073,2.7073,2.7073,2.7073,2.7073,2.7073,2.7073,2.7073,2.7073,2.7073,2.709,0.0,0.0,0.0,0.0,0.0,0.0,0.0,0.0,0.0,0.0,0.0,0.0,1.7991,1.8565,1.8727,1.831,1.8422,1.8161,1.7155,1.7554,1.749,1.6844,1.7172,0.0,1.6762,1.6738,1.6474,1.6111,1.7188,1.7699,1.7731,1.9821,2.097,2.1185,1.9587,1.8279,1.7266,1.8454,1.8872,1.8751,2.0197,2.0721,2.0806,2.1084,2.1253,2.1065,1.936,1.8873,1.8549,1.6566,1.5897,1.5809,1.531,1.5276,1.5481,0.0,0.0,0.0,1.7015,1.7345,1.7952,2.049,2.1868,2.3061,2.4764,2.6378,2.7583,2.8119,2.8974,2.9624,2.9384,3.0238,3.0354,2.8639,2.8567,2.838,2.7317,2.7271,2.7437,2.786,2.8265,2.8661,2.8948,2.8984,2.8746,2.814,2.802,2.7788,2.7194,2.7194,2.7073,2.7194,2.7073,2.7073,2.7073,2.7073,2.7073,2.7073,2.7073,2.7073,2.7073,2.7073,2.7073,2.7073,2.7073,2.7073,2.7073,2.7073,2.7073,2.7073,2.7073,2.7073,2.7073,2.7073,2.7073,2.7124,0.0,0.0,0.0,0.0,0.0,0.0,0.0,0.0,0.0,0.0,0.0,0.0,0.0,1.8601,1.8772,1.8603,1.8719,1.8719,1.8334,1.853,1.8853,1.911,1.8963,1.8946,1.9281,1.8371,1.7803,1.7666,1.8089,1.8514,1.8971,1.9992,2.0433,2.041,1.9945,1.9855,2.0086,1.9755,1.9914,2.0626,2.1847,2.2451,2.2691,2.2327,2.2386,2.2361,2.0608,1.9666,1.9191,1.7971,1.7306,1.6957,1.6749,1.6507,1.6163,1.5852,1.5813,1.6099,1.6935,1.7364,1.7813,1.9277,2.0863,2.2486,2.3482,2.5092,2.6564,2.7401,2.7818,2.8005,2.8117,2.9287,2.9799,2.856,2.8367,2.815,2.7251,2.738,2.7386,2.6825,2.7373,2.7705,2.7384,2.7639,2.7668,2.7427,2.7427,2.7306,2.7073,2.7073,2.7073,2.7073,2.7073,2.7073,2.7073,2.7073,2.7073,2.7073,2.7073,2.7073,2.7073,2.7073,2.7073,2.7073,2.7073,2.7073,2.7073,2.7073,2.7073,2.7073,2.7073,2.7073,2.7107,2.733,2.7415,2.7467,0.0,0.0,0.0,0.0,0.0,0.0,0.0,0.0,1.9432,1.9108,0.0,0.0,0.0,0.0,1.938,1.9277,1.9151,1.9045,1.9045,1.9271,1.96,2.0052,1.9797,1.9865,2.0217,1.9368,1.8715,1.837,1.9163,1.9536,1.9513,2.0544,2.097,2.0718,2.065,2.0711,2.0854,2.1114,2.1371,2.1882,2.3057,2.3684,2.403,2.3843,2.4007,2.3999,2.2407,2.155,2.098,1.9819,1.8911,1.8436,1.8227,1.7569,1.6948,1.663,1.6418,1.663,1.7153,1.7364,1.747,1.8401,2.0234,2.191,2.2667,2.4663,2.6409,2.7105,2.7382,2.7418,2.7274,2.8272,2.8836,2.8011,2.7984,2.7714,2.6954,2.7104,2.692,2.6329,2.6758,2.6998,2.679,2.6919,2.7073,2.7073,2.7073,2.7073,2.7073,2.7073,2.7073,2.7073,2.7073,2.7073,2.7073,2.7073,2.7073,2.7073,2.7073,2.7073,2.7073,2.7073,2.7073,2.7073,2.7073,2.7073,2.7073,2.7073,2.7073,2.7073,2.7073,2.7073,2.7116,2.7475,2.7604,2.7681,0.0,0.0,0.0,0.0,0.0,0.0,0.0,0.0,1.9036,1.9015,0.0,0.0,0.0,0.0,0.0,2.0481,1.9722,1.9239,1.9239,1.9674,1.9674,1.9239,1.9665,1.9657,1.9221,1.9478,1.9127,1.8078,2.0372,2.063,1.9127,2.1609,2.2637,2.2381,2.188,2.067,1.9296,2.2411,2.3242,2.2762,2.3869,2.444,2.4823,2.565,2.5958,2.5858,2.4822,2.4416,2.4047,2.202,2.0789,2.0053,1.9398,1.8492,1.7687,1.7687,1.7687,1.7582,0.0,0.0,0.0,1.8192,1.9901,2.1556,2.2675,2.5201,2.7431,2.7431,2.7753,2.7816,2.7271,2.7211,2.7278,2.7116,2.7216,2.719,2.6609,2.6174,2.6071,2.6431,2.6473,2.6628,2.7021,2.7081,2.709,2.709,2.709,2.709,2.709,2.7081,2.7073,2.7073,2.7073,2.7073,2.7073,2.7073,2.7073,2.7073,2.7073,2.7073,2.7073,2.7073,2.7073,2.7073,2.7073,2.7073,2.7073,2.7073,2.7073,2.7073,2.7073,2.7073,2.7116,2.7484,2.7621,2.7732,0.0,0.0,0.0,0.0,0.0,2.2941,2.2391,2.1849,2.1352,0.0,0.0,0.0,2.0495,2.0531,2.0558,2.0507,2.0585,2.0589,2.0589,2.0434,2.0443,2.0589,2.031,2.025,2.0428,1.9987,1.9639,1.929,2.0217,2.0446,2.0,2.1311,2.1871,2.1807,2.2114,2.1935,2.1556,2.2636,2.3363,2.3888,2.43,2.4468,2.4594,2.4631,2.4815,2.4904,2.4607,2.4199,2.3772,2.3256,2.2367,2.1399,2.0696,2.0261,1.9746,1.8805,1.8492,1.8394,1.7786,0.0,0.0,0.0,0.0,0.0,2.3634,2.5397,2.6772,2.6772,2.6964,2.7031,2.7105,2.678,2.6699,2.7261,2.7277,2.7047,2.6525,2.6174,2.5977,2.608,2.6088,2.6234,2.661,2.7141,2.7458,2.7458,2.7458,2.7458,2.7458,2.7218,2.7073,2.7073,2.7073,2.7073,2.7073,2.7073,2.7073,2.7073,2.7073,2.7073,2.7073,2.7073,2.7073,2.7073,2.7073,2.7073,2.7073,2.7073,2.7073,2.7073,2.7073,2.7073,2.715,2.7792,2.8148,2.8494,0.0,0.0,0.0,0.0,0.0,2.2783,2.2372,2.1897,2.1621,0.0,0.0,0.0,2.0911,2.1001,2.1025,2.1025,2.108,2.1108,2.1108,2.0703,2.0612,2.086,2.0546,2.0428,2.0689,2.0583,2.0328,2.0081,2.0829,2.102,2.0692,2.1663,2.2124,2.2128,2.2661,2.2939,2.3198,2.3296,2.3785,2.4397,2.4347,2.4538,2.4637,2.4538,2.4637,2.4852,2.4923,2.4681,2.4509,2.4583,2.3803,2.2766,2.1898,2.1433,2.1019,2.0015,1.9941,2.018,1.9594,1.9517,1.9872,2.0886,0.0,0.0,2.4741,2.6118,2.7361,2.7531,2.721,2.6955,2.7196,2.6827,2.6641,2.6885,2.6933,2.6857,2.6722,2.6551,2.6414,2.6414,2.6414,2.6499,2.6713,2.7124,2.745,2.7595,2.7604,2.7681,2.7843,2.7501,2.7295,2.7295,2.715,2.7073,2.7073,2.7073,2.7073,2.7073,2.7073,2.7073,2.7073,2.7073,2.7073,2.7073,2.7073,2.7073,2.7073,2.7073,2.7073,2.7073,2.7073,2.7167,2.7372,2.8088,2.8659,2.9012,0.0,0.0,2.3097,2.2302,2.197,2.1646,2.1044,2.0814,2.0732,0.0,2.0707,2.0787,2.1135,2.1511,2.1741,2.1741,2.1392,2.1172,2.1172,2.0805,2.0585,2.0585,2.0539,2.0521,2.0521,2.104,2.1135,2.0521,2.1677,2.1891,2.12,2.2242,2.2852,2.3033,2.3437,2.3813,2.4251,2.4251,2.4369,2.4505,2.427,2.4477,2.4909,2.4909,2.5036,2.5427,2.5481,2.5613,2.5569,2.576,2.5106,2.403,2.3334,2.2674,2.2009,2.149,2.1893,2.249,2.2159,2.2338,2.2659,2.3011,2.4199,0.0,2.5766,2.7056,2.8145,2.8515,2.7908,2.7356,2.7356,2.7259,2.6993,2.6489,2.6557,2.6821,2.7022,2.6979,2.6979,2.7064,2.7039,2.703,2.7073,2.7107,2.7261,2.7578,2.7646,2.7826,2.8177,2.786,2.7672,2.7672,2.7364,2.7176,2.7133,2.7133,2.7116,2.7073,2.7073,2.7073,2.7073,2.7073,2.7073,2.7073,2.7073,2.7194,2.7194,2.7194,2.7194,2.7073,2.7073,2.7383,2.7718,2.8515,2.9033,2.9392,2.3677,2.3597,2.3403,2.2942,2.2757,2.2543,2.1949,2.1826,2.1759,2.1566,2.1459,2.153,2.1603,2.1686,2.1741,2.1741,2.1667,2.1612,2.1612,2.1218,2.0998,2.0998,2.0686,2.0521,2.0521,2.0594,2.0594,2.0521,2.1425,2.1784,2.164,2.2777,2.3441,2.3743,2.3956,2.4177,2.444,2.4251,2.4444,2.473,2.4389,2.4454,2.4858,2.4858,2.5164,2.5759,2.603,2.6058,2.5975,2.605,2.6115,2.5956,2.5439,2.5149,2.4823,2.3738,2.3651,2.3554,2.2872,2.2773,2.3168,2.4454,2.4774,0.0,2.6287,2.6655,2.6645,2.6731,2.7065,2.7353,2.7353,2.7378,2.7441,2.7659,2.6888,2.6426,2.6618,2.6345,2.6388,2.7004,2.6799,2.673,2.7047,2.733,2.7535,2.7604,2.7895,2.8109,2.8186,2.8117,2.8083,2.8083,2.8015,2.7826,2.7501,2.7501,2.7355,2.7073,2.7073,2.7073,2.7073,2.7073,2.7073,2.7073,2.7297,2.7401,2.7401,2.7659,2.7547,2.7073,2.7289,2.7453,2.7592,2.8676,2.936,2.978,2.3446,2.3262,2.3123,2.2896,2.2672,2.2479,2.2177,2.1996,2.1854,2.1713,2.1741,2.1741,2.1741,2.1741,2.1741,2.1741,2.1459,2.1253,2.1253,2.0871,2.0653,2.0653,2.0537,2.0613,2.0805,2.1016,2.1126,2.1299,2.2113,2.251,2.2547,2.3361,2.3962,2.4359,2.4251,2.4371,2.4646,2.4343,2.449,2.4951,2.4647,2.4813,2.5284,2.5479,2.5806,2.6219,2.6616,2.6722,2.6701,2.6807,2.6532,2.6229,2.6238,2.5909,2.5302,2.4542,2.4613,2.4718,2.3851,2.3956,2.4544,2.5487,2.5595,0.0,0.0,2.6475,2.6229,2.6541,2.6702,2.6702,2.6702,2.6769,2.6767,2.6654,2.6435,2.6334,2.625,2.62,2.6354,2.6739,2.6782,2.6859,2.7056,2.7235,2.7415,2.7586,2.7972,2.828,2.8477,2.8297,2.8406,2.8723,2.8415,2.8217,2.8135,2.7822,2.7518,2.7338,2.7158,2.7073,2.7073,2.7073,2.7194,2.7297,2.7401,2.7642,2.7771,2.79,2.7779,2.7547,2.765,2.7894,2.8114,2.8879,2.952,3.0041,2.3224,2.2917,2.2726,2.2662,2.2376,2.2102,2.2007,2.1873,2.1741,2.1741,2.1741,2.1741,2.1741,2.1741,2.1679,2.1752,2.1371,2.1128,2.1121,2.0848,2.0657,2.0739,2.0829,2.1053,2.1456,2.1796,2.206,2.224,2.2973,2.3335,2.3363,2.3771,2.4221,2.4748,2.449,2.4564,2.496,2.4601,2.4922,2.5498,2.5312,2.547,2.59,2.6163,2.6399,2.6672,2.7075,2.7351,2.752,2.7337,2.6814,2.6371,2.6541,2.6239,2.5535,2.476,2.52,2.5795,2.5035,2.5359,2.6022,2.6295,2.6352,2.639,0.0,0.0,0.0,2.6722,2.6579,2.6399,2.6399,2.6569,2.6343,2.5703,2.6132,2.6319,2.5658,2.5961,2.6268,2.6394,2.6798,2.6936,2.6867,2.6919,2.7141,2.7569,2.7835,2.8212,2.8879,2.8604,2.8731,2.9497,2.8954,2.8754,2.8785,2.823,2.7873,2.7604,2.7435,2.7263,2.7185,2.7185,2.7297,2.7642,2.7642,2.7891,2.814,2.814,2.814,2.814,2.814,2.8344,2.8647,2.9067,2.9632,3.0212,2.3001,2.2851,2.2673,2.2433,2.2261,2.2026,2.1789,2.1704,2.1741,2.1741,2.1741,2.1741,2.1741,2.1741,2.1788,2.1861,2.2026,2.2162,2.2348,2.2171,2.2199,2.2574,2.2227,2.2318,2.2647,2.2701,2.2813,2.2823,2.3253,2.3474,2.3483,2.3993,2.4332,2.4523,2.4656,2.5034,2.5494,2.5619,2.5993,2.6569,2.6578,2.6371,2.6219,2.6598,2.675,2.6807,2.7214,2.7707,2.8019,2.7199,2.7362,2.7815,2.639,2.6702,2.7284,2.5764,2.5829,2.6328,2.6212,2.6212,2.6517,2.7088,2.7015,2.6759,2.6807,0.0,2.6182,2.6238,0.0,2.716,2.716,0.0,0.0,2.6218,2.6703,2.6444,2.4052,2.4665,2.5594,2.6171,2.6472,2.6422,2.6097,2.6362,2.685,2.7552,2.7355,2.7779,2.9221,2.9229,2.9515,3.0298,3.0133,2.981,2.9212,2.9406,2.8902,2.7604,2.7816,2.7739,2.7401,2.7401,2.765,2.802,2.8268,2.8397,2.8517,2.8746,2.8865,2.8865,2.8517,2.8424,2.8625,2.9331,2.9626,2.9819,2.3001,2.2851,2.2679,2.2559,2.228,2.2045,2.1966,2.1762,2.1651,2.1571,2.1571,2.1653,2.188,2.1907,2.2154,2.2917,2.2769,2.2758,2.3027,2.2777,2.2758,2.2744,2.2692,2.2878,2.329,2.3299,2.3299,2.349,2.3888,2.3962,2.3749,2.4156,2.46,2.5053,2.4905,2.5135,2.5871,2.5815,2.6088,2.6466,2.6922,2.6873,2.667,2.7237,2.7496,2.7728,2.7902,2.8077,2.8262,2.7854,2.7487,2.736,2.7295,2.7074,2.6747,2.6219,2.6144,2.6096,2.5984,2.5984,2.6078,2.6598,2.657,2.6447,2.6447,2.6305,2.6172,2.6172,0.0,0.0,0.0,0.0,0.0,0.0,2.6769,2.6988,2.5823,2.5559,2.519,2.4171,2.482,2.5509,2.5818,2.6482,2.6961,2.727,2.7158,2.7495,2.8299,2.8676,2.9235,3.0006,3.0254,3.029,3.025,2.9882,2.9471,2.8885,2.8562,2.8263,2.8087,2.7867,2.802,2.8268,2.8397,2.8526,2.8517,2.8636,2.8627,2.8379,2.8268,2.8388,2.8893,2.9168,2.9369,2.9617,2.3298,2.3004,2.2658,2.2546,2.2241,2.2026,2.1891,2.1808,2.1717,2.1464,2.1563,2.1825,2.2104,2.2317,2.2843,2.3711,2.3655,2.3711,2.3919,2.3644,2.3548,2.3444,2.3367,2.3419,2.3897,2.3809,2.3809,2.4003,2.4291,2.4347,2.4189,2.4477,2.4895,2.5362,2.5172,2.5533,2.6268,2.6181,2.6428,2.6854,2.7381,2.7542,2.7422,2.7709,2.8077,2.8291,2.8291,2.8291,2.8271,2.8048,2.7573,2.711,2.7602,2.7253,2.6608,2.6574,2.6458,2.6295,2.5967,2.5838,2.6006,2.6311,2.6387,2.6387,2.6387,2.6387,2.6387,2.6387,2.6387,0.0,0.0,0.0,2.6445,2.6092,0.0,2.7285,2.6608,2.5792,2.4795,2.3181,2.33,2.3884,2.4819,2.5702,2.631,2.6411,2.679,2.7116,2.771,2.8367,2.9118,2.9885,3.0316,3.0642,3.0879,3.0454,3.0075,2.9598,2.9155,2.8763,2.8549,2.8273,2.8268,2.8636,2.8636,2.8636,2.8636,2.8636,2.8259,2.7642,2.7642,2.7694,2.7876,2.8526,2.8554,2.8342,2.4127,2.3372,2.2594,2.2138,2.2104,2.1958,2.1489,2.1699,2.185,2.1582,2.2107,2.2452,2.2461,2.3196,2.3721,2.3839,2.4555,2.5119,2.5227,2.4982,2.508,2.5557,2.4688,2.4412,2.4815,2.443,2.4134,2.4233,2.4242,2.4354,2.4739,2.4757,2.4977,2.5372,2.5674,2.6106,2.6816,2.6998,2.7535,2.8252,2.8262,2.8262,2.8213,2.7832,2.7939,2.8291,2.8291,2.8291,2.8232,2.7497,2.7718,2.7999,2.6674,2.716,2.796,2.6616,2.6664,2.7207,2.6679,2.6574,2.6583,2.691,2.7012,2.7012,2.7012,2.7012,2.7012,2.7012,2.7012,2.7012,2.7012,2.7363,2.7124,2.5662,2.7065,0.0,0.0,2.4578,2.459,2.423,2.2401,2.1516,2.2305,2.3448,2.4316,2.4787,2.5905,2.6953,2.807,2.836,2.9092,3.0266,3.0556,3.0865,3.087,3.124,3.0592,2.9217,2.9555,2.9265,2.8535,2.8526,2.8636,2.8984,2.8984,2.8984,2.8984,2.8984,2.7993,2.652,2.652,2.5724,2.4835,2.715,2.6735,2.516,2.4116,2.3613,2.3008,2.2473,2.2187,2.214,2.2215,2.2557,2.2908,2.3019,2.3308,2.3673,2.3966,2.4184,2.4631,2.5343,2.5575,2.5868,2.6024,2.5771,2.5761,2.603,2.5513,2.535,2.5647,2.5369,2.535,2.5637,2.5637,2.5657,2.5769,2.5769,2.5891,2.6064,2.5908,2.6274,2.7204,2.7228,2.7295,2.7535,2.7766,2.7881,2.7891,2.8027,2.8164,2.8291,2.8291,2.8291,2.8271,2.8019,2.7988,2.7881,2.765,2.7561,2.75,2.7563,2.735,2.7221,2.7639,2.7552,2.7338,2.7441,2.7441,2.7373,2.708,2.7012,2.7012,2.7012,2.7012,2.7012,2.7012,2.7139,2.709,2.654,2.7305,2.7295,0.0,2.3997,2.255,2.1677,2.1154,2.1118,2.1467,2.3363,2.4548,2.4667,2.6002,2.7108,2.7366,2.7089,2.7693,2.9502,2.9226,2.9798,3.1249,3.1377,3.0984,3.0203,3.0065,2.9788,2.9249,2.8984,2.837,2.7633,2.7633,2.7021,2.6042,2.6042,2.5668,2.4933,2.4933,2.4147,2.3307,2.4992,2.5282,2.4948,2.5002,2.4581,2.4039,2.3669,2.3172,2.2907,2.3189,2.3513,2.3787,2.3994,2.4578,2.4951,2.4862,2.5333,2.5828,2.6406,2.6771,2.708,2.7182,2.6824,2.6636,2.6738,2.6032,2.5867,2.6267,2.5976,2.6034,2.6673,2.6773,2.6695,2.6607,2.6701,2.6722,2.6588,2.6598,2.6902,2.7403,2.7612,2.762,2.765,2.7986,2.8295,2.8463,2.8739,2.8632,2.831,2.8467,2.8613,2.875,2.875,2.8564,2.8389,2.8662,2.8369,2.8027,2.8584,2.8359,2.8008,2.8408,2.831,2.8076,2.793,2.7891,2.7734,2.7148,2.7012,2.6973,2.6826,2.667,2.665,2.6953,2.6894,2.6836,2.6992,2.7246,2.695,0.0,2.3829,2.2135,2.0479,2.0315,2.0226,2.0134,2.2053,2.3515,2.3878,2.531,2.6557,2.7064,2.6273,2.6546,2.8071,2.8044,2.8793,3.0232,3.1038,3.1176,3.0781,3.0387,2.9728,2.8927,2.842,2.7513,2.6277,2.6277,2.5668,2.4695,2.4695,2.4317,2.3574,2.3574,2.2843,2.2062,2.3654,2.4186,2.3978,2.6792,2.6198,2.5791,2.5619,2.4761,2.4088,2.4137,2.4484,2.466,2.4498,2.5622,2.6274,2.5616,2.6517,2.7299,2.72,2.8071,2.8618,2.8649,2.7915,2.7533,2.7656,2.6406,2.6106,2.6923,2.6387,2.6481,2.7235,2.7419,2.7544,2.7371,2.7666,2.7554,2.7079,2.7822,2.7881,2.7618,2.8252,2.853,2.8398,2.894,2.9403,2.9776,2.9816,2.9252,2.8408,2.8809,2.9219,2.957,2.957,2.957,2.957,2.957,2.957,2.957,2.959,2.959,2.9482,2.9092,2.8965,2.8848,2.8428,2.832,2.8105,2.7275,2.708,2.6963,2.6562,2.6152,2.6094,2.6875,2.6689,2.6533,2.6894,2.688,2.6305,2.4451,2.4079,2.3129,2.0687,1.9809,1.9113,1.8532,1.9827,2.1192,2.2223,2.3743,2.5302,2.6926,2.5896,2.5544,2.5931,2.6901,2.7773,2.8297,3.025,3.1048,3.0655,3.0281,2.911,2.7429,2.7079,2.6172,2.4933,2.4933,2.481,2.481,2.481,2.3938,2.2577,2.2577,2.1828,2.1159,2.3085,2.3363,2.2465,2.7812,2.8249,2.8241,2.7476,2.5388,2.4038,2.5031,2.5349,2.5882,2.7108,2.7427,2.7728,2.8295,2.825,2.8143,2.7933,2.8346,2.8561,2.8492,2.8401,2.8462,2.8702,2.8188,2.8006,2.835,2.8116,2.8157,2.8717,2.8819,2.8735,2.8645,2.875,2.8694,2.8581,2.8471,2.8729,2.9323,2.9167,2.9239,2.9595,3.0124,2.9911,2.9373,3.0047,2.9898,2.9258,2.9365,2.9473,2.957,2.957,2.957,2.957,2.957,2.957,2.9629,2.9941,2.9814,2.9619,2.9814,2.9639,2.9297,2.8867,2.876,2.8613,2.8086,2.7969,2.793,2.7822,2.7715,2.751,2.709,2.6934,2.668,2.6152,2.5857,2.5653,2.5432,2.4217,2.3095,2.2402,2.1148,2.0041,1.912,2.0179,2.1421,2.281,2.2923,2.3708,2.5538,2.3212,2.2842,2.4661,2.4479,2.5579,2.8297,2.826,2.8538,2.9238,2.8084,2.6927,2.608,2.5991,2.5054,2.3566,2.3566,2.3084,2.2097,2.2097,2.1853,2.1475,2.1475,2.1456,2.1363,2.1706,2.1654,2.1258,2.8598,2.8671,2.8555,2.7894,2.6543,2.5921,2.7055,2.7045,2.739,2.8483,2.8795,2.8957,2.9074,2.8927,2.8817,2.8705,2.8992,2.9229,2.9176,2.9044,2.9034,2.9029,2.8676,2.8635,2.889,2.8737,2.9033,2.9611,2.9704,2.9621,2.9343,2.9459,2.9237,2.89,2.909,2.9225,2.9428,2.9268,2.9745,3.0516,3.0766,3.0847,0.0,3.1333,3.1319,3.089,3.0475,3.0207,3.0146,3.0146,3.0146,3.0146,3.0146,3.0146,3.0195,3.043,3.0332,3.0205,3.043,3.0322,3.0088,2.9844,2.9785,2.9619,2.8994,2.8848,2.8799,2.8603,2.8418,2.8262,2.8154,2.7676,2.7021,2.6162,2.5643,2.5507,2.5573,2.4227,2.3178,2.3055,2.1558,2.0336,1.9815,2.0296,2.101,2.1647,2.1906,2.261,2.3854,2.1888,2.1286,2.262,2.2935,2.4093,2.597,2.6727,2.7414,2.8022,2.6937,2.5939,2.4914,2.4761,2.3762,2.2215,2.2215,2.1853,2.1109,2.1109,2.1109,2.1136,2.139,2.143,2.1389,2.1556,2.1352,2.0943,2.9282,2.8436,2.7933,2.8168,2.818,2.8641,2.9862,2.9285,2.8785,2.9208,2.9734,2.9794,2.8948,2.9307,2.9496,2.9394,2.9766,2.9994,2.9994,2.9774,2.9485,2.9085,2.8776,2.8776,2.9065,2.9065,2.9373,2.9994,3.0193,3.0078,2.9659,2.9879,2.9659,2.9006,2.9659,2.9669,2.9016,2.9237,3.0031,3.12,3.1264,3.1811,3.2812,3.2876,3.2805,3.2405,3.1572,3.1092,3.0907,3.0742,3.0752,3.0801,3.0801,3.084,3.0889,3.0889,3.0889,3.0889,3.0889,3.0889,3.0889,3.0889,3.0889,3.0693,2.9922,2.9746,2.9639,2.9258,2.8887,2.8828,2.9453,2.8574,2.75,2.6758,2.6318,2.592,2.5674,2.4659,2.3852,2.3462,2.1812,0.0,2.0385,2.0385,2.0192,1.9983,2.0765,2.1399,2.2049,2.0958,2.0374,2.0453,2.2018,2.2848,2.3102,2.5446,2.6581,2.6847,2.6285,2.5297,2.3782,2.3493,2.2539,2.1109,2.1109,2.1109,2.1109,2.1109,2.1109,2.1169,2.1757,2.1852,2.1521,2.2095,2.1897,2.1352,3.0094,2.9311,2.9148,3.124,3.0293,3.0022,3.254,3.0612,2.9299,3.0323,3.0414,3.0381,3.0435,3.0675,3.0565,2.9974,2.9953,2.9994,2.9994,2.9994,2.9848,2.9766,2.9766,2.9766,2.9766,2.9766,2.9911,2.9994,3.0099,2.9994,2.9889,2.9994,2.9984,3.0068,3.0287,3.0401,3.0412,3.0516,3.0874,3.1434,3.1816,3.2096,3.2186,3.255,3.2395,3.1893,3.1697,3.1371,3.0957,3.0148,3.0029,3.0322,3.0322,3.0586,3.0889,3.0889,3.0889,3.0889,3.0889,3.0889,3.0889,3.0889,3.0889,3.085,3.0693,3.0664,3.0635,3.0566,3.0488,3.0254,2.9678,2.8809,2.8135,2.7978,2.7891,2.7785,2.7825,2.7045,2.6408,2.599,2.3918,2.2199,2.1074,1.9604,1.9278,2.0566,1.9187,1.9034,2.089,1.9543,1.8926,1.937,2.0609,2.1964,2.3109,2.3475,2.4203,2.5405,2.4146,2.3165,2.2372,2.2318,2.1869,2.1109,2.1109,2.1109,2.1109,2.1109,2.1109,2.1169,2.1757,2.1984,2.1925,2.251,2.2448,2.2035,3.1308,3.056,3.0345,3.1759,3.1211,3.1205,3.2745,3.2088,3.1506,3.1982,3.194,3.1957,3.2006,3.2152,3.1891,3.0888,3.1008,3.0958,3.0346,3.0356,3.0356,3.0356,3.0118,2.9994,2.9994,2.9994,2.9994,2.9994,2.9994,2.9994,2.9994,2.9994,3.0099,3.0193,3.0193,3.0433,3.0779,3.0779,3.1285,3.2046,3.2268,3.2538,3.2857,3.3077,3.2934,3.2675,3.2096,3.1758,3.1574,3.0917,3.0567,3.0205,3.0205,3.0091,3.0025,3.0248,3.0422,3.0586,3.083,3.0889,3.0889,3.0889,3.0889,3.0889,3.0889,3.0889,3.0889,3.0889,3.0889,3.0693,3.0019,2.9385,2.8877,2.8652,2.8437,2.8476,2.88,2.7905,2.7243,2.7475,2.5341,2.3578,2.2886,2.0759,1.9775,2.0765,1.9362,1.9286,2.132,1.944,1.8593,1.9354,2.044,2.133,2.1957,2.2559,2.3263,2.3938,2.3263,2.2552,2.1984,2.1984,2.1663,2.1109,2.1109,2.1109,2.1109,2.1109,2.1109,2.1169,2.1757,2.1984,2.2058,2.2645,2.2722,2.2585,3.2352,3.1637,3.1227,3.2245,3.218,3.2276,3.3019,3.3625,3.3743,3.3325,3.3408,3.3387,3.3404,3.3561,3.3295,3.2372,3.2635,3.2459,3.1646,3.154,3.1434,3.1241,3.0884,3.0538,3.0139,3.0139,3.0098,2.9994,2.9994,2.9942,3.0047,2.9942,2.9889,2.9994,3.0297,3.0653,3.0795,3.0791,3.1407,3.2378,3.2378,3.2763,3.3409,3.3409,3.3409,3.3356,3.2527,3.2178,3.223,3.2021,3.1207,3.0201,3.0201,2.9628,2.9086,2.9422,2.9794,3.0044,3.0413,3.0577,3.0655,3.0655,3.0762,3.0762,3.0762,3.0889,3.0889,3.0889,3.0889,3.0781,3.041,3.0078,2.9736,2.9394,2.8975,2.8917,2.947,2.8627,2.8033,2.8484,2.6688,2.5261,2.5053,2.2552,2.1133,2.1533,2.0364,2.0241,2.1802,1.9991,1.9129,1.9655,2.0689,2.1114,2.0982,2.2539,2.3133,2.2859,2.2996,2.2687,2.1984,2.1984,2.1663,2.1109,2.1109,2.1109,2.1109,2.1109,2.1149,2.1256,2.1784,2.2024,2.2144,2.2665,2.2859,2.2866,3.2537,3.1737,3.1734,3.4379,3.3956,3.3636,3.5088,3.5114,3.4667,3.3672,3.4017,3.4209,3.3934,3.4586,3.4863,3.4475,3.4567,3.4486,3.4382,3.4382,3.3975,3.2951,3.2801,3.2169,3.0626,3.0626,3.0419,2.9994,2.9774,2.986,3.036,2.9558,2.9459,3.0015,3.1441,0.0,0.0,3.1241,3.1598,3.2043,3.2043,3.2313,3.2727,3.2727,3.2727,3.2727,3.2685,3.2664,3.2664,3.2602,3.1348,2.9629,2.9629,2.9263,2.8785,2.8823,2.9098,2.9403,2.9441,2.9745,3.0039,3.0039,3.0274,3.0509,3.0509,3.0645,3.0889,3.0889,3.0889,3.0879,3.083,3.0791,3.0752,3.0713,3.0322,3.0029,3.0068,2.9964,2.9838,2.9488,2.8585,2.7694,2.6725,2.4639,2.3507,2.3896,2.1935,2.0662,2.0841,2.0942,2.0557,1.9779,2.1001,2.1331,2.0701,2.3377,2.4224,2.2866,2.355,2.3226,2.1984,2.1984,2.1663,2.1109,2.1109,2.1109,2.1109,2.1109,2.1269,2.1543,2.1864,2.2151,2.2418,2.2746,2.2859,2.2859,3.3133,3.2934,3.3186,3.445,3.4314,3.4198,3.5041,3.56,3.5722,3.5296,3.5454,3.566,3.5953,3.6467,3.6269,3.4928,3.5644,3.5735,3.4786,3.4863,3.4823,3.46,3.4128,3.3659,3.3144,3.3132,3.3044,3.2845,3.2729,3.2827,3.3061,3.213,3.1519,3.1123,0.0,3.1603,3.1615,3.1692,3.2043,3.2457,3.2457,3.2571,3.2727,3.2727,3.2727,3.2727,3.2727,3.2727,3.2727,3.2487,3.1613,3.0485,2.977,2.9162,2.8506,2.8172,2.8295,2.8596,2.8842,2.9212,2.9534,2.9534,2.9849,3.0157,3.0157,3.0167,3.0411,3.0518,3.0762,3.0889,3.0889,3.0889,3.0889,3.0889,3.0732,3.0731,3.0827,3.0721,3.0662,3.06,2.9901,2.9298,2.8889,2.6911,2.5612,2.5805,2.2909,2.1544,2.2471,2.167,2.1148,2.1166,2.2011,2.2463,2.2078,2.399,2.4774,2.4224,2.4503,2.4166,2.3297,2.2773,2.2053,2.1109,2.1109,2.1109,2.1109,2.1109,2.1283,2.1583,2.1877,2.2164,2.2452,2.2752,2.2859,2.2859,3.3653,3.3863,3.423,3.4567,3.4664,3.4846,3.5175,3.5966,3.6628,3.6949,3.6899,3.7097,3.7467,3.7778,3.7332,3.606,3.6952,3.7124,3.6003,3.6121,3.6119,3.5978,3.5442,3.5072,3.49,3.4585,3.4505,3.4763,3.4031,3.4068,3.4967,3.4406,0.0,0.0,3.2146,3.218,3.238,3.2228,3.2426,3.2727,3.2727,3.2727,3.2727,3.2727,3.2727,3.2851,3.2851,3.2841,3.2955,3.2592,3.2034,3.1481,3.0231,2.923,2.8439,2.7995,2.8201,2.8482,2.8767,2.9155,2.9496,2.9512,2.9766,3.014,3.0143,3.0172,3.0263,3.0485,3.0605,3.0655,3.0889,3.0772,3.0772,3.0889,3.0889,3.1005,3.1112,3.0995,3.0956,3.0915,3.0505,3.0195,3.0195,2.8496,2.7294,2.7003,2.4286,2.2935,2.3612,2.2697,2.2048,2.2103,2.2829,2.3292,2.3155,2.4804,2.545,2.5044,2.5172,2.4834,2.3818,2.2853,2.2018,2.1109,2.1109,2.1109,2.1109,2.1109,2.1336,2.1704,2.1904,2.2218,2.2572,2.2786,2.2859,2.2859,3.3887,3.4242,3.4591,3.5126,3.5416,3.5793,3.6333,3.6591,3.7171,3.8252,3.8222,3.8144,3.8388,3.7941,3.7863,3.8706,3.8816,3.8724,3.8712,3.8724,3.8279,3.718,3.7073,3.6398,3.5153,3.3966,3.3918,3.4763,3.2254,3.2457,3.5294,0.0,3.4993,3.3258,3.4039,3.4076,3.3307,3.2875,3.2727,3.2727,3.2727,3.2727,3.2727,3.2727,3.2965,3.3193,3.3193,3.3409,3.3512,3.2924,3.2685,3.2374,3.0799,2.9572,2.8662,2.8662,2.8946,2.9268,2.9268,2.9581,2.9898,3.0082,3.0297,3.0521,3.0691,3.0917,3.1049,3.1003,3.0462,3.0167,3.0772,3.0635,3.0509,3.0889,3.0889,3.0889,3.0889,3.0889,3.0723,3.0264,3.0195,3.0195,3.0195,2.9278,2.8391,2.7615,2.648,2.5296,2.3634,2.3938,2.3533,2.2285,2.3259,2.3588,2.3199,2.5874,2.6391,2.5044,2.5704,2.5093,2.3021,2.1767,2.1116,2.1109,2.1109,2.1109,2.1109,2.1109,2.145,2.1984,2.1984,2.2345,2.2859,2.2859,2.2859,2.2859,3.39,3.4348,3.4997,3.5904,3.5963,3.6024,3.6626,3.7047,3.7506,3.816,3.8246,3.837,3.8637,3.8526,3.828,3.7771,3.8411,3.8681,3.8312,3.8423,3.8409,3.8291,3.808,3.789,3.7616,3.7287,3.7297,3.7861,3.7001,0.0,0.0,3.6636,3.5757,3.4451,3.4416,3.428,3.4099,3.3988,3.3907,3.394,3.3517,3.3437,3.359,3.2933,3.2965,3.3193,3.2965,3.3079,3.3296,3.281,3.2571,3.2207,3.1502,3.059,2.9611,2.8861,2.8757,2.8861,2.8861,2.9164,2.959,2.9917,3.0348,3.054,3.0709,3.0812,3.0766,3.0757,3.099,3.093,3.0644,3.0696,3.0719,3.0332,3.0167,3.0167,3.0167,3.0167,3.0227,3.0316,3.0296,3.0422,3.0674,3.0441,2.9742,2.8486,2.8104,2.6646,2.3871,2.3671,2.3636,2.3547,2.4352,2.494,2.5283,2.651,2.6934,2.6532,2.6792,2.6028,2.4438,2.3532,2.2856,2.248,2.248,2.248,2.248,2.248,2.2596,2.2635,2.2635,2.2739,2.2859,2.2859,2.2859,2.2859,3.3861,3.4454,3.5027,3.5795,3.5842,3.5989,3.6858,3.7218,3.769,3.8263,3.844,3.8551,3.8594,3.8631,3.8362,3.7575,3.8136,3.838,3.8038,3.8121,3.8303,3.8514,3.8303,3.8409,3.8631,3.8198,0.0,3.8869,3.8658,3.7944,3.6681,3.6746,3.6366,3.5473,3.4928,3.4844,3.4841,3.4613,3.4484,3.4425,3.3854,3.3737,3.3792,3.2993,3.2965,3.3193,3.2965,3.3079,3.3296,3.3037,3.2799,3.2457,3.2018,3.1367,3.064,2.9804,2.9498,2.9498,2.9498,2.968,2.9987,3.031,3.073,3.1057,3.1264,3.1264,3.1151,3.1285,3.1408,3.1331,3.1194,3.1257,3.118,3.0801,3.0501,3.0268,3.0268,3.0016,2.9982,3.017,3.0151,3.0277,3.0625,3.0635,3.0354,2.9659,2.9155,2.8033,2.6223,2.5085,2.4589,2.4975,2.5448,2.5804,2.6407,2.6893,2.72,2.72,2.6666,2.6043,2.5213,2.4162,2.3487,2.3106,2.3106,2.3106,2.3106,2.3106,2.3239,2.342,2.3159,2.314,2.327,2.2996,2.2859,2.2859,3.403,3.4438,3.4896,3.526,3.5247,3.5685,3.6959,3.7194,3.7562,3.854,3.8687,3.8594,3.8409,3.8409,3.8303,3.7974,3.7986,3.7986,3.7986,3.7986,3.7986,3.7986,3.7986,3.8092,3.8409,3.7311,3.7157,3.8017,3.7489,3.6624,3.527,3.6272,3.668,3.6383,3.5795,3.5521,3.5557,3.4944,3.4636,3.4484,3.4059,3.3726,3.3573,3.2983,3.2955,3.3193,3.3193,3.3296,3.3512,3.3275,3.3264,3.3037,3.2133,3.1787,3.1682,3.1122,3.0889,3.0889,3.0889,3.0889,3.0879,3.1059,3.1373,3.1788,3.233,3.2081,3.195,3.2219,3.1779,3.1493,3.2095,3.1973,3.1841,3.2046,3.1445,3.1036,3.0888,3.0325,2.9935,2.9748,2.9815,2.992,3.0244,3.0273,3.0459,3.0859,2.9804,2.937,3.0101,2.7693,2.6495,2.6902,2.656,2.6545,2.6839,2.7034,2.72,2.7193,2.5958,2.5236,2.5213,2.3903,2.323,2.323,2.323,2.323,2.3238,2.326,2.3642,2.4086,2.3448,2.356,2.3959,2.327,2.3003,2.2996,3.4159,3.4435,3.487,3.5893,3.5794,3.5783,3.6758,3.6675,3.6897,3.777,3.7904,3.8063,3.8372,3.8198,3.8092,3.7986,3.7986,3.7986,3.7986,3.7986,3.7986,3.7986,3.7986,3.7986,3.8092,3.7484,3.7132,3.7124,3.7292,3.7035,3.637,3.6676,3.668,3.637,3.6293,3.6164,3.6189,3.6431,3.606,3.5331,3.6036,3.5344,3.4021,3.4083,3.3727,3.3193,3.2955,3.3069,3.3306,3.3512,3.3388,3.3151,3.2696,3.2123,3.1682,3.1122,3.0889,3.0889,3.0889,3.0889,3.0996,3.1297,3.1725,3.22,3.2277,3.2245,3.227,3.2407,3.2438,3.2392,3.1942,3.2018,3.2046,3.1464,3.1321,3.0907,3.0362,3.0111,2.9895,2.9592,2.978,3.0004,3.0354,3.0889,3.1113,3.0908,3.0936,3.0911,3.1136,3.0316,2.9741,2.9394,2.8315,2.8052,2.8622,2.7676,2.72,2.7193,2.6348,2.6008,2.5984,2.5047,2.461,2.461,2.461,2.461,2.4634,2.4891,2.5003,2.4887,2.5013,2.4827,2.4774,2.4638,2.4231,2.3686,3.4534,3.4594,3.4872,3.5661,3.5515,3.5503,3.6329,3.6208,3.6317,3.7144,3.7241,3.7363,3.7655,3.7576,3.7368,3.7264,3.7709,3.7986,3.7986,3.7986,3.7986,3.7986,3.7986,3.7878,3.7625,3.7336,3.6922,3.6251,3.6208,3.6137,3.6026,3.6232,3.6264,3.6181,3.637,3.6508,3.6759,3.7061,3.702,3.6626,3.6934,3.6414,3.5401,3.4725,3.4155,3.3727,3.3182,3.3079,3.3306,3.3636,3.3738,3.3501,3.2913,3.2467,3.2018,3.1112,3.0889,3.0889,3.0889,3.0889,3.0996,3.1416,3.1745,3.207,3.2458,3.2604,3.27,3.2756,3.3048,3.2971,3.2604,3.27,3.2633,3.2267,3.1788,3.1407,3.1134,3.0681,3.0426,3.0509,3.0619,3.0868,3.1217,3.155,3.1719,3.1494,3.1689,3.2015,3.2332,3.2182,3.177,3.0951,2.9488,2.8921,2.9273,2.7849,2.7121,2.6954,2.6406,2.6064,2.5898,2.5357,2.5111,2.5111,2.5111,2.5111,2.5135,2.5492,2.5589,2.5541,2.5628,2.5559,2.5442,2.5172,2.4774,2.4503,3.4823,3.4823,3.4835,3.5126,3.4932,3.5077,3.5733,3.5596,3.5789,3.6521,3.6594,3.663,3.6703,3.6889,3.6836,3.6621,3.7525,3.8019,3.7757,3.7745,3.7745,3.7745,3.7745,3.7529,3.7084,3.7,3.6471,3.5497,3.5052,3.503,3.5223,3.5598,3.5923,3.6235,3.6488,3.6872,3.7312,3.74,3.7603,3.7867,3.7587,3.7276,3.6789,3.5297,3.4692,3.448,3.3512,3.3193,3.3306,3.3872,3.4086,3.3974,3.3151,3.2799,3.2467,3.1334,3.1005,3.0889,3.0889,3.0889,3.0976,3.1338,3.1475,3.1709,3.2441,3.2705,3.29,3.3252,3.3379,3.3418,3.3418,3.3418,3.3398,3.334,3.2535,3.2073,3.2181,3.1398,3.1102,3.152,3.168,3.1803,3.2046,3.2226,3.2266,3.2266,3.2324,3.2632,3.3243,3.3377,3.2871,3.1709,3.0259,2.9265,2.888,2.766,2.697,2.6668,2.6263,2.5921,2.5628,2.527,2.5111,2.5111,2.5111,2.5111,2.5143,2.5548,2.589,2.6184,2.5944,2.6004,2.6241,2.5577,2.5315,2.5172,3.4823,3.4823,3.4823,3.4823,3.4835,3.4847,3.4944,3.4956,3.5136,3.5665,3.5737,3.6006,3.6452,3.7115,3.7497,3.7394,3.816,3.8136,3.6711,3.6651,3.6651,3.6651,3.6651,3.6615,3.6531,3.6086,3.5557,3.4956,3.5066,3.532,3.5524,3.6257,3.6758,3.7086,3.755,3.7801,3.7914,3.8404,3.8125,3.7394,3.8691,3.8146,3.6298,3.6054,3.5443,3.4692,3.3625,3.3296,3.3636,3.3974,3.4086,3.4086,3.3593,3.314,3.2571,3.1903,3.1344,3.0889,3.0889,3.0889,3.0908,3.0976,3.126,3.1553,3.1689,3.2275,3.2812,3.2881,3.3174,3.3418,3.3418,3.3418,3.331,3.2949,3.3086,3.2883,3.1873,3.1969,3.1874,3.1332,3.1558,3.169,3.1812,3.2367,3.2695,3.2695,3.3027,3.3252,3.332,3.3697,3.3165,3.1851,3.0762,2.9117,2.7185,2.6495,2.6454,2.6668,2.6025,2.5691,2.5628,2.527,2.5111,2.5111,2.5111,2.5111,2.5159,2.5802,2.6096,2.6207,2.6735,2.702,2.7067,2.6934,2.6517,2.5973,3.4823,3.4823,3.4823,3.4823,3.4823,3.4823,3.4823,3.4823,3.4919,3.516,3.5196,3.5388,3.5918,3.6295,3.6662,3.6952,3.7412,3.7453,3.665,3.7248,3.7679,3.7679,3.7679,3.7545,3.7278,3.6831,3.6417,3.6173,3.6284,3.637,3.6493,3.701,3.7319,3.743,3.7791,3.8178,3.8492,3.8755,3.8726,3.8576,3.9378,3.9037,3.808,3.7917,3.7158,3.6226,3.5599,3.5038,3.4715,3.4967,3.5081,3.4967,3.4128,3.3663,3.3262,3.1986,3.1299,3.0889,3.0889,3.0889,3.0889,3.0889,3.1035,3.124,3.1465,3.1826,3.2236,3.2705,3.2949,3.3154,3.3379,3.3418,3.3359,3.3164,3.3105,3.3027,3.2622,3.2564,3.2554,3.2449,3.2469,3.2593,3.2593,3.2893,3.3135,3.3135,3.331,3.3418,3.3418,3.3544,3.3009,3.157,3.0012,2.8245,2.6129,2.5967,2.5697,2.5592,2.528,2.5031,2.4844,2.4804,2.4857,2.4857,2.498,2.5111,2.5167,2.5858,2.6144,2.6215,2.6922,2.72,2.72,2.72,2.6926,2.6651,3.4823,3.4823,3.4823,3.4823,3.4823,3.4823,3.4823,3.4823,3.4823,3.4823,3.4823,3.5028,3.5557,3.5725,3.6114,3.6645,3.7018,3.7295,3.7295,3.827,3.873,3.8472,3.846,3.8275,3.7882,3.7553,3.7318,3.7318,3.7318,3.7419,3.7419,3.7742,3.7892,3.7904,3.8241,3.8642,3.9057,3.9057,3.9383,3.9885,3.9885,3.9961,4.0111,3.9627,3.8682,3.7752,3.7462,3.6593,3.5605,3.5965,3.5965,3.5849,3.4901,3.431,3.3881,3.2475,3.1604,3.1016,3.0918,3.0889,3.0889,3.0889,3.0889,3.0976,3.1299,3.1445,3.1699,3.2363,3.2656,3.2891,3.3213,3.335,3.3389,3.3291,0.0,3.3018,3.3242,3.3086,3.3057,3.3379,3.3418,3.3418,3.3418,3.3418,3.3418,3.3418,3.3418,3.3418,3.3418,3.333,3.2447,3.0656,2.8816,2.7006,2.5388,2.5305,2.5001,2.4619,2.4535,2.436,2.4108,2.4355,2.4487,2.4487,2.4734,2.4865,2.5035,2.5739,2.6152,2.6215,2.6922,2.72,2.72,2.72,2.72,2.72,3.4823,3.4823,3.4823,3.4823,3.4823,3.4823,3.4823,3.4823,3.4823,3.4823,3.4823,3.5028,3.5557,3.6263,3.6974,3.7509,3.8215,3.8613,3.8613,3.8792,3.8386,3.7479,3.7442,3.7417,3.738,3.7343,3.7318,3.7318,3.7506,3.7593,3.7606,3.8454,3.8806,3.8831,3.9333,3.9597,3.9634,3.9634,3.9948,4.0463,4.0463,4.087,4.1537,4.0412,3.9539,3.8788,3.7701,3.6719,3.5965,3.5965,3.5965,3.5965,3.5849,3.5019,3.4062,3.3912,3.2753,3.1387,3.0996,3.0889,3.0889,3.0889,3.0889,3.0898,3.0928,3.124,3.1533,3.1601,3.2246,3.2803,3.2832,3.3164,3.3301,3.29,0.0,0.0,3.2891,3.3144,3.3389,3.3418,3.3418,3.3418,3.3418,3.3418,3.3418,3.3418,3.3418,3.3418,3.3418,3.3057,3.1511,2.8481,2.7399,2.6127,2.4643,2.4336,2.4284,2.4611,2.4299,2.4131,2.4108,2.4108,2.4108,2.4108,2.4108,2.4355,2.4665,2.5373,2.5903,2.6215,2.6922,2.72,2.72,2.72,2.72,2.72,3.4835,3.4823,3.4823,3.4823,3.4823,3.4823,3.4823,3.4823,3.4823,3.4823,3.4823,3.5148,3.6014,3.6392,3.685,3.7823,3.8299,3.8526,3.8526,3.8736,3.876,3.8559,3.8739,3.8751,3.8751,3.8751,3.8751,3.8751,3.8841,3.8943,3.8955,3.9283,3.9383,3.9396,3.9597,3.9885,4.0212,4.0212,4.0526,4.1028,4.1028,4.1367,4.1808,4.1897,4.0893,3.9492,3.9573,3.8444,3.6839,3.6839,3.6839,3.672,3.588,3.5275,3.4727,3.3598,3.2423,3.1484,3.1318,3.1094,3.0889,3.0889,3.0889,3.0889,3.0889,3.1016,3.1201,3.1465,3.1777,3.209,3.2353,3.2539,3.2588,3.2432,0.0,3.2588,3.2432,3.2549,3.2646,3.2646,3.2646,3.2646,3.2646,3.2646,3.2646,3.2646,3.2646,3.2646,3.2646,3.1722,3.0433,2.9028,2.7035,2.5293,2.4043,2.3789,2.3747,2.3673,2.3539,2.3487,2.3487,2.3736,2.3736,2.386,2.3984,2.4354,2.4584,2.5068,2.5512,2.5874,2.6612,2.6934,2.6934,2.7067,2.72,2.72,3.5126,3.4932,3.4823,3.4823,3.4823,3.4823,3.4823,3.4823,3.4823,3.4823,3.4823,3.516,3.6062,3.6302,3.6759,3.7661,3.8101,3.8303,3.8303,3.8526,3.8841,3.9154,3.9374,3.9478,3.9581,3.9581,3.9581,3.9697,3.9697,3.9697,3.9697,3.9697,3.9785,3.9948,3.9948,4.0262,4.0777,4.0777,4.1091,4.1593,4.1701,4.203,4.2557,4.3143,4.2359,4.0821,4.0968,3.9697,3.7965,3.7495,3.7374,3.7253,3.6279,3.5788,3.5088,3.3282,3.2383,3.1865,3.1592,3.1309,3.1055,3.0928,3.0889,3.0889,3.0889,3.0889,3.0976,3.126,3.1426,3.1611,3.1904,3.207,3.2168,3.2168,3.2168,3.2168,3.2168,3.2168,3.2168,3.2168,3.2168,3.2168,3.2168,3.2168,3.2168,3.2168,3.2168,3.2109,3.1973,3.1076,3.0008,2.8868,2.6898,2.5172,2.3442,2.3442,2.3332,2.3106,2.3106,2.3106,2.3113,2.3355,2.3479,2.3487,2.3841,2.4147,2.4523,2.4971,2.529,2.5665,2.6267,2.6532,2.6532,2.68,2.6808,2.6808,3.562,3.5126,3.4823,3.4823,3.4823,3.4823,3.4823,3.4823,3.4823,3.4823,3.4823,3.5028,3.5557,3.6086,3.6615,3.7144,3.7673,3.7986,3.7986,3.8303,3.8514,3.8736,3.8841,3.8945,3.927,3.9258,3.9478,3.9697,3.9697,3.9697,3.9697,3.9697,3.9986,4.0526,4.0513,4.0827,4.1354,4.1354,4.1656,4.2267,4.2498,4.3169,4.3899,4.4216,4.3725,4.2774,4.1545,4.028,3.8992,3.7845,3.7374,3.7374,3.7374,3.6524,3.5088,3.3292,3.2793,3.2607,3.1758,3.1523,3.1416,3.0996,3.0889,3.0889,3.0889,3.0889,3.0889,3.0889,3.1221,3.1514,3.1514,3.1865,3.2158,3.2158,3.2158,3.2158,3.2158,3.2158,3.2158,3.2158,3.2158,3.2158,3.2158,3.2158,3.2158,3.2158,3.2158,3.1973,3.1533,3.1514,3.009,2.7151,2.7013,2.5798,2.3106,2.3113,2.3106,2.3106,2.3106,2.3106,2.3106,2.3106,2.3106,2.3128,2.3457,2.385,2.4164,2.483,2.5238,2.5672,2.6008,2.6138,2.6138,2.6138,2.6138,2.6138,3.5223,3.4932,3.4823,3.4823,3.4823,3.4823,3.4823,3.4823,3.4823,3.4823,3.4823,3.5028,3.5557,3.6086,3.6615,3.7144,3.7673,3.7986,3.7986,3.808,3.8198,3.8198,3.8631,3.8841,3.8945,3.8945,3.905,3.9374,3.9374,3.9678,4.0262,3.9873,4.0199,4.1078,4.0689,4.104,4.1907,4.1907,4.233,4.3042,4.3165,4.3597,4.4216,4.4313,4.3725,4.2774,4.1545,4.028,3.8992,3.7845,3.7374,3.7264,3.69,3.6044,3.5273,3.4262,3.3763,3.3351,3.2603,3.1973,3.1416,3.0996,3.0889,3.0889,3.0889,3.0889,3.0889,3.0889,3.0996,3.1074,3.1074,3.1182,3.1279,3.1279,3.1279,3.1279,3.1279,3.1279,3.1279,3.1279,3.1279,3.1279,3.1279,3.1279,3.1279,3.1279,3.1279,3.1221,3.1084,3.0211,2.9287,2.8325,2.6641,2.5309,2.4456,2.3604,2.3106,2.3106,2.3106,2.3106,2.3106,2.3106,2.3106,2.3128,2.3457,2.3727,2.4098,2.4525,2.4974,2.5323,2.5562,2.5734,2.5734,2.6003,2.6138,2.6138,3.532,3.4932,3.4823,3.4823,3.4823,3.4823,3.4823,3.4823,3.4823,3.4823,3.5004,3.5256,3.5581,3.6278,3.6843,3.7168,3.7673,3.7986,3.7986,3.7986,3.7986,3.7986,3.8303,3.8514,3.8631,3.8631,3.8841,3.905,3.905,3.9432,4.007,3.9744,4.017,4.1329,4.099,4.1455,4.2484,4.2484,4.2881,4.3394,4.3517,4.3861,4.4313,4.4422,4.4055,4.3466,4.2226,4.0961,3.9814,3.854,3.7834,3.7253,3.6656,3.6178,3.5675,3.5046,3.4614,3.4237,3.345,3.2779,3.2275,3.1613,3.1143,3.0889,3.0889,3.0889,3.0889,3.0889,3.0889,3.0889,3.0889,3.0889,3.0889,3.0889,3.0889,3.0889,3.0889,3.0889,3.0889,3.0889,3.0889,3.0889,3.0889,3.0889,3.0889,3.0889,3.0889,3.0889,3.0889,3.0147,2.9176,2.8206,2.6641,2.5309,2.4332,2.3479,2.3106,2.3106,2.3106,2.3106,2.3106,2.3106,2.3179,2.3318,2.3647,2.3976,2.4298,2.4627,2.4876,2.5059,2.5329,2.5464,2.5464,2.5599,2.5734,2.5734,3.5716,3.5126,3.4823,3.4823,3.4823,3.4823,3.4823,3.4871,3.4895,3.4895,3.5352,3.5689,3.5689,3.6591,3.7192,3.7192,3.7673,3.7986,3.7986,3.7986,3.7986,3.7986,3.7986,3.8092,3.8409,3.8409,3.8526,3.8736,3.8736,3.897,3.9332,3.9387,4.0065,4.1342,4.1342,4.1919,4.2898,4.2961,4.3184,4.3517,4.3776,4.4107,4.4313,4.4626,4.4722,4.4505,4.3343,4.21,4.087,3.9451,3.8302,3.7253,3.6656,3.6545,3.6423,3.5675,3.5552,3.5211,3.4186,3.3922,3.3566,3.2558,3.1731,3.0996,3.0957,3.0918,3.0889,3.0889,3.0889,3.0889,3.0889,3.0889,3.0889,3.0889,3.0889,3.0889,3.0889,3.0889,3.0889,3.0889,3.0889,3.0889,3.0889,3.0889,3.0889,3.0889,3.0889,3.0889,3.0889,3.0772,2.9677,2.7254,2.6892,2.5676,2.3355,2.3106,2.3106,2.3106,2.3106,2.3106,2.3106,2.3135,2.3318,2.3618,2.3976,2.4291,2.4598,2.492,2.5059,2.5059,2.5059,2.5059,2.5059,2.5059,2.5059,2.5052,3.5716,3.5126,3.4823,3.4823,3.4823,3.4823,3.4823,3.5184,3.5449,3.5449,3.5905,3.623,3.623,3.6807,3.7192,3.7192,3.7673,3.7986,3.7986,3.7986,3.7986,3.7986,3.7986,3.7986,3.8092,3.8092,3.8198,3.8514,3.8736,3.9167,3.9891,3.9678,4.0182,4.1342,4.1342,4.1706,4.2359,4.2995,4.353,4.3776,4.4107,4.4422,4.4626,4.4735,4.4722,4.4505,4.3343,4.21,4.0755,3.854,3.7605,3.7374,3.7264,3.7132,3.7021,3.6412,3.6167,3.6023,3.5304,3.4401,3.3749,3.3536,3.2631,3.1797,3.1455,3.1123,3.0889,3.0889,3.0889,3.0889,3.0889,3.0889,3.0889,3.0889,3.0889,3.0889,3.0889,3.0889,3.0889,3.0889,3.0889,3.0889,3.0889,3.0889,3.0889,3.0889,3.0889,3.0889,3.0889,2.9903,2.9048,2.8564,2.652,2.5194,2.4702,2.3596,2.3106,2.3106,2.3106,2.3106,2.312,2.3369,2.353,2.3625,2.421,2.4503,2.4598,2.492,2.5059,2.5059,2.5059,2.5059,2.5059,2.5059,2.5059,2.5022,3.6858,3.6566,3.626,3.5965,3.5953,3.5866,3.5581,3.5809,3.599,3.599,3.6459,3.6783,3.6783,3.7252,3.7565,3.7565,3.7829,3.7986,3.7986,3.7986,3.7986,3.7986,3.7986,3.7986,3.7986,3.7986,3.8092,3.8198,3.8303,3.8766,3.947,3.9303,3.9823,4.0965,4.1336,4.1872,4.2414,4.3301,4.3764,4.4107,4.4203,4.4409,4.4613,4.4042,4.4152,4.4505,4.2675,4.1305,3.9931,3.8074,3.7374,3.7374,3.7374,3.7374,3.7374,3.7021,3.69,3.6778,3.6044,3.5508,3.4953,3.4575,3.3759,3.272,3.2044,3.166,3.1504,3.1504,3.1338,3.1191,3.1191,3.1025,3.0889,3.0889,3.0889,3.0889,3.0889,3.0889,3.0889,3.0889,3.0889,3.0889,3.0889,3.0889,3.0889,3.0889,3.0889,3.0889,3.0889,3.0274,2.9294,2.8086,2.6754,2.5423,2.4216,2.3479,2.3186,2.334,2.3186,2.3186,2.3347,2.3515,2.3764,2.4079,2.4423,2.4657,2.4818,2.4986,2.5059,2.5059,2.5059,2.5059,2.5037,2.4883,2.4723,2.4569,3.8298,3.8199,3.7891,3.7481,3.7381,3.7194,3.6601,3.6572,3.6633,3.6543,3.7,3.7324,3.7324,3.7721,3.7986,3.7986,3.7986,3.7986,3.7986,3.7986,3.7986,3.7986,3.7986,3.7986,3.7986,3.7986,3.7986,3.7986,3.8092,3.8303,3.8841,3.8841,3.9402,4.04,4.1165,4.1948,4.2506,4.3393,4.3907,4.4313,4.4313,4.4518,4.4613,4.3577,4.37,4.4152,4.2113,4.05,3.8992,3.7845,3.7374,3.7374,3.7374,3.7374,3.7374,3.7374,3.7374,3.7253,3.6778,3.6545,3.63,3.5675,3.4769,3.3676,3.2828,3.2387,3.2168,3.2168,3.1875,3.1631,3.1631,3.1289,3.0996,3.0996,3.0937,3.0889,3.0889,3.0889,3.0889,3.0889,3.0889,3.0889,3.0889,3.0889,3.0889,3.0889,3.0889,3.0889,3.0889,3.0889,2.9922,2.7744,2.7237,2.6017,2.3845,2.3407,2.3325,2.3596,2.3376,2.342,2.3684,2.3735,2.4057,2.4576,2.4627,2.4803,2.5059,2.5059,2.5022,2.4971,2.4971,2.4942,2.4862,2.4583,2.4313,2.4071,3.8689,3.8396,3.8101,3.799,3.799,3.7792,3.7181,3.7486,3.7587,3.7187,3.7553,3.7878,3.7878,3.7938,3.7986,3.7986,3.7986,3.7986,3.7986,3.7986,3.7986,3.7986,3.7986,3.7986,3.7986,3.7986,3.7986,3.7986,3.8198,3.8514,3.8841,3.905,3.9411,3.9823,4.0388,4.1152,4.1922,4.2792,4.3534,4.4313,4.4518,4.4626,4.4722,4.4505,4.392,4.3121,4.2774,4.1179,3.8992,3.7845,3.7374,3.7374,3.7374,3.7374,3.7374,3.7374,3.7374,3.7374,3.7264,3.69,3.6423,3.63,3.5253,3.4322,3.4138,3.3055,3.2168,3.2168,3.2119,3.208,3.208,3.1728,3.1435,3.1435,3.1133,3.0889,3.0889,3.0889,3.0889,3.0889,3.0889,3.0889,3.0889,3.0889,3.0889,3.0889,3.0889,3.0889,3.0889,3.0889,3.0772,3.0401,2.8224,2.6771,2.6529,2.45,2.3552,2.3596,2.3837,2.3976,2.4027,2.4313,2.4481,2.4583,2.4869,2.5015,2.5059,2.5059,2.4891,2.4635,2.4635,2.4466,2.421,2.4166,2.4123,2.4042,4.0244,4.0046,3.9835,3.9448,3.9448,3.9234,3.8728,3.8518,3.8368,3.816,3.8052,3.7986,3.7986,3.7986,3.7986,3.7986,3.7986,3.7986,3.7986,3.7986,3.7986,3.7986,3.7986,3.7986,3.7986,3.7907,3.775,3.775,3.7867,3.8075,3.8398,3.8695,3.9003,3.927,4.0332,4.1132,4.1821,4.2677,4.3457,4.4313,4.4422,4.4518,4.4613,4.392,4.3343,4.2774,4.1281,3.9686,3.8074,3.7616,3.7374,3.7374,3.7374,3.7374,3.7374,3.7374,3.7374,3.7374,3.7374,3.7132,3.69,3.69,3.6279,3.5552,3.5552,3.4369,3.3357,3.2995,3.2685,3.2519,3.2519,3.2168,3.1875,3.1875,3.1728,3.1601,3.1601,3.1601,3.1601,3.1601,3.1601,3.1601,3.1601,3.1601,3.1601,3.1601,3.1601,3.1601,3.1601,3.0854,3.0111,2.9374,2.7514,2.6153,2.54,2.4427,2.3962,2.4137,2.4284,2.4357,2.4357,2.4503,2.4671,2.484,2.4803,2.4781,2.4766,2.4583,2.443,2.4298,2.4298,2.4101,2.3808,2.3808,2.3698,2.3515]},{"header":{"parameterUnit":"m.s-1","parameterCategory":1,"la1":30.6,"la2":28.766,"lo1":-90.7593,"lo2":-88.6598,"dy":0.0162,"dx":0.0183,"nx":116,"ny":114,"refTime":"2023-02-28T06:00:00:Z","depth":0,"parameterNumber":3,"parameterNumberName":"V-component_of_WINDS"},"data":[0.0,0.0,0.0,0.0,0.0,0.0,0.0,0.0,0.0,0.0,0.0,0.0,0.0,0.0,0.0,0.0,0.0,0.0,0.0,0.0,0.0,0.0,0.0,0.0,0.0,0.0,0.0,0.0,0.0,0.0,0.0,0.0,0.0,0.0,0.0,0.0,0.0,0.0,0.0,0.0,0.0,0.0,0.0,0.0,0.0,0.0,0.0,0.0,0.0,0.0,0.0,0.0,0.0,0.0,0.0,0.0,0.0,0.0,0.0,0.0,0.0,0.0,0.0,0.0,0.0,0.0,0.0,0.0,0.0,0.0,0.0,0.0,0.0,0.0,0.0,0.0,0.0,0.0,0.0,0.0,0.0,0.0,0.0,0.0,0.0,0.0,0.0,0.0,0.0,0.0,0.0,0.0,0.0,0.0,0.0,0.0,0.0,0.0,0.0,0.0,0.0,0.0,0.0,0.0,0.0,0.0,0.0,0.0,0.0,0.0,0.0,0.0,0.0,0.0,0.0,0.0,0.0,0.0,0.0,0.0,0.0,0.0,0.0,0.0,0.0,0.0,0.0,0.0,0.0,0.0,0.0,0.0,0.0,0.0,0.0,0.0,0.0,0.0,0.0,0.0,0.0,0.0,0.0,0.0,0.0,0.0,0.0,0.0,0.0,0.0,0.0,0.0,0.0,0.0,0.0,0.0,0.0,0.0,0.0,0.0,0.0,0.0,0.0,0.0,0.0,0.0,0.0,0.0,0.0,0.0,0.0,0.0,0.0,0.0,0.0,0.0,0.0,0.0,0.0,0.0,0.0,0.0,0.0,0.0,0.0,0.0,0.0,0.0,0.0,0.0,0.0,0.0,0.0,0.0,0.0,0.0,0.0,0.0,0.0,0.0,0.0,0.0,0.0,0.0,0.0,0.0,0.0,0.0,0.0,0.0,0.0,0.0,0.0,0.0,0.0,0.0,0.0,0.0,0.0,0.0,0.0,0.0,0.0,0.0,0.0,0.0,0.0,0.0,0.0,0.0,0.0,0.0,0.0,0.0,0.0,0.0,0.0,0.0,0.0,0.0,0.0,0.0,0.0,0.0,0.0,0.0,0.0,0.0,0.0,0.0,0.0,0.0,0.0,0.0,0.0,0.0,0.0,0.0,0.0,0.0,0.0,0.0,0.0,0.0,0.0,0.0,0.0,0.0,0.0,0.0,0.0,0.0,0.0,0.0,0.0,0.0,0.0,0.0,0.0,0.0,0.0,0.0,0.0,0.0,0.0,0.0,0.0,0.0,0.0,0.0,0.0,0.0,0.0,0.0,0.0,0.0,0.0,0.0,0.0,0.0,0.0,0.0,0.0,0.0,0.0,0.0,0.0,0.0,0.0,0.0,0.0,0.0,0.0,0.0,0.0,0.0,0.0,0.0,0.0,0.0,0.0,0.0,0.0,0.0,0.0,0.0,0.0,0.0,0.0,0.0,0.0,0.0,0.0,0.0,0.0,0.0,0.0,0.0,0.0,0.0,0.0,0.0,0.0,0.0,0.0,0.0,0.0,0.0,0.0,0.0,0.0,0.0,0.0,0.0,0.0,0.0,0.0,0.0,0.0,0.0,0.0,0.0,0.0,0.0,0.0,0.0,0.0,0.0,0.0,0.0,0.0,0.0,0.0,0.0,0.0,0.0,0.0,0.0,0.0,0.0,0.0,0.0,0.0,0.0,0.0,0.0,0.0,0.0,0.0,0.0,0.0,0.0,0.0,0.0,0.0,0.0,0.0,0.0,0.0,0.0,0.0,0.0,0.0,0.0,0.0,0.0,0.0,0.0,0.0,0.0,0.0,0.0,0.0,0.0,0.0,0.0,0.0,0.0,0.0,0.0,0.0,0.0,0.0,0.0,0.0,0.0,0.0,0.0,0.0,0.0,0.0,0.0,0.0,0.0,0.0,0.0,0.0,0.0,0.0,0.0,0.0,0.0,0.0,0.0,0.0,0.0,0.0,0.0,0.0,0.0,0.0,0.0,0.0,0.0,0.0,0.0,0.0,0.0,0.0,0.0,0.0,0.0,0.0,0.0,0.0,0.0,0.0,0.0,0.0,0.0,0.0,0.0,0.0,0.0,0.0,0.0,0.0,0.0,0.0,0.0,0.0,0.0,0.0,0.0,0.0,0.0,0.0,0.0,0.0,0.0,0.0,0.0,0.0,0.0,0.0,0.0,0.0,0.0,0.0,0.0,0.0,0.0,0.0,0.0,0.0,0.0,0.0,0.0,0.0,0.0,0.0,0.0,0.0,0.0,0.0,0.0,0.0,0.0,0.0,0.0,0.0,0.0,0.0,0.0,0.0,0.0,0.0,0.0,0.0,0.0,0.0,0.0,0.0,0.0,0.0,0.0,0.0,0.0,0.0,0.0,0.0,0.0,0.0,0.0,0.0,0.0,0.0,0.0,0.0,0.0,0.0,0.0,0.0,0.0,0.0,0.0,0.0,0.0,0.0,0.0,0.0,0.0,0.0,0.0,0.0,0.0,0.0,0.0,0.0,0.0,0.0,0.0,0.0,0.0,0.0,0.0,0.0,0.0,0.0,0.0,0.0,0.0,0.0,0.0,0.0,0.0,0.0,0.0,0.0,0.0,0.0,0.0,0.0,0.0,0.0,0.0,0.0,0.0,0.0,0.0,0.0,0.0,0.0,0.0,0.0,0.0,0.0,0.0,0.0,0.0,0.0,0.0,0.0,0.0,0.0,0.0,0.0,0.0,0.0,0.0,0.0,0.0,0.0,0.0,0.0,0.0,0.0,0.0,0.0,0.0,0.0,0.0,0.0,0.0,0.0,0.0,0.0,0.0,0.0,0.0,0.0,0.0,0.0,0.0,0.0,0.0,0.0,0.0,0.0,0.0,0.0,0.0,0.0,0.0,0.0,0.0,0.0,0.0,0.0,0.0,0.0,0.0,0.0,0.0,0.0,0.0,0.0,0.0,0.0,0.0,0.0,0.0,0.0,0.0,0.0,0.0,0.0,0.0,0.0,0.0,0.0,0.0,0.0,0.0,0.0,0.0,0.0,0.0,0.0,0.0,0.0,0.0,0.0,0.0,0.0,0.0,0.0,0.0,0.0,0.0,0.0,0.0,0.0,0.0,0.0,0.0,0.0,0.0,0.0,0.0,0.0,0.0,0.0,0.0,0.0,0.0,0.0,0.0,0.0,0.0,0.0,0.0,0.0,0.0,0.0,0.0,0.0,0.0,0.0,0.0,0.0,0.0,0.0,0.0,0.0,0.0,0.0,0.0,0.0,0.0,0.0,0.0,0.0,0.0,0.0,0.0,0.0,0.0,0.0,0.0,0.0,0.0,0.0,0.0,0.0,0.0,0.0,0.0,0.0,0.0,0.0,0.0,0.0,0.0,0.0,0.0,0.0,0.0,0.0,0.0,0.0,0.0,0.0,0.0,0.0,0.0,0.0,0.0,0.0,0.0,0.0,0.0,0.0,0.0,0.0,0.0,0.0,0.0,0.0,0.0,0.0,0.0,0.0,0.0,0.0,0.0,0.0,0.0,0.0,0.0,0.0,0.0,0.0,0.0,0.0,0.0,0.0,0.0,0.0,0.0,0.0,0.0,0.0,0.0,0.0,0.0,0.0,0.0,0.0,0.0,0.0,0.0,0.0,0.0,0.0,0.0,0.0,0.0,0.0,0.0,0.0,0.0,0.0,0.0,0.0,0.0,0.0,0.0,0.0,0.0,0.0,0.0,0.0,0.0,0.0,0.0,0.0,0.0,0.0,0.0,0.0,0.0,0.0,0.0,0.0,0.0,0.0,0.0,0.0,0.0,0.0,0.0,0.0,0.0,0.0,0.0,0.0,0.0,0.0,0.0,0.0,0.0,0.0,0.0,0.0,0.0,0.0,0.0,0.0,0.0,0.0,0.0,0.0,0.0,0.0,0.0,0.0,0.0,0.0,0.0,0.0,0.0,0.0,0.0,0.0,0.0,0.0,0.0,0.0,0.0,0.0,0.0,0.0,0.0,0.0,0.0,0.0,0.0,0.0,0.0,0.0,0.0,0.0,0.0,0.0,0.0,0.0,0.0,0.0,0.0,0.0,0.0,0.0,0.0,0.0,0.0,0.0,0.0,0.0,0.0,0.0,0.0,0.0,0.0,0.0,0.0,0.0,0.0,0.0,0.0,0.0,0.0,0.0,0.0,0.0,0.0,0.0,0.0,0.0,0.0,0.0,0.0,0.0,0.0,0.0,0.0,0.0,0.0,0.0,0.0,0.0,0.0,0.0,0.0,0.0,0.0,0.0,0.0,0.0,0.0,0.0,0.0,0.0,0.0,0.0,0.0,0.0,0.0,0.0,0.0,0.0,0.0,0.0,0.0,0.0,0.0,0.0,0.0,0.0,0.0,0.0,0.0,0.0,0.0,0.0,0.0,0.0,0.0,0.0,0.0,0.0,0.0,0.0,0.0,0.0,0.0,0.0,0.0,0.0,0.0,0.0,0.0,0.0,0.0,0.0,0.0,0.0,0.0,0.0,0.0,0.0,0.0,0.0,0.0,0.0,0.0,0.0,0.0,0.0,0.0,0.0,0.0,0.0,0.0,0.0,0.0,0.0,0.0,0.0,0.0,0.0,0.0,0.0,0.0,0.0,0.0,0.0,0.0,0.0,0.0,0.0,0.0,0.0,0.0,0.0,0.0,0.0,0.0,0.0,0.0,0.0,0.0,0.0,0.0,0.0,0.0,0.0,0.0,0.0,0.0,0.0,0.0,0.0,0.0,0.0,0.0,0.0,0.0,0.0,0.0,0.0,0.0,0.0,0.0,0.0,0.0,0.0,0.0,0.0,0.0,0.0,0.0,0.0,0.0,0.0,0.0,0.0,0.0,0.0,0.0,0.0,0.0,0.0,0.0,0.0,0.0,0.0,0.0,0.0,0.0,0.0,0.0,0.0,0.0,0.0,0.0,0.0,0.0,0.0,0.0,0.0,0.0,0.0,0.0,0.0,0.0,0.0,0.0,0.0,0.0,0.0,0.0,0.0,0.0,0.0,0.0,0.0,0.0,0.0,0.0,0.0,0.0,0.0,0.0,0.0,0.0,0.0,0.0,0.0,0.0,0.0,0.0,0.0,0.0,0.0,0.0,0.0,0.0,0.0,0.0,0.0,0.0,0.0,0.0,0.0,0.0,0.0,0.0,0.0,0.0,0.0,0.0,0.0,0.0,0.0,0.0,0.0,0.0,0.0,0.0,0.0,0.0,0.0,0.0,0.0,0.0,0.0,0.0,0.0,0.0,0.0,0.0,0.0,0.0,0.0,0.0,0.0,0.0,0.0,0.0,0.0,0.0,0.0,0.0,0.0,0.0,0.0,0.0,0.0,0.0,0.0,0.0,0.0,0.0,0.0,0.0,0.0,0.0,0.0,0.0,0.0,0.0,0.0,0.0,0.0,0.0,0.0,0.0,0.0,0.0,0.0,0.0,0.0,0.0,0.0,0.0,0.0,0.0,0.0,0.0,0.0,0.0,0.0,0.0,0.0,0.0,0.0,0.0,0.0,0.0,0.0,0.0,0.0,0.0,0.0,0.0,0.0,0.0,0.0,0.0,0.0,0.0,0.0,0.0,0.0,0.0,0.0,0.0,0.0,0.0,0.0,0.0,0.0,0.0,0.0,0.0,0.0,0.0,0.0,0.0,0.0,0.0,0.0,0.0,0.0,0.0,0.0,0.0,0.0,0.0,0.0,0.0,0.0,0.0,0.0,0.0,0.0,0.0,0.0,0.0,0.0,0.0,0.0,0.0,0.0,0.0,0.0,0.0,0.0,0.0,0.0,0.0,0.0,0.0,0.0,0.0,0.0,0.0,0.0,0.0,0.0,0.0,0.0,0.0,0.0,0.0,0.0,0.0,0.0,0.0,0.0,0.0,0.0,0.0,0.0,0.0,0.0,0.0,0.0,0.0,0.0,0.0,0.0,0.0,0.0,0.0,0.0,0.0,0.0,0.0,0.0,0.0,0.0,0.0,0.0,0.0,0.0,0.0,0.0,0.0,0.0,0.0,0.0,0.0,0.0,0.0,0.0,0.0,0.0,0.0,0.0,0.0,0.0,0.0,0.0,0.0,0.0,0.0,0.0,0.0,-3.7867,-3.6753,0.0,0.0,0.0,0.0,0.0,0.0,0.0,0.0,0.0,0.0,0.0,0.0,0.0,0.0,0.0,0.0,0.0,0.0,0.0,0.0,0.0,0.0,0.0,0.0,0.0,0.0,0.0,0.0,0.0,0.0,0.0,0.0,0.0,0.0,0.0,0.0,0.0,0.0,0.0,0.0,0.0,0.0,0.0,0.0,0.0,0.0,0.0,0.0,0.0,0.0,0.0,0.0,0.0,0.0,0.0,0.0,0.0,0.0,0.0,0.0,0.0,0.0,0.0,0.0,0.0,0.0,0.0,0.0,0.0,0.0,0.0,0.0,0.0,0.0,0.0,0.0,0.0,0.0,0.0,0.0,0.0,0.0,0.0,0.0,0.0,0.0,0.0,0.0,0.0,0.0,0.0,0.0,0.0,0.0,0.0,0.0,0.0,0.0,0.0,0.0,0.0,0.0,0.0,0.0,0.0,0.0,0.0,0.0,0.0,0.0,0.0,0.0,0.0,0.0,-3.9297,-3.8351,0.0,0.0,0.0,0.0,0.0,0.0,0.0,0.0,0.0,0.0,0.0,0.0,0.0,0.0,0.0,0.0,0.0,0.0,0.0,0.0,0.0,0.0,0.0,0.0,0.0,0.0,0.0,0.0,0.0,0.0,0.0,0.0,0.0,0.0,0.0,0.0,0.0,0.0,0.0,0.0,0.0,0.0,0.0,0.0,0.0,0.0,0.0,0.0,0.0,0.0,0.0,0.0,0.0,0.0,0.0,0.0,0.0,0.0,0.0,0.0,0.0,0.0,0.0,0.0,0.0,0.0,0.0,0.0,0.0,0.0,0.0,0.0,0.0,0.0,0.0,0.0,0.0,0.0,0.0,0.0,0.0,0.0,0.0,0.0,0.0,0.0,0.0,0.0,0.0,0.0,0.0,0.0,0.0,0.0,0.0,0.0,0.0,0.0,0.0,0.0,0.0,0.0,0.0,0.0,0.0,0.0,0.0,0.0,-3.9504,-4.0117,-4.0769,-4.1306,-4.1938,-4.2515,-4.0829,-4.0385,-4.0925,-4.018,0.0,0.0,0.0,0.0,0.0,0.0,0.0,0.0,0.0,0.0,0.0,0.0,0.0,0.0,0.0,0.0,0.0,0.0,0.0,0.0,0.0,0.0,0.0,0.0,0.0,0.0,0.0,0.0,0.0,0.0,0.0,0.0,0.0,0.0,0.0,0.0,0.0,0.0,-2.9234,-2.8885,-2.8773,-2.8921,-2.8638,0.0,0.0,0.0,0.0,0.0,0.0,0.0,0.0,0.0,0.0,0.0,0.0,0.0,0.0,0.0,0.0,0.0,0.0,0.0,0.0,0.0,0.0,0.0,0.0,0.0,0.0,0.0,0.0,0.0,0.0,0.0,0.0,0.0,0.0,0.0,0.0,0.0,0.0,0.0,0.0,0.0,0.0,0.0,-3.5262,-3.5503,0.0,0.0,0.0,0.0,0.0,0.0,0.0,0.0,0.0,0.0,0.0,0.0,0.0,-3.8497,-3.8327,-3.9568,-4.0154,-4.0154,-4.0815,-4.1398,-4.1843,-4.2215,-4.2582,-4.3012,-4.3072,0.0,-4.241,-4.2315,0.0,0.0,0.0,0.0,0.0,0.0,0.0,0.0,0.0,0.0,0.0,0.0,0.0,0.0,0.0,0.0,0.0,0.0,0.0,0.0,0.0,0.0,0.0,0.0,0.0,0.0,0.0,0.0,0.0,0.0,0.0,0.0,0.0,0.0,0.0,0.0,-2.8723,-2.8466,-2.8596,-2.7905,-2.7871,-2.8411,-2.7713,-2.7663,-2.8209,-2.8673,0.0,0.0,0.0,0.0,0.0,0.0,0.0,0.0,0.0,0.0,0.0,0.0,0.0,0.0,0.0,0.0,0.0,0.0,0.0,0.0,0.0,0.0,0.0,0.0,0.0,0.0,0.0,0.0,0.0,0.0,0.0,0.0,0.0,0.0,0.0,0.0,0.0,0.0,0.0,-3.4714,-3.5186,-3.5115,-3.5488,-3.5506,0.0,0.0,0.0,0.0,0.0,0.0,0.0,0.0,0.0,-3.8097,-3.8397,-3.8797,-3.9315,-3.9455,-3.9884,-4.0492,-4.055,-4.0882,-4.1407,-4.2092,-4.2665,-4.3051,-4.3547,-4.3733,-4.3646,-4.3352,-4.2916,-4.2315,0.0,0.0,0.0,0.0,-4.0551,-4.0577,0.0,0.0,0.0,0.0,0.0,0.0,0.0,0.0,0.0,0.0,0.0,0.0,0.0,0.0,0.0,-2.9282,0.0,0.0,0.0,0.0,0.0,0.0,0.0,0.0,0.0,0.0,0.0,0.0,-2.748,-2.7506,-2.8084,-2.7268,-2.7318,-2.8072,-2.7465,-2.7314,-2.7578,-2.8318,-2.8234,0.0,0.0,0.0,0.0,0.0,0.0,0.0,0.0,0.0,0.0,0.0,0.0,0.0,0.0,0.0,0.0,0.0,0.0,0.0,0.0,0.0,0.0,0.0,0.0,0.0,0.0,0.0,0.0,0.0,0.0,0.0,0.0,0.0,0.0,0.0,0.0,0.0,0.0,-3.5392,-3.5619,-3.5284,-3.6064,-3.6405,0.0,0.0,0.0,0.0,0.0,0.0,-3.7943,-3.8212,-3.8467,-3.8646,-3.8811,-3.9298,-4.0096,-3.993,-4.0218,-4.0892,-4.0887,-4.1149,-4.1645,-4.2455,-4.2985,-4.3273,-4.3704,-4.4034,-4.4205,-4.3911,-4.386,-4.3796,-4.3205,-4.3015,-4.2968,-4.237,-4.2176,-4.2234,0.0,0.0,0.0,0.0,0.0,0.0,0.0,0.0,0.0,0.0,0.0,0.0,0.0,0.0,-2.7855,-2.8505,-2.8492,-2.8492,0.0,0.0,0.0,0.0,0.0,0.0,0.0,0.0,0.0,-2.7659,-2.8058,-2.8252,-2.8109,-2.8047,-2.8059,-2.8122,-2.8809,-2.8659,-2.8034,-2.7603,-2.7666,-2.8154,0.0,0.0,0.0,0.0,0.0,0.0,0.0,0.0,0.0,0.0,0.0,0.0,0.0,0.0,0.0,0.0,0.0,0.0,0.0,0.0,0.0,0.0,0.0,0.0,0.0,0.0,0.0,0.0,0.0,0.0,0.0,0.0,0.0,0.0,0.0,0.0,0.0,0.0,0.0,-3.7255,-3.7838,0.0,0.0,0.0,0.0,-3.9215,-3.8721,-3.8661,-3.929,-3.8736,-3.8691,-3.9349,-3.9978,-4.0322,-4.0352,-4.1806,-4.2395,-4.2142,-4.3092,-4.3533,-4.3685,-4.3838,-4.3945,-4.4055,-4.4055,-4.3928,-4.3769,-4.405,-4.4154,-4.4154,-4.3986,-4.3902,-4.3981,-4.4361,-4.4488,-4.4416,0.0,0.0,0.0,0.0,0.0,0.0,0.0,0.0,0.0,0.0,0.0,0.0,0.0,-2.8065,-2.7604,-2.7868,-2.7484,-2.7417,-2.7868,0.0,0.0,0.0,0.0,0.0,0.0,0.0,-2.7743,-2.6905,-2.7448,-2.7641,-2.7582,-2.7946,-2.8109,-2.8109,-2.8371,-2.8621,-2.8847,-2.9037,-2.8883,-2.8571,-2.9633,-2.988,0.0,0.0,0.0,0.0,0.0,0.0,0.0,0.0,0.0,0.0,0.0,0.0,0.0,0.0,0.0,0.0,0.0,0.0,0.0,0.0,0.0,0.0,0.0,0.0,0.0,0.0,0.0,0.0,0.0,0.0,0.0,0.0,0.0,0.0,0.0,0.0,0.0,-3.8102,-3.8646,0.0,-3.8437,-3.8796,-3.8975,-3.8766,-3.9334,-3.9604,-3.9424,-3.9589,-3.9604,-3.9424,-4.0199,-4.0603,-4.0734,-4.158,-4.2047,-4.2012,-4.2153,-4.2258,-4.2258,-4.2711,-4.2968,-4.3031,-4.3407,-4.3639,-4.3753,-4.3778,-4.3897,-4.405,-4.3997,-4.405,-4.4118,-4.4151,-4.4177,-4.4101,0.0,0.0,0.0,0.0,0.0,0.0,0.0,0.0,0.0,0.0,0.0,-2.8967,-2.8247,-2.7537,-2.7162,-2.7162,-2.6782,-2.6714,-2.7229,0.0,0.0,0.0,0.0,0.0,0.0,-2.7484,-2.7198,-2.6741,-2.7105,-2.7381,-2.757,-2.7934,-2.8109,-2.8109,-2.8371,-2.8722,-2.9238,-2.9834,-2.9605,-2.8937,-2.9952,-3.0032,-2.9642,0.0,0.0,0.0,0.0,0.0,0.0,0.0,0.0,0.0,0.0,0.0,0.0,0.0,0.0,0.0,0.0,0.0,0.0,0.0,0.0,0.0,0.0,0.0,0.0,0.0,0.0,0.0,0.0,0.0,0.0,0.0,0.0,0.0,0.0,-3.8521,-3.9184,-3.8507,-3.9394,-3.9813,-3.914,-3.9679,-3.9978,-3.9753,-4.0142,-4.0307,-4.0156,-4.0351,-4.0471,-4.0501,-4.0828,-4.1187,-4.1398,-4.1866,-4.2047,-4.2012,-4.2123,-4.2152,-4.2243,-4.2695,-4.2953,-4.3031,-4.3332,-4.3565,-4.3769,-4.3654,-4.3775,-4.4029,-4.432,-4.4612,-4.4873,-4.4734,-4.4665,-4.4595,0.0,0.0,0.0,0.0,0.0,0.0,0.0,0.0,0.0,0.0,-2.898,-2.8274,-2.7564,-2.693,-2.6546,-2.6546,-2.6533,-2.6589,-2.6714,-2.7802,0.0,0.0,0.0,0.0,-2.767,-2.7053,-2.688,-2.7281,-2.7318,-2.7607,-2.8134,-2.8147,-2.816,-2.8172,-2.8923,-2.9238,-2.9276,-2.9834,-2.9732,-2.925,-3.0049,-3.0248,-3.0085,0.0,0.0,0.0,0.0,0.0,0.0,0.0,0.0,0.0,0.0,0.0,0.0,0.0,0.0,0.0,0.0,0.0,0.0,0.0,0.0,0.0,0.0,0.0,0.0,0.0,0.0,0.0,0.0,0.0,0.0,0.0,0.0,0.0,-3.9022,-3.9775,-3.9933,-3.8631,-4.0202,-4.113,-4.0487,-4.101,-4.1624,-4.2222,-4.1115,-4.0755,-4.1625,-4.1053,-4.1324,-4.265,-4.2047,-4.1942,-4.2434,-4.2634,-4.2531,-4.2221,-4.3212,-4.3746,-4.3855,-4.396,-4.4052,-4.4164,-4.4164,-4.4006,-4.3778,-4.3778,-4.3917,-4.4188,-4.4968,-4.5677,-4.6198,-4.6198,-4.6159,-4.5977,0.0,0.0,0.0,0.0,0.0,0.0,0.0,0.0,0.0,0.0,-2.921,-2.8732,-2.7936,-2.7367,-2.7055,-2.7055,-2.6691,-2.6714,-2.7229,0.0,0.0,0.0,0.0,0.0,-2.6973,-2.705,-2.7201,-2.7281,-2.8084,-2.8549,-2.8712,-2.9126,-2.9327,-2.934,-2.9554,-2.9694,-2.9847,-3.0012,-2.9732,-2.9263,-2.977,-2.9732,-2.9535,0.0,0.0,0.0,0.0,0.0,0.0,0.0,0.0,0.0,0.0,0.0,0.0,0.0,0.0,0.0,0.0,0.0,0.0,0.0,0.0,0.0,0.0,0.0,0.0,0.0,0.0,0.0,0.0,0.0,0.0,0.0,-3.859,-3.9165,-3.9026,-3.9727,-4.0308,-4.0546,-4.104,-4.1309,-4.113,-4.1265,-4.1055,-4.0292,-4.0337,-4.0681,-4.1415,-4.128,-4.1565,-4.2419,-4.2438,-4.2423,-4.2357,-4.3085,-4.3298,-4.3025,-4.3803,-4.4103,-4.4176,-4.4695,-4.4971,-4.4951,-4.4951,-4.5084,-4.5309,-4.5309,-4.5464,-4.5694,-4.4772,-4.4516,-4.4813,-4.4813,-4.4692,-4.4649,0.0,0.0,0.0,0.0,0.0,0.0,0.0,0.0,0.0,0.0,-2.9086,-2.8838,-2.7697,-2.7397,-2.7281,-2.7281,-2.6779,-2.6714,-2.7162,0.0,0.0,0.0,0.0,-2.7088,-2.693,-2.7188,-2.7507,-2.7971,-2.8612,-2.9176,-2.9641,-2.998,-3.0177,-3.0311,-3.0244,-3.0131,-3.0159,-3.0022,-2.9732,-2.9454,-2.9731,-2.9517,-2.9201,-3.0125,-3.0413,-3.0537,-3.1904,-3.2327,-3.2483,-3.3701,0.0,0.0,0.0,0.0,0.0,0.0,0.0,0.0,0.0,0.0,0.0,0.0,0.0,0.0,0.0,0.0,0.0,0.0,0.0,0.0,0.0,0.0,0.0,0.0,-3.9266,-3.9904,-3.9447,-4.0262,-4.1052,-4.1369,-4.1624,-4.1579,-4.1025,-4.1474,-4.1354,-4.0322,-4.0846,-4.146,-4.1941,-4.1956,-4.2376,-4.3292,-4.316,-4.3296,-4.3584,-4.3863,-4.3978,-4.4152,-4.4541,-4.4884,-4.5304,-4.5698,-4.6027,-4.6349,-4.6349,-4.6508,-4.6746,-4.6746,-4.6904,-4.6998,0.0,0.0,0.0,0.0,-4.5469,-4.5136,0.0,0.0,0.0,0.0,0.0,0.0,0.0,0.0,0.0,0.0,0.0,-2.8716,-2.7114,-2.7197,-2.7281,-2.7281,-2.6779,-2.6559,0.0,0.0,0.0,-2.7522,-2.6994,-2.6905,-2.7268,-2.7406,-2.7984,-2.9026,-2.9089,-2.9666,-3.0708,-3.0708,-3.0798,-3.1071,-3.076,-3.0443,-3.0208,-2.9936,-2.988,-2.988,-2.9817,-2.9478,-2.9089,-2.9591,-3.0049,-3.0599,-3.1727,-3.2355,-3.2812,-3.4126,0.0,0.0,0.0,0.0,0.0,0.0,0.0,0.0,0.0,0.0,0.0,0.0,0.0,0.0,0.0,0.0,0.0,0.0,0.0,0.0,0.0,0.0,0.0,0.0,-4.048,-4.1111,-3.9961,-4.1092,-4.1796,-4.1354,-4.1848,-4.1788,-4.0621,-4.1639,-4.2087,-4.1429,-4.1998,-4.2479,-4.2724,-4.2739,0.0,0.0,0.0,-4.4223,-4.5289,-4.4721,-4.4721,-4.5289,-4.5379,-4.5822,-4.6551,-4.6708,-4.7152,-4.7884,-4.7977,-4.7977,-4.7977,-4.7977,-4.8054,-4.8038,-4.7449,-4.7294,-4.7309,-4.7741,-4.7391,-4.6748,0.0,0.0,0.0,0.0,0.0,0.0,0.0,0.0,0.0,-2.8025,-2.8797,-2.8838,-2.6984,-2.7067,-2.7281,-2.7281,-2.6779,-2.6791,0.0,0.0,-2.7449,-2.7595,-2.7328,-2.7238,-2.7281,-2.816,-2.895,-2.9628,-3.0068,-3.062,-3.1235,-3.1085,-3.1066,-3.1083,-3.0807,-3.0663,-3.0544,-3.0245,-3.0089,-3.0132,-2.9877,-2.9729,-2.9641,-2.9754,-3.0146,-3.0615,-3.0861,-3.0978,-3.1214,-3.2399,-3.2799,-3.2989,-3.4228,-3.5404,0.0,0.0,0.0,0.0,0.0,0.0,0.0,0.0,0.0,0.0,0.0,0.0,0.0,0.0,0.0,0.0,0.0,0.0,0.0,-3.8779,-3.9516,-4.0155,-4.0039,-4.0768,-4.1111,-4.0666,-4.1175,-4.1474,-4.122,-4.1893,-4.2087,-4.1429,-4.1998,-4.2596,-4.312,-4.315,-4.3828,-4.5132,-4.4548,-4.4496,-4.5289,-4.517,-4.517,-4.5304,-4.5858,0.0,-4.6395,-4.7327,-4.7821,-4.8002,-4.8317,-4.848,-4.848,-4.848,-4.8724,-4.8936,-4.8089,-4.7725,-4.7817,-4.7893,-4.8068,-4.8393,0.0,0.0,0.0,0.0,0.0,0.0,0.0,0.0,0.0,0.0,-2.9412,-2.9572,-2.8226,-2.8376,-2.8526,-2.8526,-2.7676,0.0,0.0,-2.7606,-2.7513,-2.7826,-2.7767,-2.7959,-2.8524,-2.88,-2.9478,-3.0595,-3.0608,-3.0941,-3.1647,-3.1577,-3.1559,-3.1564,-3.1269,-3.1062,-3.0954,-3.0569,-3.0325,-3.0214,-3.0032,-2.9939,-2.9792,-2.9792,-2.9967,-3.0231,-3.052,-3.062,-3.0725,-3.1562,-3.1772,-3.204,-3.3581,-3.4766,-3.5578,0.0,0.0,0.0,0.0,0.0,0.0,0.0,0.0,0.0,0.0,0.0,0.0,0.0,0.0,-3.9831,-3.9624,0.0,-3.9343,-3.887,-3.9431,-4.001,-4.0085,-4.1022,-4.1682,-4.1429,-4.1669,-4.1878,-4.1878,-4.2491,-4.2596,-4.1923,-4.309,-4.3838,-4.3823,-4.4137,-4.4616,-4.5274,-4.4975,-4.5125,-4.5798,-4.5813,-4.5978,-4.6307,-4.6651,-4.6886,-4.7156,-4.7728,-4.8133,-4.8286,-4.8537,-4.8702,-4.9031,-4.963,-5.0229,-5.0671,-5.0219,-4.9828,-4.956,-4.9886,-5.0009,-4.9971,0.0,0.0,0.0,0.0,0.0,0.0,0.0,0.0,0.0,0.0,-2.9982,-3.0199,-2.9433,-2.9512,-2.9656,0.0,0.0,0.0,0.0,-2.7787,-2.7532,-2.8084,-2.8136,-2.8612,-2.9603,-2.9301,-2.999,-3.163,-3.1185,-3.1322,-3.2128,-3.2029,-3.1958,-3.2013,-3.165,-3.1455,-3.1271,-3.1088,-3.0741,-3.0468,-3.0468,-3.0331,-3.0105,-3.0105,-2.998,-2.9854,-3.0294,-3.0457,-3.0666,-3.1095,-3.1245,-3.1591,-3.3081,-3.4016,-3.4825,-3.5711,-3.6796,0.0,0.0,0.0,0.0,0.0,0.0,0.0,0.0,-4.0144,-4.0307,-4.0047,-4.0112,-4.0025,-3.9402,-3.9476,-3.9637,-3.9564,-4.0115,-4.0576,-4.0367,-4.1532,-4.2494,-4.2614,-4.2629,-4.2506,-4.2372,-4.2985,-4.3195,-4.2776,-4.4212,-4.493,-4.4526,-4.5005,-4.5349,-4.5484,-4.5484,-4.5828,-4.6516,-4.6516,-4.6785,-4.7309,-4.7309,-4.7467,-4.788,-4.7964,-4.8218,-4.8537,-4.8702,-4.9015,-4.9517,-5.0432,-5.1311,-5.1993,-5.212,-5.1921,-5.1606,-5.2065,-5.1914,-5.1572,0.0,0.0,0.0,0.0,0.0,0.0,0.0,0.0,0.0,0.0,0.0,0.0,0.0,0.0,0.0,0.0,0.0,0.0,-2.921,-2.8017,-2.7532,-2.8084,-2.8413,-2.8662,-2.9026,-2.9774,-3.0979,-3.2524,-3.2231,-3.2361,-3.3002,-3.2611,-3.2239,-3.2025,-3.1777,-3.1665,-3.1665,-3.178,-3.1613,-3.1368,-3.162,-3.1547,-3.121,-3.121,-3.062,-2.9804,-2.9867,-3.0099,-3.0394,-3.0458,-3.1074,-3.1913,-3.3016,-3.4196,-3.5352,-3.6212,-3.7001,-3.7624,-3.7398,-3.8272,-3.9589,-4.0756,-4.11,-4.1459,0.0,-4.1966,-4.1353,-4.1858,-4.1265,-4.0768,-4.1055,-4.1385,-4.1534,-4.1235,-4.1881,-4.2106,-4.1354,-4.2061,-4.2922,-4.3509,-4.3319,-4.3,-4.2417,-4.2955,-4.3554,-4.4062,-4.4302,-4.4646,-4.5155,-4.5259,-4.5574,-4.6187,-4.6217,-4.6531,-4.7189,-4.7189,-4.7234,-4.7309,-4.7309,-4.7309,-4.7381,-4.7794,-4.8049,-4.8133,-4.8867,-4.9437,-4.9836,-4.9995,-5.0509,-5.1327,-5.1921,-5.2577,-5.3094,-5.242,-5.2527,-5.2908,0.0,0.0,0.0,0.0,0.0,0.0,0.0,0.0,0.0,0.0,0.0,0.0,0.0,0.0,0.0,0.0,0.0,0.0,-3.0392,-2.8763,-2.8227,-2.9237,-2.9277,-2.9326,-2.9542,-2.9699,-3.0586,-3.2239,-3.1763,-3.1978,-3.2896,-3.2906,-3.2678,-3.2512,-3.2557,-3.2521,-3.2309,-3.241,-3.2176,-3.1722,-3.1806,-3.1735,-3.1361,-3.1276,-3.1042,-3.0635,-3.0984,-3.1133,0.0,0.0,-3.193,-3.2508,-3.387,-3.4967,-3.5899,-3.6752,-3.7819,-3.8822,-3.9514,-4.0127,-4.0786,-4.1713,-4.1953,-4.1998,-4.2162,-4.1773,-4.1354,-4.1235,-4.131,-4.1382,-4.1039,-4.1563,-4.2046,-4.2107,-4.2331,-4.2572,-4.2754,-4.3326,-4.3859,-4.3847,-4.4338,-4.4454,-4.3965,-4.3972,-4.4163,-4.4434,-4.5117,-4.5603,-4.5873,-4.6262,-4.6591,-4.689,-4.689,-4.7025,-4.7309,-4.7309,-4.7309,-4.7309,-4.7309,-4.7309,-4.7309,-4.781,-4.8355,-4.9035,-4.9678,-5.0566,-5.1541,-5.1849,-5.2383,-5.3094,-5.3432,-5.3715,-5.4011,-5.3649,-5.3715,-5.3881,0.0,0.0,0.0,0.0,0.0,0.0,0.0,0.0,0.0,0.0,0.0,0.0,0.0,0.0,0.0,0.0,0.0,0.0,0.0,-2.9366,-2.8769,-2.9568,-2.9551,-2.9682,-2.9885,-2.9654,-3.0306,-3.1903,-3.1589,-3.1791,-3.2636,-3.2869,-3.2965,-3.2723,-3.2944,-3.2895,-3.2711,-3.2857,-3.2558,-3.2139,-3.2288,-3.2084,-3.1738,-3.1656,-3.1694,-3.1771,-3.1879,-3.1923,0.0,0.0,-3.2945,-3.3452,-3.4764,-3.5635,-3.6399,-3.7407,-3.8497,-3.9664,-4.0801,-4.125,-4.1534,-4.2192,-4.2357,-4.2237,-4.1758,-4.1504,-4.125,-4.0845,-4.1369,-4.1834,-4.1442,-4.2001,-4.2667,-4.3072,-4.328,-4.3581,-4.4157,-4.469,-4.497,-4.458,-4.5289,-4.5683,-4.5293,-4.4992,-4.489,-4.5086,-4.592,-4.6466,-4.6661,-4.7126,-4.7381,-4.7381,-4.7309,-4.7309,-4.7309,-4.7309,-4.7309,-4.7309,-4.7309,-4.7452,-4.7834,-4.846,-4.9327,-5.0336,-5.0627,-5.1435,-5.2597,-5.2924,-5.3516,-5.4222,-5.4222,-5.4303,-5.4512,-5.4512,-5.4512,-5.4512,0.0,0.0,0.0,0.0,0.0,0.0,0.0,0.0,0.0,0.0,0.0,0.0,0.0,0.0,0.0,0.0,0.0,0.0,0.0,-2.9588,-2.8877,-2.8369,-2.8705,-2.913,-2.9548,-2.9847,-3.0624,-3.1903,-3.2118,-3.2224,-3.2363,-3.2562,-3.2574,-3.2412,-3.2437,-3.2437,-3.2449,-3.2978,-3.2956,-3.2736,-3.327,-3.3169,-3.2772,-3.2759,-3.2909,-3.3036,-3.2098,0.0,0.0,0.0,-3.3847,-3.481,-3.5383,-3.6043,-3.6828,-3.8027,-3.8856,-3.9574,-4.0247,-4.0891,-4.1534,-4.2192,-4.2357,-4.2357,-4.2327,-4.1833,-4.146,-4.1611,-4.1701,-4.1972,-4.2819,-4.3441,-4.4016,-4.4444,-4.5284,-4.5804,-4.5671,-4.6011,-4.6173,-4.5996,-4.6108,-4.6188,-4.593,-4.5507,-4.5544,-4.6217,-4.6431,-4.6885,-4.7563,-4.7624,-4.7624,-4.7624,-4.7381,-4.7309,-4.7309,-4.7309,-4.7309,-4.7309,-4.7309,-4.7904,-4.9103,-5.0301,-5.1074,-5.1525,-5.1598,-5.1816,-5.2191,-5.2262,-5.2717,-5.3449,-5.3449,-5.3881,-5.4512,-5.4512,-5.4512,-5.4512,0.0,0.0,0.0,0.0,0.0,0.0,0.0,0.0,0.0,0.0,0.0,0.0,0.0,0.0,0.0,0.0,0.0,0.0,0.0,-2.9941,-2.9295,-2.9693,-2.9326,-2.9015,-2.889,-2.9163,-2.9627,-3.0419,-3.0618,-3.1006,-3.1505,-3.1997,-3.229,-3.2574,-3.2744,-3.2993,-3.3106,-3.3279,-3.322,-3.297,-3.3025,-3.2975,-3.2803,-3.3027,-3.3095,-3.3257,0.0,0.0,0.0,0.0,-3.5228,-3.599,-3.6126,-3.6921,-3.7972,-3.8799,-3.9544,-4.0217,-4.0876,-4.1534,-4.2087,-4.2297,-4.2357,-4.2252,-4.1818,-4.1534,-4.146,-4.1626,-4.2062,-4.2424,-4.2697,-4.3618,-4.4353,-4.4434,-4.5559,-4.6297,-4.5955,-4.6735,-4.7213,-4.6869,-4.7418,-4.7613,-4.709,-4.647,-4.6319,-4.6743,-4.7051,-4.7468,-4.7864,-4.7709,-4.7624,-4.7624,-4.7381,-4.7309,-4.7309,-4.7309,-4.7467,-4.7794,-4.8573,-4.9327,-4.9993,-5.0957,-5.1872,-5.2786,-5.2786,-5.3146,-5.3715,-5.3715,-5.3864,-5.4158,-5.4158,-5.4303,-5.4512,-5.4512,-5.4512,-5.4512,0.0,0.0,0.0,0.0,0.0,0.0,0.0,0.0,0.0,0.0,0.0,0.0,0.0,0.0,0.0,0.0,0.0,-3.1117,0.0,0.0,-2.9931,-3.034,-2.9917,-2.9577,-2.9401,-2.9497,-2.9774,-3.0233,-3.032,-3.062,-3.1203,-3.1601,-3.2092,-3.2478,-3.2744,-3.298,-3.3066,-3.3066,-3.3107,-3.3072,-3.2933,-3.3064,-3.3264,-3.3404,-3.3553,0.0,0.0,0.0,0.0,0.0,-3.6088,-3.6821,-3.6821,-3.7704,-3.8841,-3.929,-3.9723,-4.0187,-4.0846,-4.1339,-4.1713,-4.1953,-4.1833,-4.1609,-4.1414,-4.1384,-4.152,-4.1851,-4.2712,-4.332,-4.3289,-4.4367,-4.5202,-4.4879,-4.5904,-4.6645,-4.6468,-4.7365,-4.7988,-4.7905,-4.8294,-4.8455,-4.8275,-4.7658,-4.7262,-4.7205,-4.7652,-4.788,-4.7964,-4.7794,-4.7709,-4.7624,-4.7381,-4.7309,-4.7309,-4.7482,-4.7949,-4.8656,-5.0149,-5.0973,-5.1271,-5.2158,-5.3061,-5.3798,-5.3798,-5.4093,-5.4512,-5.4512,-5.4512,-5.4512,-5.4512,-5.4512,-5.4512,-5.4512,-5.4512,-5.4512,0.0,0.0,0.0,0.0,0.0,0.0,0.0,0.0,0.0,0.0,0.0,0.0,0.0,0.0,0.0,0.0,0.0,0.0,0.0,0.0,0.0,-3.0372,-3.0464,-3.0589,-3.0825,-3.0777,-3.0871,-3.1124,-3.1048,-3.111,-3.1309,-3.1632,-3.1876,-3.2143,-3.2475,-3.2567,-3.2408,-3.2421,-3.2712,-3.3116,-3.3167,-3.3519,-3.3982,-3.4026,0.0,0.0,0.0,0.0,0.0,-3.5504,-3.6372,-3.7464,-3.7494,-3.8422,-3.9469,-3.9424,-3.9439,-3.9604,-4.0232,-4.0427,-4.0591,-4.119,-4.0861,-4.0576,-4.1235,-4.1384,-4.1579,-4.2267,-4.3563,-4.451,-4.451,-4.5618,-4.6311,-4.5866,-4.6517,-4.7137,-4.7354,-4.7965,-4.8514,-4.8981,-4.8796,-4.8877,-4.9299,-4.8952,-4.8407,-4.786,-4.8225,-4.8363,-4.8049,-4.8079,-4.791,-4.7639,-4.7497,-4.7426,-4.7426,-4.7925,-4.8769,-4.9884,-5.1839,-5.2719,-5.2788,-5.3977,-5.4512,-5.4512,-5.4512,-5.4512,-5.4512,-5.4512,-5.4512,-5.4512,-5.4512,-5.4512,-5.4512,-5.4512,-5.4512,-5.4512,0.0,0.0,0.0,0.0,0.0,0.0,0.0,0.0,0.0,0.0,0.0,0.0,0.0,0.0,0.0,0.0,0.0,0.0,0.0,0.0,0.0,0.0,0.0,0.0,0.0,0.0,0.0,0.0,0.0,-3.111,-3.1713,-3.1917,-3.2489,-3.3416,-3.3444,-3.3629,-3.3963,-3.3837,-3.3837,-3.3949,0.0,-3.3831,-3.4012,0.0,0.0,0.0,0.0,0.0,-3.5504,-3.5504,-3.6686,-3.8227,-3.8877,-3.9613,-4.0053,-3.9574,-3.9768,-4.0187,-4.0352,-4.0756,-4.1055,-4.0726,-4.0531,-4.0576,-4.1235,-4.1384,-4.1713,-4.2851,-4.3805,-4.451,-4.451,-4.5618,-4.6311,-4.5866,-4.6885,-4.7722,-4.779,-4.8809,-4.9513,-4.943,-4.9614,-4.9704,-4.9554,-4.9566,-4.9809,-5.0352,-5.0421,-4.9835,-4.8347,-4.8997,-4.8944,-4.7639,-4.8475,-4.9044,-4.9044,-5.0403,-5.108,-5.1155,-5.2544,-5.3213,-5.3213,-5.4076,-5.4512,-5.4512,-5.4512,-5.4512,-5.4512,-5.4512,-5.4512,-5.4512,-5.4512,-5.4512,-5.4512,-5.4512,-5.4385,-5.4303,0.0,0.0,0.0,0.0,0.0,0.0,0.0,0.0,0.0,0.0,0.0,0.0,0.0,0.0,0.0,0.0,0.0,0.0,0.0,0.0,0.0,0.0,0.0,0.0,0.0,0.0,0.0,0.0,0.0,0.0,0.0,-3.2119,-3.2613,-3.3409,-3.3776,-3.4087,-3.4269,-3.4153,0.0,0.0,0.0,0.0,0.0,0.0,0.0,0.0,0.0,0.0,-3.5968,-3.6334,-3.7338,-3.8582,-3.9399,-3.9808,-3.9903,-3.9529,-3.9679,-4.0038,-4.0322,-4.0666,-4.0861,-4.0487,-4.0397,-4.0502,-4.0876,-4.1445,-4.2152,-4.3198,-4.452,-4.552,-4.552,-4.6354,-4.6827,-4.6536,-4.7307,-4.8018,-4.8103,-4.9118,-5.0075,-5.0567,-5.0786,-5.0804,-5.0892,-5.1236,-5.1499,-5.1569,-5.094,-5.0189,-4.9248,-4.9807,-4.9672,-4.8714,-4.9987,-5.0657,-5.0736,-5.1981,-5.2556,-5.242,-5.3432,-5.3881,-5.3881,-5.4303,-5.4512,-5.4512,-5.4512,-5.4512,-5.4512,-5.4512,-5.4512,-5.4512,-5.4512,-5.4512,-5.4512,-5.4367,-5.4303,-5.4158,0.0,0.0,0.0,0.0,0.0,0.0,0.0,0.0,0.0,0.0,0.0,0.0,0.0,0.0,0.0,0.0,0.0,0.0,0.0,0.0,0.0,0.0,0.0,0.0,0.0,0.0,0.0,0.0,0.0,0.0,0.0,0.0,0.0,0.0,0.0,0.0,0.0,0.0,0.0,0.0,0.0,0.0,0.0,0.0,0.0,0.0,0.0,-3.5923,-3.6715,-3.7496,-3.8121,-3.8702,-3.9429,-3.9613,-3.9529,-3.9439,-3.9484,-3.9679,-4.0247,-4.0457,-4.0502,-4.0427,-4.0472,-4.0502,-4.0427,-4.1587,-4.2771,-4.3371,-4.5263,-4.6811,-4.6864,-4.7357,-4.7755,-4.7694,-4.8019,-4.8444,-4.8872,-4.9724,-5.0714,-5.2004,-5.1955,-5.1997,-5.2673,-5.3143,-5.318,-5.2629,-5.1218,-5.0393,-5.0438,-5.0595,-5.0642,-5.0532,-5.1672,-5.2348,-5.247,-5.3212,-5.3523,-5.3533,-5.4278,-5.4603,-5.4603,-5.4603,-5.4603,-5.4586,-5.4546,-5.4512,-5.4512,-5.4512,-5.4512,-5.4512,-5.4512,-5.4512,-5.4512,-5.4303,-5.4158,-5.4158,0.0,0.0,0.0,0.0,0.0,0.0,0.0,0.0,0.0,0.0,-3.0362,-3.1241,0.0,0.0,0.0,0.0,0.0,0.0,0.0,0.0,0.0,0.0,0.0,0.0,0.0,-3.3555,-3.3642,-3.3642,-3.3224,0.0,0.0,0.0,0.0,0.0,0.0,0.0,0.0,0.0,0.0,0.0,0.0,0.0,0.0,0.0,0.0,0.0,-3.5504,-3.612,-3.7046,0.0,-3.8644,-3.9531,-3.9651,-4.0073,-4.0332,-3.9574,-3.9798,-4.0247,-4.0367,-4.0786,-4.107,-4.0531,-4.0816,-4.107,-4.0531,-4.1952,-4.3356,-4.3479,-4.5135,-4.6759,-4.7104,-4.7874,-4.8723,-4.9599,-5.0034,-5.0669,-5.1837,-5.2205,-5.2426,-5.2771,-5.2781,-5.2913,-5.3223,-5.3528,-5.4098,-5.5199,-5.4357,-5.2973,-5.1231,-5.2248,-5.2973,-5.3136,-5.3404,-5.3808,-5.4601,-5.4737,-5.4649,-5.4303,-5.4957,-5.5266,-5.5266,-5.5266,-5.5266,-5.5249,-5.4724,-5.4512,-5.4512,-5.4512,-5.4512,-5.4512,-5.4512,-5.4512,-5.4512,-5.4303,-5.411,-5.398,0.0,0.0,0.0,0.0,0.0,0.0,0.0,-2.9146,-2.9778,-3.0304,-3.0944,-3.1482,-3.1983,-3.1949,-3.2081,0.0,0.0,0.0,0.0,0.0,0.0,0.0,0.0,0.0,0.0,-3.3761,-3.3848,-3.3899,0.0,-3.3625,-3.3783,-3.4162,-3.4345,-3.4523,-3.5138,-3.5377,0.0,0.0,0.0,0.0,-3.5474,0.0,0.0,0.0,0.0,0.0,0.0,-3.6971,-3.7731,-3.8041,-3.8932,-3.9932,-3.9999,-3.9994,-3.9959,-3.9643,-3.9961,-4.0472,-4.0816,-4.1384,-4.1818,-4.1504,-4.1654,-4.1866,-4.1516,-4.2679,-4.3843,-4.4101,-4.5572,-4.6963,-4.7274,-4.7841,-4.8508,-4.9526,-5.0303,-5.1018,-5.1787,-5.2657,-5.3418,-5.389,-5.4309,-5.4453,-5.4404,-5.521,-5.5673,-5.5619,-5.5644,-5.4747,-5.2802,-5.3013,-5.3819,-5.5007,-5.4848,-5.4821,-5.5125,-5.5125,-5.5086,-5.4987,-5.5235,-5.5547,-5.584,-5.584,-5.5634,-5.5389,-5.5077,-5.481,-5.4512,-5.4512,-5.4512,-5.4512,-5.4367,-5.4367,-5.4303,-5.4028,-5.3915,-5.3849,0.0,0.0,0.0,0.0,0.0,0.0,0.0,-2.9359,-3.0033,-3.0729,-3.1151,-3.1303,-3.1037,-3.1688,-3.2128,0.0,0.0,0.0,0.0,0.0,0.0,0.0,0.0,0.0,0.0,0.0,0.0,-3.405,-3.3848,0.0,0.0,0.0,0.0,0.0,-3.4786,-3.5102,-3.4989,-3.5002,0.0,0.0,0.0,-3.5493,0.0,0.0,0.0,0.0,0.0,-3.7875,-3.8428,-3.8511,-3.9122,-3.9943,-4.0286,-3.9895,-3.9301,-3.958,-4.0019,-4.0576,-4.1369,-4.2073,-4.2536,-4.2387,-4.2476,-4.2528,-4.2391,-4.3324,-4.434,-4.4659,-4.6022,-4.7254,-4.7519,-4.7902,-4.8488,-4.9341,-5.0309,-5.1164,-5.1635,-5.3065,-5.4328,-5.5144,-5.587,-5.6159,-5.5859,-5.6996,-5.7256,-5.6018,-5.6222,-5.5871,-5.4333,-5.3684,-5.4206,-5.5917,-5.5663,-5.5349,-5.4952,-5.4952,-5.5104,-5.5407,-5.5495,-5.5891,-5.6389,-5.6235,-5.5978,-5.5564,-5.5304,-5.4952,-5.4512,-5.4512,-5.4431,-5.4431,-5.4239,-5.4175,-5.411,-5.3832,-5.37,-5.3651,0.0,0.0,0.0,0.0,0.0,0.0,0.0,-2.9138,-2.9564,-3.0666,-3.0849,-3.0778,-3.052,-3.1896,-3.2788,0.0,0.0,0.0,0.0,0.0,0.0,0.0,0.0,0.0,0.0,0.0,0.0,-3.3899,-3.4,0.0,0.0,0.0,0.0,0.0,0.0,-3.4632,-3.4717,-3.4998,0.0,0.0,0.0,0.0,0.0,0.0,0.0,0.0,0.0,-3.8358,-3.8704,-3.9137,-3.9273,-3.9414,-4.0378,-3.9769,-3.8843,-3.9316,-3.9888,-4.0666,-4.1938,-4.2746,-4.3105,-4.2506,-4.2806,-4.2965,-4.2153,-4.3479,-4.4841,-4.469,-4.6017,-4.7424,-4.7945,-4.8791,-4.9718,-5.0615,-5.1219,-5.2098,-5.3462,-5.4397,-5.5382,-5.6402,-5.7246,-5.7718,-5.7645,-5.7954,-5.8116,-5.7937,-5.6772,-5.5913,-5.553,-5.4821,-5.4669,-5.5178,-5.5195,-5.5001,-5.4552,-5.4552,-5.4849,-5.5424,-5.5875,-5.6457,-5.6964,-5.6474,-5.6184,-5.6047,-5.5008,-5.4581,-5.4512,-5.4512,-5.4367,-5.4239,-5.4239,-5.411,-5.398,-5.3783,-5.37,-5.3651,0.0,0.0,0.0,0.0,0.0,0.0,-2.9075,-2.9029,-2.9281,-3.0105,-3.0472,-3.0463,-2.9858,-3.1186,-3.1961,-3.165,0.0,0.0,0.0,0.0,0.0,0.0,0.0,0.0,0.0,0.0,-3.3591,-3.3899,-3.3949,0.0,0.0,0.0,0.0,0.0,0.0,-3.411,-3.409,-3.4308,0.0,0.0,0.0,0.0,0.0,0.0,0.0,0.0,0.0,0.0,-3.9489,-3.9721,-3.9873,-3.9929,-3.9575,-3.9264,-3.9172,-4.0121,-4.0769,-4.1397,-4.2212,-4.2836,-4.3349,-4.3593,-4.3503,-4.353,-4.4236,-4.4543,-4.4751,-4.5057,-4.5782,-4.6616,-4.7384,-4.8098,-4.89,-4.9984,-5.0746,-5.1405,-5.2004,-5.3857,-5.528,-5.5724,-5.7255,-5.8188,-5.7881,-5.8331,-5.8561,-5.8561,-5.702,-5.6201,-5.637,-5.5009,-5.4497,-5.5108,-5.4878,-5.4677,-5.4512,-5.4512,-5.4763,-5.5424,-5.5944,-5.6321,-5.6542,-5.6712,-5.6355,-5.5669,-5.5218,-5.4815,-5.4512,-5.4367,-5.4303,-5.4175,-5.3963,-5.3849,-5.3783,-5.3668,-5.3618,-5.3551,0.0,0.0,0.0,0.0,0.0,-2.9075,-2.9075,-2.8967,-2.9124,-2.9715,-3.0251,-3.0304,-2.9489,-3.0479,-3.113,-3.0838,-3.1518,0.0,0.0,0.0,0.0,0.0,0.0,0.0,0.0,0.0,-3.3678,-3.4234,-3.4284,-3.4333,0.0,0.0,-3.4333,-3.4151,0.0,0.0,0.0,0.0,0.0,0.0,0.0,0.0,0.0,0.0,0.0,0.0,0.0,0.0,0.0,0.0,0.0,-4.0439,-3.9606,-3.9508,-3.9844,-4.0546,-4.0974,-4.1541,-4.2536,-4.3031,-4.3452,-4.454,-4.4211,-4.3915,-4.5451,-4.517,-4.472,-4.5216,-4.5654,-4.613,-4.6811,-4.7544,-4.8337,-4.9179,-5.0034,-5.0618,-5.0858,-5.2963,-5.4593,-5.4898,-5.673,-5.7979,-5.7902,-5.8494,-5.884,-5.884,-5.7295,-5.6505,-5.6788,-5.5146,-5.4367,-5.4915,-5.466,-5.4512,-5.4512,-5.4512,-5.4763,-5.5407,-5.5788,-5.6013,-5.6235,-5.6422,-5.6065,-5.5324,-5.5101,-5.4754,-5.4303,-5.4239,-5.4158,-5.4028,-5.3766,-5.3651,-5.3601,-5.3551,-5.3501,-5.3501,0.0,0.0,0.0,0.0,0.0,0.0,-2.9075,-2.8967,-2.9124,-2.9715,-3.0251,-3.0304,-2.9489,-3.0027,-3.0531,-3.0807,-3.1808,0.0,0.0,0.0,0.0,0.0,0.0,0.0,0.0,0.0,-3.4185,-3.4975,-3.5131,-3.5178,-3.5178,-3.5178,-3.5008,-3.4691,0.0,0.0,0.0,0.0,0.0,0.0,0.0,0.0,0.0,0.0,0.0,0.0,0.0,0.0,0.0,0.0,0.0,0.0,0.0,-4.0888,0.0,-4.0287,-4.021,-4.0812,-4.3234,-4.3376,-4.3319,-4.5233,-4.4768,-4.4173,-4.5114,-4.4962,-4.4775,-4.5152,-4.5703,-4.6122,-4.6289,-4.758,-4.8552,-4.8453,-4.9127,-5.0,-5.0772,-5.2162,-5.3461,-5.4425,-5.5874,-5.7116,-5.784,-5.8581,-5.9012,-5.9012,-5.7633,-5.6805,-5.6805,-5.5339,-5.4512,-5.4529,-5.4512,-5.4512,-5.4512,-5.4512,-5.4763,-5.5407,-5.5424,-5.5669,-5.6201,-5.5484,-5.5142,-5.5074,-5.4436,-5.411,-5.398,-5.4175,-5.4028,-5.37,-5.37,-5.3601,-5.3501,-5.3501,-5.3501,-5.3501,0.0,0.0,0.0,0.0,0.0,0.0,0.0,-2.8905,-2.8857,-2.8979,-2.9453,-2.9524,-2.8796,-2.9319,-2.9786,-2.9956,-3.1047,0.0,0.0,0.0,0.0,0.0,0.0,0.0,0.0,-3.4366,-3.456,-3.5021,-3.5021,-3.5115,-3.5224,-3.5299,-3.5299,-3.5161,-3.522,-3.5111,0.0,0.0,0.0,0.0,0.0,0.0,-3.882,0.0,0.0,0.0,0.0,0.0,0.0,0.0,0.0,0.0,0.0,0.0,0.0,0.0,-4.0867,-4.1471,-4.3089,-4.3301,-4.3584,-4.5161,-4.4935,-4.4542,-4.541,-4.5192,-4.4846,-4.5121,-4.5329,-4.5709,-4.6384,-4.6921,-4.7481,-4.8282,-4.8699,-4.9152,-4.9667,-5.2016,-5.3918,-5.4303,-5.6705,-5.8409,-5.8633,-5.8875,-5.9012,-5.9012,-5.7633,-5.6805,-5.6805,-5.521,-5.4367,-5.4512,-5.4512,-5.4512,-5.4512,-5.4512,-5.4505,-5.46,-5.5018,-5.5037,-5.4698,-5.4821,-5.4684,-5.4339,-5.4148,-5.4045,-5.398,-5.3915,-5.3783,-5.37,-5.3601,-5.3568,-5.3501,-5.3501,-5.3501,-5.3501,0.0,0.0,0.0,0.0,0.0,0.0,0.0,-2.8811,-2.8684,-2.8621,-2.8896,-2.9005,-2.8572,-2.8912,-2.9508,-3.035,-3.1214,0.0,0.0,0.0,0.0,0.0,0.0,0.0,-3.5005,-3.4894,-3.5035,-3.5481,-3.5481,-3.5526,-3.5633,-3.5705,-3.5661,-3.5571,-3.5627,-3.5582,0.0,0.0,0.0,0.0,0.0,0.0,-3.8894,0.0,0.0,0.0,0.0,0.0,0.0,0.0,0.0,0.0,0.0,0.0,0.0,0.0,-4.0933,-4.146,-4.2741,-4.3105,-4.3488,-4.513,-4.5103,-4.4873,-4.5642,-4.5341,-4.4978,-4.5086,-4.5177,-4.5331,-4.59,-4.6352,-4.69,-4.7745,-4.8248,-4.8795,-4.9518,-5.1826,-5.3895,-5.4864,-5.707,-5.8445,-5.8376,-5.872,-5.8892,-5.8823,-5.7431,-5.6572,-5.6572,-5.4998,-5.4175,-5.4321,-5.4321,-5.4321,-5.4321,-5.4321,-5.4239,-5.411,-5.4541,-5.4442,-5.3997,-5.426,-5.4209,-5.3915,-5.3915,-5.3866,0.0,-5.3717,-5.3651,-5.3601,-5.3568,-5.3501,-5.3501,-5.3501,-5.3501,-5.3501,0.0,0.0,0.0,0.0,0.0,0.0,0.0,-2.87,-2.8573,-2.8621,-2.8653,-2.8685,-2.8732,-2.8732,-2.9517,-3.1453,0.0,0.0,0.0,0.0,0.0,0.0,0.0,0.0,-3.5975,-3.5526,-3.5599,-3.6301,-3.6301,-3.6301,-3.6301,-3.6301,-3.6131,-3.5871,-3.6174,-3.6131,0.0,0.0,0.0,0.0,0.0,0.0,0.0,0.0,0.0,0.0,0.0,0.0,0.0,0.0,0.0,0.0,0.0,0.0,0.0,0.0,0.0,0.0,0.0,-4.2691,-4.3224,-4.505,-4.5219,-4.5068,-4.5614,-4.5456,0.0,-4.5032,-4.5086,-4.514,-4.5032,-4.5795,-4.6588,-4.6873,-4.768,-4.8779,-5.0096,-5.1728,-5.3647,-5.5962,-5.709,-5.7604,-5.7328,-5.8255,-5.8684,-5.8405,-5.7055,-5.6201,-5.6133,-5.4766,-5.398,-5.398,-5.398,-5.3997,-5.398,-5.398,-5.398,-5.398,-5.398,-5.398,-5.3997,-5.3783,-5.3717,-5.3717,-5.3717,-5.3601,-5.3501,-5.3651,-5.3601,-5.3501,-5.3501,-5.3501,-5.3501,-5.3501,-5.3501,-5.3501,0.0,0.0,0.0,0.0,0.0,0.0,0.0,0.0,0.0,0.0,-2.8685,-2.8732,-2.8811,-2.9241,-2.9579,0.0,0.0,0.0,0.0,0.0,0.0,0.0,0.0,0.0,-3.5975,-3.5975,-3.6105,-3.6301,-3.6301,-3.6301,-3.6301,-3.6402,-3.6402,-3.636,-3.6502,-3.652,0.0,0.0,0.0,0.0,0.0,0.0,0.0,0.0,0.0,0.0,-3.8594,-3.9457,0.0,0.0,0.0,0.0,0.0,0.0,0.0,0.0,-4.0583,0.0,-4.1077,0.0,-4.3144,-4.4334,-4.4898,-4.52,0.0,-4.5206,-4.5032,-4.4978,-4.4923,-4.494,-4.4978,-4.5186,-4.5562,-4.6203,-4.6897,-4.7843,-4.9297,-5.2306,-5.5026,-5.6867,-5.7895,-5.8273,-5.7587,-5.8324,-5.8478,-5.7704,-5.6765,-5.5962,-5.5381,-5.4343,-5.3783,-5.3783,-5.3668,-5.3751,-5.3997,-5.398,-5.3915,-5.3783,-5.3783,-5.3734,-5.3635,-5.3568,-5.3551,-5.3551,-5.3551,-5.3501,-5.3501,-5.3551,-5.3501,-5.3501,-5.3501,-5.3501,-5.3501,-5.3501,-5.3501,-5.3501,0.0,0.0,0.0,0.0,0.0,0.0,0.0,0.0,0.0,0.0,0.0,0.0,0.0,0.0,0.0,0.0,0.0,0.0,0.0,0.0,0.0,0.0,0.0,-3.547,-3.5905,-3.6036,-3.6165,-3.6233,-3.6259,-3.6301,-3.6301,-3.6343,-3.6402,-3.6402,-3.6485,-3.6461,-3.6377,-3.6276,0.0,0.0,-3.6174,0.0,0.0,0.0,0.0,0.0,-3.8764,-3.9512,0.0,-4.0492,-4.073,-4.1029,0.0,0.0,0.0,0.0,-4.1016,-4.0806,-4.0631,-4.1521,-4.2685,-4.3442,-4.4165,-4.4765,-4.5054,-4.5032,-4.4978,-4.494,-4.4886,-4.4886,-4.4831,-4.5213,-4.5708,-4.6346,-4.7308,-4.8727,-5.0871,-5.2989,-5.5026,-5.6845,-5.7721,-5.81,-5.7858,-5.8391,-5.8253,-5.7291,-5.6542,-5.5758,-5.4974,-5.4175,-5.37,-5.37,-5.3551,-5.3568,-5.3751,-5.3751,-5.3751,-5.3601,-5.3601,-5.3551,-5.3501,-5.3501,-5.3501,-5.3501,-5.3501,-5.3501,-5.3501,-5.3501,-5.3501,-5.3501,-5.3501,-5.3501,-5.3501,-5.3501,-5.3501,-5.3501,0.0,0.0,0.0,0.0,0.0,0.0,0.0,0.0,0.0,0.0,0.0,0.0,0.0,0.0,0.0,0.0,0.0,0.0,0.0,0.0,0.0,0.0,-3.5844,-3.5756,-3.5905,-3.6019,-3.6148,-3.6293,-3.636,-3.6385,-3.6385,-3.6343,-3.6301,-3.6259,-3.6259,-3.6233,-3.6182,-3.6182,-3.6122,-3.6036,-3.6139,0.0,0.0,0.0,0.0,0.0,0.0,0.0,0.0,-4.0535,-4.0955,-4.1453,-4.2125,0.0,0.0,0.0,0.0,0.0,-4.0865,-4.1395,-4.2178,-4.2618,-4.3409,-4.4197,-4.4724,-4.4892,-4.494,-4.4793,-4.4886,-4.492,-4.4834,-4.5388,-4.6073,-4.675,-4.8388,-5.0527,-5.3264,-5.3974,-5.4873,-5.665,-5.7272,-5.7634,-5.7868,-5.8163,-5.789,-5.6811,-5.6182,-5.5485,-5.4618,-5.399,-5.3651,-5.3651,-5.3551,-5.3501,-5.3501,-5.3501,-5.3501,-5.3501,-5.3501,-5.3501,-5.3501,-5.3501,-5.3501,-5.3501,-5.3501,-5.3501,-5.3501,-5.3501,-5.3501,-5.3501,-5.3501,-5.3501,-5.3501,-5.3501,-5.3501,-5.3501,0.0,0.0,0.0,0.0,0.0,0.0,0.0,0.0,0.0,0.0,0.0,0.0,0.0,0.0,0.0,0.0,0.0,0.0,0.0,0.0,0.0,-3.6602,-3.6318,-3.6276,-3.6377,-3.6468,-3.655,-3.6708,-3.6731,-3.6731,-3.6731,-3.6544,-3.6377,-3.6208,-3.6208,-3.6165,-3.6019,-3.6019,-3.6019,-3.607,-3.6808,0.0,0.0,0.0,0.0,0.0,0.0,0.0,0.0,-4.198,-4.1777,-4.1578,-4.1823,0.0,0.0,0.0,0.0,0.0,-4.223,-4.2253,-4.2358,-4.2178,-4.3031,-4.3972,-4.4038,-4.448,-4.4776,-4.4682,-4.4626,-4.4868,-4.5592,-4.5247,-4.5348,-4.688,-4.9409,-5.1936,-5.4093,-5.5497,-5.6498,-5.6978,-5.7803,-5.7858,-5.6611,-5.7278,-5.7004,-5.5247,-5.5043,-5.4601,-5.3771,-5.3619,-5.3568,-5.3568,-5.3501,-5.3501,-5.3501,-5.3501,-5.3501,-5.3501,-5.3501,-5.3501,-5.3501,-5.3501,-5.3501,-5.3501,-5.3501,-5.3501,-5.3501,-5.3501,-5.3501,-5.3501,-5.3501,-5.3501,-5.3501,-5.3501,-5.3501,-5.3568,0.0,0.0,0.0,0.0,0.0,0.0,0.0,0.0,0.0,0.0,0.0,0.0,0.0,0.0,0.0,0.0,0.0,0.0,0.0,0.0,-3.6869,-3.6869,-3.6731,-3.6609,-3.6502,-3.655,-3.6673,-3.6794,-3.6811,-3.6788,-3.6788,-3.6856,-3.6736,-3.6544,-3.6673,-3.6591,-3.6276,-3.6276,-3.6431,-3.674,0.0,0.0,0.0,0.0,0.0,0.0,0.0,0.0,0.0,0.0,-4.2701,-4.2657,-4.3072,0.0,0.0,0.0,0.0,0.0,-4.2228,-4.2422,-4.2738,-4.237,-4.339,-4.4602,-4.4903,-4.5456,-4.5767,-4.5263,-4.5179,-4.5337,-4.5813,-4.6157,-4.7183,-4.9576,-5.1121,-5.27,-5.4329,-5.5245,-5.6026,-5.6857,-5.7102,-5.7141,-5.6833,-5.6901,-5.6489,-5.5193,-5.5108,-5.4783,-5.39,-5.3866,-5.3866,-5.3866,-5.3668,-5.3601,-5.3601,-5.3568,-5.3501,-5.3501,-5.3501,-5.3501,-5.3501,-5.3501,-5.3501,-5.3501,-5.3501,-5.3501,-5.3501,-5.3501,-5.3501,-5.3501,-5.3501,-5.3501,-5.3501,-5.3501,-5.3618,-5.38,0.0,0.0,0.0,0.0,0.0,0.0,0.0,0.0,0.0,0.0,0.0,0.0,0.0,0.0,0.0,0.0,0.0,0.0,0.0,-3.6987,-3.6987,-3.6987,-3.6987,-3.6908,-3.665,-3.6713,-3.6834,-3.6913,-3.693,-3.693,-3.6952,-3.7073,-3.7034,-3.6873,-3.7013,-3.6856,-3.652,-3.6806,-3.7165,-3.7594,0.0,0.0,0.0,0.0,0.0,0.0,0.0,0.0,0.0,0.0,0.0,0.0,0.0,0.0,0.0,-4.3749,-4.4072,-4.3791,-4.2488,-4.2817,-4.3324,-4.2636,-4.3385,-4.4517,-4.5461,-4.6028,-4.6269,-4.6007,-4.5957,-4.5998,-4.6192,-4.7335,-4.9046,-5.1386,-5.238,-5.3228,-5.4397,-5.4873,-5.5398,-5.641,-5.6301,-5.6372,-5.6765,-5.6507,-5.5921,-5.5183,-5.5132,-5.4874,-5.4209,-5.4158,-5.4158,-5.4158,-5.3898,-5.3783,-5.37,-5.3601,-5.3568,-5.3501,-5.3501,-5.3501,-5.3501,-5.3501,-5.3501,-5.3501,-5.3501,-5.3501,-5.3501,-5.3501,-5.3501,-5.3501,-5.3501,-5.3568,-5.3635,-5.3635,-5.38,-5.411,0.0,0.0,0.0,0.0,0.0,0.0,0.0,0.0,0.0,0.0,0.0,0.0,0.0,0.0,0.0,0.0,0.0,0.0,0.0,-3.6987,-3.6987,-3.6987,-3.6987,-3.7009,-3.7069,-3.7164,-3.7259,-3.7259,-3.7259,-3.7317,-3.7356,-3.6992,-3.6895,-3.6999,-3.6759,-3.6591,-3.6579,-3.7681,-3.8199,-3.8415,-4.0359,0.0,0.0,0.0,0.0,0.0,0.0,0.0,0.0,0.0,0.0,0.0,0.0,0.0,-4.4291,-4.4582,-4.5077,-4.5235,-4.3827,-4.4002,-4.4242,-4.2851,-4.2272,-4.2569,-4.4602,-4.495,-4.519,-4.643,-4.6718,-4.6818,-4.7073,-4.8336,-4.9545,-5.0164,-5.2029,-5.3704,-5.4482,-5.5192,-5.5666,-5.5784,-5.5995,-5.5962,-5.5347,-5.5475,-5.5262,-5.4377,-5.4308,-5.4226,-5.4045,-5.398,-5.398,-5.398,-5.398,-5.3915,-5.37,-5.37,-5.3601,-5.3501,-5.3501,-5.3501,-5.3501,-5.3501,-5.3501,-5.3501,-5.3501,-5.3501,-5.3501,-5.3501,-5.3501,-5.3501,-5.3501,-5.3685,-5.398,-5.398,-5.4192,-5.4512,0.0,0.0,0.0,0.0,0.0,0.0,0.0,0.0,0.0,0.0,0.0,0.0,0.0,0.0,0.0,0.0,0.0,0.0,0.0,-3.6987,-3.6987,-3.6987,-3.6987,-3.7066,-3.7203,-3.7259,-3.7372,-3.7484,-3.7392,-3.7392,-3.7411,-3.7431,-3.7356,-3.7281,-3.8078,-3.8329,-3.8105,-3.9301,-4.0041,-4.051,-4.161,-4.2349,0.0,0.0,0.0,0.0,0.0,0.0,0.0,0.0,-4.4306,0.0,0.0,0.0,0.0,0.0,-4.5031,-4.5424,-4.3604,-4.4056,-4.4562,-4.2806,-4.2006,-4.2381,-4.508,-4.5903,-4.6282,-4.6743,-4.72,-4.7776,-4.8354,-5.0073,-5.1503,-5.1647,-5.3077,-5.433,-5.4652,-5.5295,-5.5716,-5.5716,-5.5467,-5.5196,-5.4907,-5.4795,-5.4596,-5.4257,-5.4303,-5.4367,-5.4303,-5.4321,-5.4321,-5.4321,-5.411,-5.398,-5.3915,-5.3668,-5.3601,-5.3601,-5.3551,-5.3501,-5.3501,-5.3501,-5.3501,-5.3501,-5.3618,-5.3601,-5.3668,-5.3734,-5.38,-5.38,-5.3915,-5.411,-5.4321,-5.4321,-5.4494,-5.4807,0.0,0.0,0.0,0.0,0.0,0.0,0.0,0.0,0.0,0.0,0.0,0.0,0.0,0.0,0.0,0.0,0.0,0.0,-3.6987,-3.6987,-3.6987,-3.6987,-3.6987,-3.7105,-3.7314,-3.7297,-3.7372,-3.754,-3.7503,-3.7485,-3.7522,-3.7685,-3.79,-3.8115,-3.9077,-3.9509,-3.9675,-4.0866,-4.1625,-4.2106,-4.2783,-4.3341,0.0,0.0,0.0,0.0,0.0,0.0,0.0,0.0,0.0,0.0,0.0,0.0,0.0,0.0,-4.4841,-4.5332,-4.374,-4.4038,-4.4454,-4.3168,-4.2275,-4.2483,-4.5367,-4.6175,-4.6537,-4.7293,-4.7988,-4.8753,-4.9695,-5.1155,-5.2208,-5.2191,-5.3331,-5.4211,-5.4058,-5.4584,-5.5023,-5.5023,-5.4669,-5.4448,-5.4448,-5.4271,-5.411,-5.411,-5.4239,-5.4303,-5.4303,-5.4303,-5.4385,-5.4367,-5.411,-5.398,-5.398,-5.3734,-5.3618,-5.3668,-5.3618,-5.3551,-5.3551,-5.3501,-5.3501,-5.3501,-5.3668,-5.37,-5.3717,-5.3915,-5.4045,-5.4093,-5.4205,-5.4414,-5.4683,-5.4683,-5.4869,-5.5191,0.0,0.0,0.0,0.0,0.0,0.0,0.0,0.0,0.0,0.0,0.0,0.0,0.0,0.0,0.0,0.0,0.0,0.0,-3.6987,-3.6987,-3.6987,-3.6987,-3.6987,-3.7105,-3.7314,-3.7297,-3.7334,-3.7392,-3.7595,-3.7721,-3.7792,-3.7739,-3.8399,-3.9601,-3.9331,-3.987,-4.1005,-4.2286,-4.2809,-4.2914,-4.4064,-4.4515,-4.4515,0.0,0.0,0.0,0.0,0.0,0.0,0.0,0.0,0.0,0.0,0.0,0.0,-4.3961,-4.4544,-4.5083,-4.4563,-4.4115,-4.3834,-4.3955,-4.3022,-4.2785,-4.5329,-4.5247,-4.5496,-4.8392,-4.9124,-4.9627,-5.0947,-5.1397,-5.1461,-5.1217,-5.2503,-5.323,-5.2418,-5.2993,-5.3501,-5.3501,-5.3601,-5.37,-5.37,-5.3849,-5.398,-5.398,-5.398,-5.398,-5.398,-5.398,-5.4045,-5.4158,-5.4045,-5.398,-5.398,-5.3783,-5.3668,-5.3501,-5.3668,-5.37,-5.3717,-5.3551,-5.3501,-5.3501,-5.3668,-5.37,-5.37,-5.3915,-5.4093,-5.4252,-5.4431,-5.4683,-5.4992,-5.4992,-5.5191,-5.5507,0.0,0.0,0.0,0.0,0.0,0.0,0.0,0.0,0.0,0.0,0.0,0.0,0.0,0.0,0.0,0.0,0.0,0.0,-3.7069,-3.7009,-3.7009,-3.7069,-3.7009,-3.7105,-3.7314,-3.7447,-3.7503,-3.754,-3.7613,-3.7649,-3.7685,-3.8455,-3.9025,-3.9467,-4.1015,-4.1933,-4.2304,-4.3509,-4.3998,-4.4046,-4.4346,-4.4515,-4.4515,0.0,0.0,0.0,0.0,0.0,0.0,0.0,0.0,0.0,0.0,0.0,0.0,-4.4195,-4.4942,-4.5425,-4.3889,-4.4456,-4.4979,-4.3131,-4.3286,-4.4201,-4.5479,-4.5631,-4.6367,-4.9372,-4.9904,-5.0193,-5.124,-5.2244,-5.2552,-5.1596,-5.2569,-5.3297,-5.2584,-5.3077,-5.3501,-5.3501,-5.3568,-5.3551,-5.3551,-5.3734,-5.3783,-5.3783,-5.3915,-5.398,-5.398,-5.398,-5.4045,-5.4045,-5.3915,-5.3783,-5.3783,-5.3668,-5.3685,-5.3866,-5.3783,-5.37,-5.37,-5.3651,-5.3734,-5.3866,-5.3915,-5.4045,-5.4303,-5.4557,-5.479,-5.4878,-5.4957,-5.5174,-5.5371,-5.5371,-5.5448,-5.5507,0.0,0.0,0.0,0.0,0.0,0.0,0.0,0.0,0.0,0.0,-3.0048,-3.0988,0.0,0.0,0.0,0.0,0.0,0.0,-3.7048,-3.7009,-3.7009,-3.7069,-3.7048,-3.7126,-3.7334,-3.7503,-3.7577,-3.7577,-3.7721,-3.7721,-3.7631,-3.8898,-3.9662,-4.0093,-4.1983,-4.3036,-4.3509,-4.4205,-4.4515,-4.4515,-4.4515,-4.4487,-4.4458,0.0,0.0,0.0,0.0,0.0,0.0,0.0,0.0,0.0,0.0,0.0,-4.4251,-4.4606,-4.486,-4.4983,-4.4618,-4.4721,-4.4687,-4.3791,-4.4164,-4.5094,-4.6278,-4.7081,-4.8158,-5.026,-5.0841,-5.1265,-5.2126,-5.2687,-5.2621,-5.1549,-5.2298,-5.2756,-5.2143,-5.289,-5.3501,-5.3501,-5.3501,-5.3501,-5.3501,-5.3551,-5.3601,-5.3601,-5.3734,-5.38,-5.38,-5.38,-5.38,-5.3849,-5.3717,-5.3651,-5.37,-5.3551,-5.3635,-5.38,-5.3832,-5.3963,-5.4045,-5.3915,-5.3915,-5.3997,-5.411,-5.4367,-5.4745,-5.4974,-5.5139,-5.5199,-5.5277,-5.5413,-5.5507,-5.5507,-5.5507,-5.5507,0.0,0.0,0.0,0.0,0.0,0.0,0.0,0.0,0.0,0.0,-3.1392,-3.2283,0.0,0.0,0.0,0.0,0.0,0.0,0.0,-3.7009,-3.7009,-3.7009,-3.7069,-3.7223,-3.7392,-3.754,-3.7577,-3.7577,-3.7845,-3.7881,-3.7774,-3.9176,-4.0341,-4.1282,-4.2458,-4.3527,-4.4487,-4.4487,-4.4487,-4.4487,-4.4487,-4.4458,-4.4383,-4.4383,0.0,0.0,0.0,0.0,0.0,0.0,0.0,0.0,-4.4184,-4.4104,-4.4153,-4.4952,-4.451,-4.4165,-4.5997,-4.4956,-4.3764,-4.5351,-4.5441,-4.5708,-4.7573,-4.9137,-5.0388,-5.1065,-5.1792,-5.2553,-5.3348,-5.2841,-5.2063,-5.1336,-5.1826,-5.2046,-5.1319,-5.2536,-5.3501,-5.3501,-5.3501,-5.3501,-5.3501,-5.3501,-5.3501,-5.3501,-5.3501,-5.3501,-5.3501,-5.3501,-5.3551,-5.3717,-5.3618,-5.3618,-5.3783,-5.3685,-5.3635,-5.3618,-5.4011,-5.4333,-5.4512,-5.4239,-5.411,-5.411,-5.4431,-5.4807,-5.5053,-5.5199,-5.5259,-5.5259,-5.5431,-5.5507,-5.5507,-5.5507,-5.5507,-5.5507,0.0,0.0,0.0,0.0,0.0,0.0,0.0,0.0,0.0,0.0,0.0,0.0,0.0,0.0,0.0,0.0,0.0,0.0,0.0,-3.7048,-3.7009,-3.7069,-3.7203,-3.7279,-3.7392,-3.754,-3.7577,-3.7577,-3.7649,-3.8115,-3.8938,-4.0215,-4.1364,-4.2477,-4.3613,-4.4243,-4.4411,-4.4411,-4.4401,-4.4344,-4.4344,-4.4344,-4.4314,-4.4314,-4.4285,0.0,0.0,0.0,0.0,0.0,0.0,0.0,-4.4036,-4.4005,-4.4042,-4.4228,-4.4669,-4.5049,-4.4891,-4.5219,-4.5624,-4.5246,-4.5979,-4.7067,-4.8453,-4.9915,-5.1014,-5.1183,-5.1792,-5.2553,-5.3348,-5.2841,-5.2063,-5.1336,-5.1826,-5.2046,-5.1319,-5.2536,-5.3501,-5.3501,-5.3501,-5.3501,-5.3501,-5.3501,-5.3501,-5.3501,-5.3501,-5.3501,-5.3501,-5.3501,-5.3618,-5.3915,-5.3932,-5.4045,-5.4321,-5.4321,-5.4303,-5.446,-5.4523,-5.4728,-5.4869,-5.4807,-5.4852,-5.4957,-5.5277,-5.5472,-5.5531,-5.559,-5.5572,-5.559,-5.549,-5.5507,-5.5507,-5.5507,-5.5507,-5.5507,0.0,0.0,0.0,0.0,0.0,0.0,0.0,0.0,0.0,0.0,0.0,0.0,0.0,0.0,0.0,0.0,0.0,0.0,0.0,0.0,-3.7066,-3.7203,-3.7259,-3.7372,-3.7503,-3.7577,-3.7577,-3.7577,-3.7577,-3.8169,-3.9329,-4.0555,-4.1704,-4.2828,-4.3951,-4.444,-4.4383,-4.4373,-4.4344,-4.4285,-4.4285,-4.4285,-4.4244,-4.4244,-4.4195,-4.4085,-4.4085,0.0,0.0,0.0,0.0,0.0,0.0,0.0,-4.4079,-4.4506,-4.4568,-4.462,-4.518,-4.545,-4.5751,-4.6414,-4.6913,-4.7609,-4.895,-5.0277,-5.1217,-5.1217,-5.2097,-5.301,-5.3416,-5.2553,-5.1657,-5.1268,-5.1234,-5.1234,-5.1217,-5.2215,-5.3078,-5.345,-5.3501,-5.3501,-5.3501,-5.3501,-5.3501,-5.3501,-5.3618,-5.3685,-5.3501,-5.3817,-5.3997,-5.398,-5.4192,-5.4303,-5.4512,-5.4512,-5.4557,-5.462,-5.479,-5.5035,-5.5354,-5.5113,-5.5096,-5.5199,-5.5378,-5.5531,-5.5607,-5.5607,-5.5607,-5.5607,-5.5507,-5.5507,-5.5507,-5.5507,-5.5507,-5.5507,0.0,0.0,0.0,0.0,0.0,0.0,0.0,0.0,0.0,0.0,0.0,0.0,0.0,0.0,0.0,0.0,0.0,0.0,0.0,0.0,0.0,-3.7297,-3.7334,-3.741,-3.7594,-3.7577,-3.7577,-3.7577,-3.7792,-3.8366,-3.9329,-4.0324,-4.1525,-4.2828,-4.3743,-4.4101,-4.4061,-4.4181,-4.4207,-4.4147,-4.4147,-4.4135,-4.4073,-4.4123,-4.4073,-4.3974,-4.4005,-4.4005,-4.4005,-4.4005,0.0,0.0,0.0,0.0,-4.4376,-4.5082,-4.4672,-4.4399,-4.6111,-4.5874,-4.5641,-4.7801,-4.7922,-4.7837,-4.9188,-5.03,-5.1065,-5.1183,-5.2435,-5.3501,-5.3501,-5.235,-5.1369,-5.1234,-5.0693,-5.0456,-5.0947,-5.1758,-5.2553,-5.3213,-5.3416,-5.3501,-5.3501,-5.3501,-5.3501,-5.3568,-5.3866,-5.3932,-5.3685,-5.4192,-5.4385,-5.4175,-5.4431,-5.4637,-5.47,-5.47,-5.47,-5.47,-5.493,-5.5294,-5.5648,-5.5234,-5.5156,-5.5319,-5.5319,-5.5396,-5.5566,-5.5566,-5.5507,-5.5507,-5.5507,-5.5507,-5.5507,-5.5507,-5.5507,-5.5507,0.0,0.0,0.0,0.0,0.0,0.0,0.0,0.0,0.0,0.0,-3.1696,-3.2336,0.0,0.0,0.0,0.0,0.0,0.0,0.0,0.0,0.0,-3.7392,-3.7392,-3.7466,-3.7594,-3.7577,-3.7577,-3.7577,-3.8528,-3.91,-3.9311,-3.9454,-4.0712,-4.2809,-4.2951,-4.2835,-4.2636,-4.3627,-4.3878,-4.3615,-4.3615,-4.3582,-4.36,-4.3786,-4.3837,-4.3851,-4.3961,-4.4005,-4.4005,-4.4005,-4.4005,0.0,0.0,0.0,-4.5138,-4.5268,-4.5872,-4.658,-4.6873,-4.6871,-4.7033,-4.8166,-4.8136,-4.8027,-4.9247,-4.9892,-5.0422,-5.1082,-5.2435,-5.3501,-5.3501,-5.2756,-5.1944,-5.1319,-5.1133,-5.0879,-5.0321,-5.142,-5.2334,-5.2452,-5.3078,-5.3501,-5.3501,-5.3501,-5.3618,-5.3932,-5.398,-5.4127,-5.4321,-5.4448,-5.462,-5.4869,-5.493,-5.5053,-5.5389,-5.5389,-5.5389,-5.5389,-5.5389,-5.5448,-5.5507,-5.5448,-5.5549,-5.5804,-5.5804,-5.5804,-5.5861,-5.5706,-5.5666,-5.5666,-5.5566,-5.5507,-5.5507,-5.5507,-5.5507,-5.5507,0.0,0.0,0.0,0.0,0.0,0.0,0.0,0.0,0.0,0.0,0.0,-3.284,0.0,0.0,0.0,0.0,0.0,0.0,0.0,0.0,0.0,-3.7895,-3.7895,-3.7934,-3.8049,-3.7772,-3.7577,-3.7577,-3.8564,-3.9302,-3.9734,-3.9569,-4.0438,-4.2209,-4.2669,-4.2768,-4.2702,-4.3894,-4.4315,-4.4141,-4.3871,-4.4053,-4.4343,-4.4035,-4.4181,-4.4529,-4.4509,-4.4809,-4.5175,-4.4846,-4.5026,-4.5398,-4.5398,0.0,0.0,0.0,-4.6323,-4.676,-4.6798,-4.7034,-4.7348,-4.7957,-4.8084,-4.8271,-4.8948,-4.9761,-5.051,-5.1065,-5.208,-5.2976,-5.3416,-5.2841,-5.2063,-5.1336,-5.0862,-5.0473,-5.0135,-5.1014,-5.1925,-5.2544,-5.3341,-5.3866,-5.4063,-5.408,-5.4127,-5.4257,-5.4431,-5.4557,-5.4512,-5.4886,-5.507,-5.4992,-5.5191,-5.5371,-5.5507,-5.5507,-5.5507,-5.5507,-5.5507,-5.5507,-5.5507,-5.5507,-5.5549,-5.5666,-5.5666,-5.5666,-5.5666,-5.5607,-5.5607,-5.5549,-5.5507,-5.5507,-5.5507,-5.5507,-5.5507,-5.5507,0.0,0.0,0.0,0.0,0.0,0.0,0.0,0.0,0.0,0.0,0.0,0.0,0.0,0.0,0.0,0.0,0.0,0.0,0.0,0.0,0.0,0.0,-3.8047,-3.8086,-3.8185,-3.7806,-3.7757,-3.8026,-3.8741,-3.9441,-4.0018,-3.9975,-4.0387,-4.1184,-4.1969,-4.241,-4.2613,-4.3597,-4.4016,-4.4053,-4.3758,-4.3971,-4.4456,-4.4317,-4.4605,-4.5119,-4.5223,-4.5662,-4.6121,-4.5679,-4.5927,-4.6428,-4.6494,-4.6643,0.0,0.0,0.0,-4.7117,-4.7111,-4.7361,-4.7655,-4.785,-4.8176,-4.8522,-4.8837,-4.9622,-5.0486,-5.0985,-5.1586,-5.2266,-5.3194,-5.2941,-5.2433,-5.1881,-5.1053,-5.0493,-5.0368,-5.081,-5.152,-5.2621,-5.3374,-5.4033,-5.4494,-5.4512,-5.4512,-5.4637,-5.4869,-5.493,-5.4762,-5.5209,-5.5389,-5.5113,-5.5371,-5.5507,-5.5507,-5.5507,-5.5507,-5.5507,-5.5507,-5.5507,-5.5507,-5.5507,-5.5507,-5.5507,-5.5507,-5.5507,-5.5507,-5.5507,-5.5507,-5.5507,-5.5507,-5.5507,-5.5507,-5.5507,-5.5507,-5.5543,0.0,0.0,0.0,0.0,0.0,0.0,0.0,0.0,0.0,0.0,0.0,0.0,-3.531,-3.6047,-3.6557,-3.6724,-3.7562,-3.7862,-3.7427,-3.722,-3.7294,-3.7611,-3.7463,0.0,-3.7648,-3.7594,-3.8115,-3.9138,-3.953,-3.9753,-3.9825,-4.0639,-4.0498,-3.9635,-4.0383,-4.1056,-4.1683,-4.194,-4.2139,-4.2364,-4.2582,-4.272,-4.2896,-4.4452,-4.5064,-4.5174,-4.5888,-4.6132,-4.62,-4.614,-4.6168,-4.6239,-4.6428,-4.7014,-4.7646,0.0,0.0,0.0,-4.8384,-4.8309,-4.8336,-4.8272,-4.8544,-4.8897,-4.9131,-4.935,-4.9761,-5.0468,-5.0951,-5.1569,-5.2738,-5.3175,-5.3379,-5.3301,-5.2341,-5.1463,-5.1107,-5.102,-5.133,-5.2123,-5.2881,-5.3621,-5.4443,-5.4512,-5.4637,-5.493,-5.4992,-5.5131,-5.5448,-5.5448,-5.5507,-5.5448,-5.5507,-5.5507,-5.5507,-5.5507,-5.5507,-5.5507,-5.5507,-5.5507,-5.5507,-5.5507,-5.5507,-5.5507,-5.5507,-5.5507,-5.5507,-5.5507,-5.5507,-5.5507,-5.5507,-5.5507,-5.5507,-5.5507,-5.5507,-5.5613,0.0,0.0,0.0,0.0,0.0,0.0,0.0,0.0,0.0,0.0,0.0,0.0,0.0,-3.6116,-3.6643,-3.6708,-3.7545,-3.7959,-3.78,-3.8204,-3.8655,-3.9182,-3.8666,-3.8631,-3.9098,-3.8952,-3.9064,-3.9447,-4.0157,-4.0392,-4.0223,-4.099,-4.1208,-4.0936,-4.1121,-4.1165,-4.1183,-4.2853,-4.3446,-4.3243,-4.358,-4.4063,-4.4533,-4.4782,-4.5145,-4.5593,-4.5748,-4.6331,-4.691,-4.6512,-4.6909,-4.7555,-4.7629,-4.7941,-4.8305,-4.8428,-4.8667,-4.882,-4.8495,-4.8364,-4.8284,-4.8013,-4.8559,-4.9057,-4.8956,-4.9513,-5.0224,-5.0729,-5.0969,-5.1579,-5.3159,-5.3661,-5.3758,-5.3432,-5.307,-5.2389,-5.1252,-5.1494,-5.1778,-5.1807,-5.2865,-5.3792,-5.4329,-5.4834,-5.5191,-5.5312,-5.5312,-5.5371,-5.5507,-5.5507,-5.5507,-5.5507,-5.5507,-5.5507,-5.5507,-5.5507,-5.5507,-5.5507,-5.5507,-5.5507,-5.5507,-5.5507,-5.5507,-5.5507,-5.5507,-5.5507,-5.5507,-5.5507,-5.5507,-5.5507,-5.5507,-5.5507,-5.5578,-5.6034,-5.621,-5.6315,0.0,0.0,0.0,0.0,0.0,0.0,0.0,0.0,-3.3999,-3.4829,0.0,0.0,0.0,0.0,-3.7428,-3.7833,-3.8203,-3.8408,-3.8408,-3.8863,-3.9311,-3.9783,-3.9277,-3.9199,-3.9678,-3.9491,-3.9458,-3.962,-4.0176,-4.0278,-4.0007,-4.076,-4.1157,-4.1328,-4.1646,-4.1768,-4.1828,-4.3289,-4.3816,-4.365,-4.4058,-4.4544,-4.4957,-4.5079,-4.539,-4.5857,-4.594,-4.6478,-4.7122,-4.669,-4.7402,-4.8342,-4.8108,-4.8269,-4.8532,-4.8642,-4.8714,-4.8642,-4.8439,-4.8364,-4.8326,-4.7937,-4.855,-4.921,-4.8887,-4.9466,-5.0195,-5.0445,-5.0695,-5.1296,-5.2674,-5.3452,-5.3949,-5.4096,-5.3758,-5.3238,-5.2334,-5.2344,-5.2549,-5.252,-5.3376,-5.415,-5.4624,-5.5191,-5.5507,-5.5507,-5.5507,-5.5507,-5.5507,-5.5507,-5.5507,-5.5507,-5.5507,-5.5507,-5.5507,-5.5507,-5.5507,-5.5507,-5.5507,-5.5507,-5.5507,-5.5507,-5.5507,-5.5507,-5.5507,-5.5507,-5.5507,-5.5507,-5.5507,-5.5507,-5.5507,-5.5507,-5.5595,-5.6332,-5.6596,-5.6754,0.0,0.0,0.0,0.0,0.0,0.0,0.0,0.0,-3.5801,-3.7725,0.0,0.0,0.0,0.0,0.0,-3.9981,-3.9555,-3.9228,-3.9228,-3.9033,-3.9033,-3.9228,-3.9015,-3.8998,-3.9193,-3.9066,-3.9217,-3.9669,-3.9554,-3.942,-3.9217,-4.0006,-4.0421,-4.0585,-4.1808,-4.2853,-4.3596,-4.3051,-4.303,-4.3264,-4.3734,-4.3866,-4.3875,-4.5337,-4.5881,-4.5937,-4.6439,-4.6653,-4.6691,-4.6689,-4.7527,-4.8413,-4.7711,-4.786,-4.8267,-4.8267,-4.8267,-4.8306,0.0,0.0,0.0,-4.8017,-4.8645,-4.9281,-4.8905,-4.9194,-4.9488,-4.9488,-5.0068,-5.0703,-5.102,-5.2552,-5.4119,-5.529,-5.4587,-5.3945,-5.4256,-5.3664,-5.3454,-5.4191,-5.4279,-5.4595,-5.5402,-5.5525,-5.5543,-5.5543,-5.5543,-5.5543,-5.5543,-5.5525,-5.5507,-5.5507,-5.5507,-5.5507,-5.5507,-5.5507,-5.5507,-5.5507,-5.5507,-5.5507,-5.5507,-5.5507,-5.5507,-5.5507,-5.5507,-5.5507,-5.5507,-5.5507,-5.5507,-5.5507,-5.5507,-5.5507,-5.5595,-5.635,-5.6631,-5.6859,0.0,0.0,0.0,0.0,0.0,-3.3693,-3.5316,-3.5654,-3.6249,0.0,0.0,0.0,-3.8143,-3.8412,-3.8663,-3.8977,-3.9334,-3.9552,-3.9552,-3.9676,-3.9693,-3.9552,-3.9015,-3.8693,-3.8622,-3.8808,-3.8963,-3.9115,-3.9678,-3.9911,-3.9896,-4.1157,-4.1791,-4.189,-4.3402,-4.4235,-4.4443,-4.4188,-4.394,-4.3769,-4.4523,-4.4832,-4.4829,-4.5365,-4.5466,-4.5394,-4.5557,-4.5752,-4.591,-4.5889,-4.6372,-4.6955,-4.7035,-4.716,-4.7378,-4.7738,-4.786,-4.7919,-4.821,0.0,0.0,0.0,0.0,0.0,-4.9273,-4.9576,-4.9825,-4.9825,-4.9921,-5.0307,-5.0976,-5.172,-5.2683,-5.4084,-5.471,-5.4846,-5.4384,-5.3664,-5.326,-5.3471,-5.3489,-5.3787,-5.4559,-5.5648,-5.6297,-5.6297,-5.6297,-5.6297,-5.6297,-5.5806,-5.5507,-5.5507,-5.5507,-5.5507,-5.5507,-5.5507,-5.5507,-5.5507,-5.5507,-5.5507,-5.5507,-5.5507,-5.5507,-5.5507,-5.5507,-5.5507,-5.5507,-5.5507,-5.5507,-5.5507,-5.5507,-5.5507,-5.5665,-5.6982,-5.7395,-5.7464,0.0,0.0,0.0,0.0,0.0,-3.5762,-3.705,-3.7175,-3.7449,0.0,0.0,0.0,-3.8917,-3.929,-3.9543,-3.9543,-3.9646,-3.9698,-3.9698,-3.9558,-3.9385,-3.9232,-3.8846,-3.8622,-3.8504,-3.8915,-3.9049,-3.8781,-3.9801,-4.0164,-3.9961,-4.1393,-4.2275,-4.2736,-4.3999,-4.4779,-4.5041,-4.499,-4.4734,-4.447,-4.5075,-4.5194,-4.514,-4.5194,-4.514,-4.5066,-4.5429,-4.5694,-4.5853,-4.6234,-4.6465,-4.6677,-4.75,-4.7304,-4.6934,-4.7731,-4.7847,-4.7831,-4.8496,-4.8611,-4.8573,-4.8613,0.0,0.0,-4.9623,-4.9642,-4.9616,-4.9924,-4.9855,-4.9904,-5.0351,-5.099,-5.1726,-5.2764,-5.3725,-5.446,-5.4788,-5.4437,-5.4156,-5.4156,-5.4156,-5.4331,-5.477,-5.5613,-5.628,-5.6578,-5.6596,-5.6754,-5.7087,-5.6385,-5.5964,-5.5964,-5.5665,-5.5507,-5.5507,-5.5507,-5.5507,-5.5507,-5.5507,-5.5507,-5.5507,-5.5507,-5.5507,-5.5507,-5.5507,-5.5507,-5.5507,-5.5507,-5.5507,-5.5507,-5.5507,-5.5701,-5.6122,-5.7272,-5.7796,-5.8188,0.0,0.0,-3.5397,-3.604,-3.6928,-3.8065,-3.9577,-3.9146,-3.8991,0.0,-3.9358,-3.9094,-3.975,-4.0457,-4.0888,-4.0888,-4.0233,-3.9819,-3.9819,-3.9129,-3.8715,-3.8715,-3.8629,-3.8594,-3.8594,-3.9158,-3.9129,-3.8594,-3.9924,-4.0319,-3.9871,-4.1395,-4.253,-4.332,-4.4078,-4.4785,-4.5371,-4.5371,-4.5352,-4.5367,-4.5405,-4.5316,-4.5169,-4.5169,-4.5166,-4.5171,-4.5969,-4.6208,-4.6366,-4.7197,-4.7217,-4.7161,-4.8377,-4.7805,-4.6931,-4.7986,-4.8039,-4.7957,-4.8905,-4.9017,-4.887,-4.8791,-4.8802,0.0,-4.976,-4.9316,-4.8995,-4.9639,-4.9579,-4.9351,-4.9351,-5.0206,-5.1035,-5.1431,-5.212,-5.3212,-5.5098,-5.5314,-5.5314,-5.549,-5.5437,-5.542,-5.5507,-5.5578,-5.5894,-5.6543,-5.6684,-5.7052,-5.7772,-5.7122,-5.6736,-5.6736,-5.6104,-5.5718,-5.563,-5.563,-5.5595,-5.5507,-5.5507,-5.5507,-5.5507,-5.5507,-5.5507,-5.5507,-5.5507,-5.5448,-5.5448,-5.5448,-5.5448,-5.5507,-5.5507,-5.5834,-5.6518,-5.7192,-5.7915,-5.8631,-3.3658,-3.3858,-3.4371,-3.5497,-3.5894,-3.6787,-3.8993,-3.9174,-3.9457,-4.056,-4.0573,-4.0491,-4.0629,-4.0784,-4.0888,-4.0888,-4.075,-4.0647,-4.0647,-3.9905,-3.9491,-3.9491,-3.8905,-3.8594,-3.8594,-3.8732,-3.8732,-3.8594,-4.0083,-4.0754,-4.0698,-4.2837,-4.3855,-4.3958,-4.4819,-4.5233,-4.5247,-4.5371,-4.5732,-4.6266,-4.5629,-4.575,-4.6264,-4.6264,-4.6588,-4.6953,-4.6959,-4.7011,-4.7102,-4.7238,-4.7113,-4.7067,-4.7593,-4.7548,-4.7432,-4.8137,-4.8223,-4.8293,-4.877,-4.8838,-4.8847,-4.9046,-4.8622,0.0,-4.8667,-4.8087,-4.7578,-4.7732,-4.8082,-4.8345,-4.8345,-4.9138,-5.0018,-5.0678,-5.1378,-5.2428,-5.4273,-5.4015,-5.4103,-5.5367,-5.4946,-5.4805,-5.5455,-5.6034,-5.6455,-5.6596,-5.7193,-5.7632,-5.779,-5.7649,-5.7579,-5.7579,-5.7438,-5.7052,-5.6385,-5.6385,-5.6087,-5.5507,-5.5507,-5.5507,-5.5507,-5.5507,-5.5507,-5.5507,-5.5354,-5.5259,-5.5259,-5.5174,-5.5252,-5.5507,-5.5336,-5.5364,-5.5644,-5.6892,-5.7312,-5.7513,-3.3797,-3.4325,-3.4935,-3.5596,-3.6638,-3.7784,-3.8999,-3.9682,-4.025,-4.0836,-4.0888,-4.0888,-4.0888,-4.0888,-4.0888,-4.0888,-4.0573,-4.0395,-4.0395,-3.9669,-3.9254,-3.9254,-3.8829,-3.8767,-3.9129,-3.9526,-3.9733,-3.964,-4.1154,-4.1894,-4.1963,-4.3477,-4.4595,-4.5335,-4.5371,-4.5595,-4.5868,-4.5543,-4.5818,-4.6436,-4.6111,-4.6421,-4.7055,-4.6927,-4.7038,-4.7301,-4.7527,-4.796,-4.8419,-4.836,-4.7865,-4.7318,-4.7826,-4.7472,-4.709,-4.7908,-4.8047,-4.7993,-4.8364,-4.8312,-4.817,-4.8187,-4.7885,0.0,0.0,-4.7762,-4.7318,-4.7636,-4.768,-4.768,-4.768,-4.8046,-4.8538,-4.909,-4.9717,-5.0587,-5.2079,-5.3129,-5.4033,-5.4823,-5.4911,-5.5069,-5.5472,-5.5841,-5.621,-5.6561,-5.7351,-5.7983,-5.8386,-5.8018,-5.7921,-5.8244,-5.7938,-5.7535,-5.7053,-5.6728,-5.642,-5.6052,-5.5683,-5.5507,-5.5507,-5.5507,-5.5448,-5.5354,-5.5259,-5.5139,-5.5096,-5.5053,-5.5113,-5.5252,-5.5156,-5.534,-5.5776,-5.6373,-5.701,-5.7708,-3.3949,-3.4954,-3.5844,-3.6092,-3.7799,-3.9265,-3.9498,-4.0285,-4.0888,-4.0888,-4.0888,-4.0888,-4.0888,-4.0888,-4.0987,-4.1125,-4.0619,-4.0372,-4.0574,-3.9835,-3.9472,-3.9628,-3.9381,-3.9595,-4.0353,-4.0991,-4.1271,-4.1174,-4.2532,-4.3202,-4.3254,-4.401,-4.5077,-4.6301,-4.5818,-4.5956,-4.6453,-4.6025,-4.6141,-4.6717,-4.6863,-4.7155,-4.7455,-4.7444,-4.738,-4.7384,-4.8099,-4.8839,-4.9394,-4.9317,-4.8624,-4.782,-4.8128,-4.7581,-4.703,-4.7817,-4.7896,-4.7756,-4.8093,-4.7945,-4.7677,-4.7683,-4.754,-4.7609,0.0,0.0,0.0,-4.796,-4.7704,-4.738,-4.738,-4.7442,-4.7523,-4.7339,-4.8129,-4.8982,-4.9552,-5.207,-5.3857,-5.3817,-5.4642,-5.5227,-5.5086,-5.5191,-5.5648,-5.6526,-5.707,-5.7842,-5.8885,-5.8324,-5.8262,-5.8841,-5.8391,-5.7989,-5.7734,-5.7246,-5.6834,-5.6596,-5.5939,-5.5589,-5.5431,-5.5431,-5.5354,-5.5139,-5.5139,-5.5035,-5.493,-5.493,-5.493,-5.493,-5.493,-5.533,-5.5921,-5.5837,-5.6621,-5.7728,-3.4101,-3.502,-3.6109,-3.7151,-3.8364,-3.9532,-4.0552,-4.0819,-4.0888,-4.0888,-4.0888,-4.0888,-4.0888,-4.0888,-4.1194,-4.1994,-4.1864,-4.2123,-4.293,-4.2141,-4.1971,-4.2679,-4.2023,-4.1974,-4.2817,-4.2921,-4.2906,-4.2923,-4.3733,-4.4147,-4.4165,-4.4888,-4.5283,-4.5402,-4.6129,-4.6347,-4.6229,-4.694,-4.7626,-4.8179,-4.8196,-4.782,-4.7301,-4.7984,-4.8258,-4.836,-4.9095,-4.9222,-4.9023,-4.8567,-4.8609,-4.8666,-4.7854,-4.8172,-4.872,-4.795,-4.807,-4.8489,-4.8529,-4.8529,-4.8586,-4.912,-4.8736,-4.8275,-4.836,0.0,-4.7233,-4.7335,0.0,-4.8005,-4.8005,0.0,0.0,-4.634,-4.7926,-4.8959,-4.7718,-5.0293,-5.2187,-5.1922,-5.3387,-5.4173,-5.3506,-5.405,-5.5051,-5.649,-5.6087,-5.6641,-5.8608,-5.8625,-5.8875,-5.9464,-5.946,-5.9142,-5.859,-5.834,-5.7653,-5.6596,-5.6405,-5.5941,-5.5259,-5.5259,-5.5156,-5.4992,-5.4886,-5.4842,-5.478,-5.4637,-5.4575,-5.4575,-5.478,-5.4894,-5.4988,-5.5455,-5.5719,-5.6081,-3.4101,-3.502,-3.5943,-3.6455,-3.8014,-3.9364,-3.9833,-4.05,-4.0935,-4.1,-4.1,-4.1155,-4.1587,-4.1639,-4.1885,-4.2429,-4.2597,-4.2802,-4.308,-4.2837,-4.2802,-4.3229,-4.2904,-4.3026,-4.3802,-4.382,-4.382,-4.3718,-4.4457,-4.4595,-4.4199,-4.4956,-4.5782,-4.6625,-4.6594,-4.7024,-4.7648,-4.7545,-4.7552,-4.7745,-4.8072,-4.7741,-4.7138,-4.8388,-4.8848,-4.8761,-4.9067,-4.9124,-4.8951,-4.8734,-4.8337,-4.787,-4.8243,-4.7852,-4.7274,-4.7301,-4.7164,-4.7079,-4.7119,-4.7119,-4.729,-4.7984,-4.7933,-4.7711,-4.7711,-4.7455,-4.7216,-4.7216,0.0,0.0,0.0,0.0,0.0,0.0,-4.78,-4.8438,-4.7808,-4.9625,-5.1362,-5.2431,-5.2926,-5.3183,-5.3229,-5.4296,-5.5279,-5.5911,-5.5683,-5.6062,-5.7386,-5.7831,-5.8317,-5.889,-5.9377,-5.9447,-5.905,-5.8646,-5.8154,-5.7618,-5.6666,-5.6073,-5.5724,-5.5288,-5.4992,-5.4886,-5.4842,-5.4797,-5.478,-5.4717,-5.47,-5.4807,-5.4886,-5.4824,-5.4626,-5.4856,-5.5236,-5.5701,-3.3899,-3.492,-3.591,-3.6257,-3.7947,-3.933,-3.9696,-4.0586,-4.1276,-4.1452,-4.1643,-4.1925,-4.2462,-4.2417,-4.2513,-4.2997,-4.3117,-4.322,-4.3373,-4.3546,-4.3597,-4.3632,-4.3717,-4.4044,-4.4475,-4.4544,-4.4544,-4.4439,-4.4972,-4.5075,-4.4783,-4.5316,-4.6333,-4.77,-4.7093,-4.752,-4.8633,-4.7969,-4.7677,-4.7707,-4.815,-4.7945,-4.7496,-4.848,-4.8877,-4.9001,-4.9001,-4.9001,-4.8968,-4.8826,-4.8243,-4.7674,-4.8293,-4.7683,-4.6792,-4.6969,-4.6765,-4.6476,-4.6368,-4.6374,-4.6436,-4.6982,-4.7118,-4.7118,-4.7118,-4.7118,-4.7118,-4.7118,-4.7118,0.0,0.0,0.0,-4.722,-4.659,0.0,-4.8226,-4.7756,-4.9284,-5.0838,-5.2065,-5.2332,-5.2713,-5.353,-5.4497,-5.516,-5.5371,-5.5232,-5.5595,-5.65,-5.6895,-5.7457,-5.8337,-5.8863,-5.9178,-5.9319,-5.8814,-5.8394,-5.8089,-5.6912,-5.6147,-5.573,-5.5191,-5.4886,-5.4717,-5.4717,-5.4717,-5.4717,-5.4717,-5.4869,-5.5139,-5.5139,-5.5244,-5.5305,-5.4797,-5.5442,-5.6536,-3.3361,-3.4651,-3.6158,-3.7396,-3.8478,-3.9614,-4.0844,-4.1682,-4.2198,-4.2358,-4.2923,-4.336,-4.3377,-4.2944,-4.3014,-4.3906,-4.3622,-4.3728,-4.4589,-4.4838,-4.4783,-4.449,-4.5001,-4.5196,-4.4998,-4.523,-4.5389,-4.5336,-4.5353,-4.5803,-4.6527,-4.6562,-4.6975,-4.7717,-4.7533,-4.7832,-4.8377,-4.8209,-4.8421,-4.8934,-4.8951,-4.8951,-4.8866,-4.8206,-4.8392,-4.9001,-4.9001,-4.9001,-4.89,-4.8354,-4.8497,-4.8741,-4.7629,-4.8005,-4.8673,-4.7527,-4.7612,-4.7844,-4.7155,-4.6969,-4.6986,-4.6844,-4.6786,-4.6786,-4.6786,-4.6786,-4.6786,-4.6786,-4.6786,-4.6786,-4.6786,-4.7394,-4.7217,-4.5128,-4.7115,0.0,0.0,-4.9028,-5.0417,-4.9679,-5.1213,-5.2922,-5.452,-5.4251,-5.4296,-5.5026,-5.4617,-5.4957,-5.63,-5.6265,-5.679,-5.8141,-5.8077,-5.8356,-5.9301,-5.9064,-5.8455,-5.7341,-5.7079,-5.6218,-5.4814,-5.4797,-5.4717,-5.4512,-5.4512,-5.4512,-5.4512,-5.4512,-5.4939,-5.5601,-5.5601,-5.6446,-5.746,-5.5665,-5.6687,-5.8915,-3.4281,-3.5007,-3.5942,-3.7218,-3.843,-3.9737,-4.1343,-4.2201,-4.2634,-4.2618,-4.2706,-4.2929,-4.3459,-4.3405,-4.3535,-4.4118,-4.4074,-4.4356,-4.5303,-4.4863,-4.5072,-4.6243,-4.5324,-4.5035,-4.5563,-4.5069,-4.5035,-4.5546,-4.5546,-4.6049,-4.697,-4.697,-4.7437,-4.8254,-4.7717,-4.814,-4.9078,-4.8371,-4.8243,-4.8421,-4.8335,-4.8291,-4.8308,-4.8545,-4.8781,-4.9001,-4.9001,-4.9001,-4.8968,-4.8775,-4.8477,-4.8291,-4.8378,-4.7979,-4.7631,-4.8226,-4.7853,-4.7386,-4.8115,-4.7962,-4.759,-4.753,-4.753,-4.7411,-4.6904,-4.6786,-4.6786,-4.6786,-4.6786,-4.6786,-4.6786,-4.7005,-4.6921,-4.6201,-4.7293,-4.8243,0.0,-5.0031,-5.1553,-5.1694,-5.2689,-5.3271,-5.3132,-5.4054,-5.4813,-5.508,-5.5133,-5.5273,-5.5799,-5.6476,-5.7095,-5.759,-5.8299,-5.8798,-5.9081,-5.9012,-5.858,-5.7711,-5.7144,-5.6318,-5.53,-5.4799,-5.479,-5.5122,-5.5122,-5.5402,-5.5848,-5.5848,-5.5999,-5.633,-5.633,-5.7583,-5.9169,-5.7477,-5.7798,-5.9132,-3.473,-3.5433,-3.632,-3.7513,-3.9143,-4.0695,-4.1835,-4.2638,-4.3134,-4.3064,-4.3003,-4.3217,-4.3943,-4.4101,-4.4288,-4.4606,-4.4775,-4.5068,-4.5689,-4.5312,-4.5445,-4.6312,-4.5546,-4.5258,-4.5727,-4.5219,-4.532,-4.5966,-4.5908,-4.6472,-4.751,-4.7435,-4.796,-4.897,-4.7984,-4.8285,-4.9436,-4.831,-4.8081,-4.8378,-4.823,-4.8276,-4.8562,-4.9034,-4.9097,-4.9035,-4.9306,-4.956,-4.9796,-4.9796,-4.9475,-4.9171,-4.9644,-4.9137,-4.8545,-4.9509,-4.912,-4.8511,-4.9204,-4.9035,-4.8629,-4.8376,-4.8308,-4.8037,-4.7022,-4.6786,-4.6718,-4.6464,-4.6194,-4.616,-4.6684,-4.6583,-4.6481,-4.6752,-4.7192,-4.7877,0.0,-5.0241,-5.152,-5.2662,-5.3269,-5.3387,-5.2795,-5.3905,-5.4733,-5.4916,-5.5218,-5.5366,-5.549,-5.6343,-5.6927,-5.7237,-5.8141,-5.871,-5.9015,-5.8993,-5.8633,-5.7892,-5.715,-5.6504,-5.5865,-5.5181,-5.5182,-5.5716,-5.5716,-5.5999,-5.6456,-5.6456,-5.6599,-5.6912,-5.6912,-5.8364,-6.0206,-5.8546,-5.8752,-6.01,-3.4759,-3.6058,-3.7351,-3.8342,-4.0604,-4.236,-4.2445,-4.3056,-4.3586,-4.3744,-4.3934,-4.4162,-4.4592,-4.5017,-4.521,-4.5269,-4.5585,-4.5798,-4.5847,-4.6229,-4.6049,-4.513,-4.5737,-4.5909,-4.548,-4.5703,-4.6099,-4.6701,-4.6548,-4.6995,-4.8133,-4.7919,-4.8455,-4.9615,-4.8189,-4.8291,-4.9316,-4.7962,-4.7955,-4.894,-4.8644,-4.8935,-4.9555,-4.9622,-4.9413,-4.9204,-4.9898,-5.0608,-5.1217,-5.1217,-5.1217,-5.1217,-5.1217,-5.1217,-5.1217,-5.1251,-5.1251,-5.1065,-5.0388,-5.0168,-4.9965,-4.9238,-4.9052,-4.868,-4.7242,-4.6904,-4.6701,-4.6007,-4.5297,-4.5196,-4.6549,-4.6227,-4.5957,-4.6583,-4.6794,-4.7455,-4.931,-4.9644,-5.046,-5.2518,-5.298,-5.3235,-5.344,-5.3744,-5.4145,-5.4659,-5.4932,-5.52,-5.5514,-5.5851,-5.6377,-5.7231,-5.7688,-5.8227,-5.8994,-5.905,-5.8701,-5.7959,-5.7251,-5.6825,-5.655,-5.583,-5.5808,-5.633,-5.633,-5.6384,-5.6384,-5.6384,-5.6739,-5.7315,-5.7315,-5.8773,-6.0591,-5.8983,-5.9692,-6.1722,-3.7076,-3.8527,-3.9593,-3.9606,-4.1228,-4.2703,-4.2922,-4.3686,-4.394,-4.3171,-4.3893,-4.4373,-4.399,-4.4991,-4.5701,-4.5807,-4.5806,-4.6155,-4.6953,-4.6346,-4.6445,-4.7534,-4.6452,-4.6152,-4.6719,-4.6107,-4.6174,-4.6862,-4.6799,-4.7354,-4.8387,-4.8325,-4.8471,-4.8765,-4.7855,-4.7814,-4.8322,-4.7364,-4.7481,-4.8294,-4.8679,-4.881,-4.8885,-5.0007,-5.0505,-5.0676,-5.0862,-5.1048,-5.1217,-5.1217,-5.1217,-5.1217,-5.1217,-5.1217,-5.1319,-5.186,-5.164,-5.1302,-5.164,-5.1336,-5.0744,-4.9999,-4.9813,-4.956,-4.8646,-4.8443,-4.8376,-4.8189,-4.8003,-4.7648,-4.6921,-4.665,-4.621,-4.5297,-4.6408,-4.7743,-4.8855,-5.0207,-5.1269,-5.1831,-5.3007,-5.3602,-5.3254,-5.3613,-5.4034,-5.4395,-5.4665,-5.5181,-5.6037,-5.6386,-5.6894,-5.7747,-5.8736,-5.9181,-5.8994,-5.992,-5.9831,-5.8643,-5.8879,-5.8408,-5.7228,-5.7032,-5.6939,-5.6894,-5.6894,-5.7134,-5.7565,-5.7565,-5.7679,-5.7821,-5.7821,-5.8951,-6.0748,-6.1724,-6.2446,-6.3076,-3.7779,-3.9282,-4.0591,-4.1355,-4.1865,-4.2299,-4.2673,-4.2864,-4.2993,-4.3239,-4.3712,-4.4166,-4.4556,-4.5626,-4.6341,-4.6387,-4.6623,-4.7005,-4.7611,-4.7165,-4.7148,-4.7838,-4.7024,-4.6729,-4.7145,-4.6666,-4.6689,-4.7388,-4.7307,-4.7635,-4.8356,-4.8308,-4.842,-4.8576,-4.7938,-4.7925,-4.8258,-4.7761,-4.7834,-4.8365,-4.8761,-4.9126,0.0,-5.0388,-5.1108,-5.1665,-5.148,-5.1796,-5.2215,-5.2215,-5.2215,-5.2215,-5.2215,-5.2215,-5.23,-5.2706,-5.2536,-5.2317,-5.2706,-5.252,-5.2114,-5.1691,-5.1589,-5.1302,-5.0219,-4.9965,-4.9881,-4.9543,-4.9221,-4.8951,-4.8765,-4.7936,-4.6802,-4.5314,-4.5789,-4.6735,-4.8096,-4.9398,-5.0566,-5.1479,-5.2694,-5.3324,-5.2999,-5.3569,-5.4027,-5.4259,-5.4218,-5.4585,-5.5522,-5.6284,-5.6932,-5.7424,-5.8978,-5.9633,-5.9373,-6.0384,-6.0505,-5.9752,-5.9799,-5.9302,-5.834,-5.7981,-5.7722,-5.7498,-5.7498,-5.7679,-5.7997,-5.7997,-5.7997,-5.807,-5.8767,-5.9687,-6.0821,-6.2604,-6.3354,-6.3511,-3.7648,-3.9139,-4.0833,-4.2557,-4.2174,-4.1673,-4.2059,-4.163,-4.1882,-4.3507,-4.367,-4.4172,-4.5659,-4.6449,-4.6976,-4.704,-4.7636,-4.8001,-4.8001,-4.8115,-4.788,-4.7231,-4.7421,-4.7421,-4.7198,-4.7198,-4.7467,-4.8001,-4.7853,-4.7902,-4.8163,-4.8049,-4.8163,-4.8513,-4.8163,-4.8179,-4.853,-4.842,-4.853,-4.874,-4.8839,-4.9694,-5.0769,-5.0867,-5.1493,-5.2366,-5.2029,-5.2522,-5.3264,-5.3247,-5.3264,-5.3348,-5.3348,-5.3416,-5.3501,-5.3501,-5.3501,-5.3501,-5.3501,-5.3501,-5.3501,-5.3501,-5.3501,-5.3162,-5.1826,-5.1522,-5.1336,-5.0676,-5.0033,-4.9932,-5.1014,-4.9492,-4.7631,-4.6346,-4.5585,-4.5813,-4.7533,-4.8396,-4.945,-5.1187,-5.2336,0.0,-5.2761,-5.3452,-5.4005,-5.4166,-5.3745,-5.3979,-5.4919,-5.6054,-5.6746,-5.6967,-5.8889,-5.9912,-5.9794,-6.0681,-6.1131,-6.1015,-6.0451,-5.996,-5.9611,-5.8885,-5.8336,-5.7997,-5.7997,-5.7997,-5.7997,-5.7997,-5.7997,-5.8162,-5.9777,-6.0449,-6.0774,-6.2395,-6.3147,-6.3354,-3.8004,-3.9612,-4.0865,-4.0529,-4.1314,-4.2089,-4.2215,-4.2916,-4.3234,-4.2905,-4.446,-4.5683,-4.5765,-4.6566,-4.7291,-4.7737,-4.7934,-4.8001,-4.8001,-4.8001,-4.8,-4.7867,-4.7867,-4.7867,-4.7867,-4.7867,-4.7868,-4.8001,-4.7935,-4.8001,-4.8066,-4.8001,-4.7984,-4.7886,-4.777,-4.7721,-4.7737,-4.7671,-4.7998,-4.8636,-4.9227,-5.0138,-5.126,-5.1839,-5.235,-5.2817,-5.2753,-5.2469,-5.2034,-5.1695,-5.2012,-5.252,-5.252,-5.2976,-5.3501,-5.3501,-5.3501,-5.3501,-5.3501,-5.3501,-5.3501,-5.3501,-5.3501,-5.3433,-5.3162,-5.3112,-5.3061,-5.2942,-5.2807,-5.2401,-5.1403,-4.9898,-4.8731,-4.846,-4.8308,-4.8369,-4.8683,-4.9811,-5.046,-5.0194,-5.2483,-5.3592,-5.249,-5.314,-5.3695,-5.3926,-5.381,-5.4506,-5.6246,-5.6356,-5.6978,-5.8312,-5.9852,-6.0346,-5.9812,-6.1554,-6.2237,-6.1714,-6.2091,-6.1547,-6.0237,-6.0091,-5.9278,-5.7997,-5.7997,-5.7997,-5.7997,-5.7997,-5.7997,-5.8162,-5.9777,-6.0401,-6.0651,-6.2267,-6.2953,-6.3099,-3.9009,-4.0189,-4.1009,-4.1017,-4.1606,-4.2171,-4.2674,-4.3364,-4.3765,-4.3418,-4.4367,-4.5218,-4.5709,-4.6131,-4.662,-4.7337,-4.7748,-4.813,-4.8564,-4.858,-4.858,-4.858,-4.8199,-4.8001,-4.8001,-4.8001,-4.8001,-4.8001,-4.8001,-4.8001,-4.8001,-4.8001,-4.7935,-4.7853,-4.7853,-4.8001,-4.8314,-4.8314,-4.8872,-4.9822,-5.0167,-5.0829,-5.1575,-5.1921,-5.2197,-5.2291,-5.2121,-5.1824,-5.1525,-5.1967,-5.2151,-5.2317,-5.2317,-5.2382,-5.2533,-5.2923,-5.2958,-5.2976,-5.3399,-5.3501,-5.3501,-5.3501,-5.3501,-5.3501,-5.3501,-5.3501,-5.3501,-5.3501,-5.3501,-5.3162,-5.1995,-5.0896,-5.0016,-4.9627,-4.9255,-4.9075,-4.9384,-5.0342,-5.0969,-5.0867,-5.2245,-5.2957,-5.2323,-5.2699,-5.3243,-5.3745,-5.3561,-5.4086,-5.5541,-5.6061,-5.68,-5.7844,-5.9786,-6.0655,-6.0327,-6.1979,-6.2636,-6.236,-6.2636,-6.1961,-6.0401,-6.0401,-5.952,-5.7997,-5.7997,-5.7997,-5.7997,-5.7997,-5.7997,-5.8162,-5.9777,-6.0401,-6.0603,-6.2218,-6.2855,-6.2904,-3.9773,-4.0493,-4.1252,-4.2023,-4.2319,-4.2638,-4.3226,-4.3623,-4.3975,-4.4024,-4.4133,-4.471,-4.5766,-4.5772,-4.6038,-4.6882,-4.7484,-4.8123,-4.8731,-4.88,-4.8869,-4.9038,-4.8478,-4.8166,-4.8233,-4.8233,-4.8166,-4.8001,-4.8001,-4.7918,-4.7622,-4.7918,-4.8066,-4.8001,-4.8018,-4.8348,-4.9043,-4.9276,-5.0019,-5.1069,-5.1069,-5.1427,-5.1941,-5.1941,-5.1941,-5.1858,-5.1553,-5.1496,-5.1578,-5.2511,-5.2454,-5.2048,-5.2048,-5.1837,-5.1673,-5.2269,-5.2394,-5.2567,-5.3211,-5.3499,-5.3635,-5.3635,-5.3551,-5.3551,-5.3551,-5.3501,-5.3501,-5.3501,-5.3501,-5.3315,-5.2672,-5.2097,-5.1505,-5.0913,-5.0185,-4.9835,-5.0281,-5.0856,-5.1363,-5.1651,-5.2097,-5.2371,-5.2232,-5.2808,-5.3308,-5.3632,-5.3397,-5.3778,-5.4996,-5.568,-5.6353,-5.7082,-5.9245,-6.0462,-6.0508,-6.1924,-6.2705,-6.2805,-6.2755,-6.1911,-6.0401,-6.0401,-5.952,-5.7997,-5.7997,-5.7997,-5.7997,-5.7997,-5.8107,-5.84,-5.985,-6.0511,-6.0841,-6.2273,-6.2805,-6.2823,-3.947,-4.0439,-4.1357,-4.2455,-4.3267,-4.3836,-4.3915,-4.4144,-4.4173,-4.3882,-4.4332,-4.5192,-4.6492,-4.6106,-4.6265,-4.7451,-4.7577,-4.7684,-4.7759,-4.7759,-4.8073,-4.8852,-4.8858,-4.8833,-4.9011,-4.9011,-4.868,-4.8001,-4.8115,-4.7555,-4.6306,-4.7766,-4.8308,-4.8034,-4.7956,0.0,0.0,-4.9755,-5.0568,-5.128,-5.128,-5.1711,-5.2373,-5.2373,-5.2373,-5.2373,-5.2307,-5.2274,-5.2274,-5.2428,-5.1914,-5.1319,-5.1319,-5.1461,-5.1663,-5.1731,-5.2226,-5.2772,-5.284,-5.3386,-5.3915,-5.3915,-5.3783,-5.3651,-5.3651,-5.3618,-5.3501,-5.3501,-5.3501,-5.3484,-5.3399,-5.3331,-5.3264,-5.3196,-5.252,-5.2012,-5.208,-5.2162,-5.1942,-5.1332,-5.2375,-5.2918,-5.2451,-5.4064,-5.4715,-5.3671,-5.3616,-5.4537,-5.6493,-5.5642,-5.5723,-5.7039,-5.8492,-5.9412,-5.9696,-6.1299,-6.2291,-6.2823,-6.257,-6.1711,-6.0401,-6.0401,-5.952,-5.7997,-5.7997,-5.7997,-5.7997,-5.7997,-5.8437,-5.9189,-6.007,-6.086,-6.1594,-6.2493,-6.2805,-6.2805,-4.0194,-4.1035,-4.1908,-4.2924,-4.3332,-4.3771,-4.4251,-4.4555,-4.4708,-4.4573,-4.4772,-4.5032,-4.5199,-4.5437,-4.5596,-4.5725,-4.6874,-4.7637,-4.7659,-4.8206,-4.8596,-4.8732,-4.8515,-4.8295,-4.8224,-4.8208,-4.8079,-4.779,-4.7845,-4.7541,-4.6997,-4.8085,-4.8767,-4.909,0.0,-4.9132,-5.035,-5.0717,-5.128,-5.1943,-5.1943,-5.2125,-5.2373,-5.2373,-5.2373,-5.2373,-5.2373,-5.2373,-5.2373,-5.2499,-5.2096,-5.1497,-5.1305,-5.1024,-5.0901,-5.1087,-5.1309,-5.1589,-5.2033,-5.2699,-5.328,-5.328,-5.3574,-5.3849,-5.3849,-5.3866,-5.3751,-5.3668,-5.3551,-5.3501,-5.3501,-5.3501,-5.3501,-5.3501,-5.323,-5.296,-5.2859,-5.2943,-5.2842,-5.2471,-5.2581,-5.2584,-5.2386,-5.3101,-5.3697,-5.3799,-5.5306,-5.6124,-5.597,-5.6452,-5.6942,-5.7372,-5.8871,-5.9682,-5.9846,-6.1293,-6.2096,-6.2291,-6.2203,-6.1349,-5.9907,-6.0108,-5.9377,-5.7997,-5.7997,-5.7997,-5.7997,-5.7997,-5.8474,-5.93,-6.0107,-6.0896,-6.1686,-6.2511,-6.2805,-6.2805,-4.1006,-4.1817,-4.265,-4.3456,-4.3578,-4.3808,-4.4619,-4.4813,-4.5031,-4.5425,-4.5566,-4.5405,-4.5049,-4.5222,-4.549,-4.5537,-4.6873,-4.7731,-4.7778,-4.8372,-4.8812,-4.8844,-4.8559,-4.8272,-4.8035,-4.8263,-4.8152,-4.7628,-4.8153,-4.7983,-4.704,-4.7139,0.0,0.0,-4.8567,-4.9316,-5.0582,-5.1326,-5.1893,-5.2373,-5.2373,-5.2373,-5.2373,-5.2373,-5.2373,-5.2318,-5.2318,-5.2302,-5.223,-5.2412,-5.2274,-5.1879,-5.1579,-5.1142,-5.0782,-5.1028,-5.1138,-5.1384,-5.1896,-5.2597,-5.3212,-5.3515,-5.3977,-5.4373,-5.4661,-5.4712,-5.4595,-5.4158,-5.382,-5.3635,-5.3501,-5.3568,-5.3568,-5.3501,-5.3501,-5.3433,-5.3348,-5.3416,-5.3349,-5.3011,-5.2572,-5.23,-5.23,-5.2757,-5.3279,-5.3864,-5.6527,-5.7488,-5.5965,-5.6889,-5.7437,-5.7207,-5.8705,-5.951,-5.9543,-6.101,-6.1822,-6.1987,-6.1914,-6.1082,-5.9701,-5.9534,-5.8889,-5.7997,-5.7997,-5.7997,-5.7997,-5.7997,-5.8621,-5.963,-6.0181,-6.1043,-6.2016,-6.2603,-6.2805,-6.2805,-4.1847,-4.2665,-4.3487,-4.4159,-4.4127,-4.42,-4.4868,-4.4785,-4.5092,-4.6403,-4.6781,-4.6895,-4.6569,-4.6026,-4.6342,-4.7797,-4.7934,-4.8034,-4.8019,-4.8034,-4.8339,-4.9116,-4.9197,-4.9189,-4.9056,-4.9886,-4.9351,-4.7628,-4.9431,-4.8806,-4.5789,0.0,-4.4389,-4.5776,-4.7284,-4.8217,-4.8917,-5.1355,-5.2373,-5.2373,-5.2373,-5.2373,-5.2373,-5.2373,-5.2247,-5.2102,-5.2102,-5.1941,-5.1851,-5.2181,-5.2307,-5.2316,-5.2287,-5.2004,-5.1708,-5.1708,-5.2221,-5.2802,-5.2802,-5.3365,-5.4216,-5.5118,-5.5223,-5.5345,-5.6232,-5.6354,-5.6013,-5.5077,-5.4395,-5.3866,-5.3568,-5.3601,-5.3651,-5.3501,-5.3501,-5.3501,-5.3501,-5.3501,-5.3213,-5.2418,-5.23,-5.23,-5.23,-5.3644,-5.425,-5.3619,-5.6786,-5.8176,-5.7057,-5.6739,-5.6464,-5.6213,-5.7569,-5.8383,-5.8518,-6.0224,-6.1426,-6.1987,-6.1674,-6.0955,-5.9971,-5.8608,-5.8015,-5.7997,-5.7997,-5.7997,-5.7997,-5.7997,-5.8933,-6.0401,-6.0401,-6.1392,-6.2805,-6.2805,-6.2805,-6.2805,-4.1863,-4.2605,-4.3411,-4.4537,-4.4213,-4.4289,-4.5635,-4.5546,-4.5701,-4.6705,-4.6811,-4.6963,-4.7501,-4.7364,-4.7061,-4.6644,-4.7433,-4.7767,-4.7312,-4.7874,-4.8286,-4.8355,-4.8521,-4.8496,-4.8363,-4.8593,-4.8388,-4.7598,-4.8221,0.0,0.0,-4.5852,-4.5973,-4.6985,-4.6937,-4.7399,-4.8249,-4.8994,-4.9335,-4.9383,-5.04,-5.0758,-5.075,-5.1944,-5.2247,-5.2102,-5.2247,-5.2175,-5.2013,-5.2252,-5.2378,-5.2557,-5.2687,-5.2454,-5.2072,-5.1799,-5.1879,-5.2067,-5.2067,-5.2614,-5.3382,-5.4251,-5.4749,-5.5379,-5.6267,-5.6455,-5.6369,-5.6062,-5.5621,-5.523,-5.4718,-5.4532,-5.4295,-5.3885,-5.3866,-5.3866,-5.3866,-5.3866,-5.3698,-5.3311,-5.3277,-5.3228,-5.3129,-5.3532,-5.3656,-5.3294,-5.4861,-5.5865,-5.5897,-5.7147,-5.7774,-5.7557,-5.8429,-5.9114,-5.9563,-6.0608,-6.1211,-6.1386,-6.1252,-6.0583,-5.9366,-5.788,-5.7289,-5.7437,-5.7437,-5.7437,-5.7437,-5.7437,-5.8482,-6.0139,-6.0139,-6.1226,-6.2805,-6.2805,-6.2805,-6.2805,-4.257,-4.3121,-4.3838,-4.46,-4.4261,-4.4443,-4.5925,-4.5961,-4.6131,-4.7251,-4.7258,-4.7395,-4.8088,-4.8133,-4.7798,-4.7027,-4.7729,-4.8034,-4.7607,-4.814,-4.837,-4.8202,-4.837,-4.8286,-4.8133,-4.8453,0.0,-4.7362,-4.7105,-4.6856,-4.6739,-4.599,-4.5718,-4.6021,-4.6142,-4.645,-4.7085,-4.764,-4.7902,-4.804,-4.9489,-5.0017,-5.0098,-5.1789,-5.2247,-5.2102,-5.2247,-5.2175,-5.2013,-5.2109,-5.2236,-5.2449,-5.2764,-5.2722,-5.2539,-5.2411,-5.2405,-5.2405,-5.2405,-5.2728,-5.3273,-5.4122,-5.4872,-5.5741,-5.6987,-5.6987,-5.6782,-5.6731,-5.6372,-5.5945,-5.5417,-5.5247,-5.5111,-5.4719,-5.4463,-5.4324,-5.4324,-5.4151,-5.3813,-5.3326,-5.3292,-5.3243,-5.3044,-5.3061,-5.3109,-5.3232,-5.3977,-5.4722,-5.5288,-5.701,-5.7927,-5.7783,-5.8876,-5.9701,-6.0014,-6.0759,-6.1093,-6.1093,-6.0603,-5.9895,-5.9041,-5.7619,-5.7054,-5.7188,-5.7188,-5.7188,-5.7188,-5.7188,-5.825,-5.9838,-5.9939,-6.1076,-6.2654,-6.2755,-6.2805,-6.2805,-4.3556,-4.4079,-4.4465,-4.4327,-4.4312,-4.4662,-4.5844,-4.593,-4.6386,-4.7806,-4.7988,-4.8088,-4.8286,-4.8286,-4.837,-4.8604,-4.862,-4.862,-4.862,-4.862,-4.862,-4.862,-4.862,-4.8537,-4.8286,-4.9066,-4.8643,-4.6947,-4.6295,-4.5837,-4.5758,-4.4993,-4.4103,-4.3359,-4.48,-4.5464,-4.5511,-4.7009,-4.7672,-4.7902,-4.9325,-5.0001,-5.0245,-5.1773,-5.223,-5.2102,-5.2102,-5.2013,-5.1851,-5.198,-5.1964,-5.2109,-5.2694,-5.2903,-5.2989,-5.3365,-5.3501,-5.3501,-5.3501,-5.3501,-5.3754,-5.4618,-5.5451,-5.6472,-5.8027,-5.7875,-5.7344,-5.7238,-5.6746,-5.6235,-5.5871,-5.5941,-5.5994,-5.5786,-5.5298,-5.4856,-5.4873,-5.4427,-5.3727,-5.2847,-5.2697,-5.2615,-5.2384,-5.2435,-5.2756,-5.345,-5.4045,-5.466,-5.5152,-5.6465,-5.7145,-5.7041,-5.8962,-5.9974,-5.9929,-6.0719,-6.1093,-6.1075,-5.9698,-5.9095,-5.9041,-5.7706,-5.7138,-5.7138,-5.7138,-5.7138,-5.7156,-5.721,-5.8151,-5.9615,-5.991,-6.0978,-6.2415,-6.2654,-6.2773,-6.2755,-4.333,-4.3485,-4.3838,-4.4721,-4.44,-4.4584,-4.6005,-4.5696,-4.5768,-4.7272,-4.7439,-4.7638,-4.824,-4.8453,-4.8537,-4.862,-4.862,-4.862,-4.862,-4.862,-4.862,-4.862,-4.862,-4.862,-4.8537,-4.8194,-4.7527,-4.6463,-4.6052,-4.5531,-4.4913,-4.469,-4.4103,-4.3344,-4.3638,-4.3871,-4.3901,-4.4789,-4.5537,-4.6253,-4.7606,-4.8871,-4.9967,-5.1009,-5.1688,-5.2102,-5.223,-5.2158,-5.203,-5.1851,-5.1908,-5.2036,-5.2324,-5.2677,-5.2989,-5.3365,-5.3501,-5.3501,-5.3501,-5.3501,-5.3687,-5.4482,-5.579,-5.6913,-5.7341,-5.7873,-5.8217,-5.8163,-5.7922,-5.7545,-5.7036,-5.6881,-5.6641,-5.6184,-5.5928,-5.5757,-5.5343,-5.5169,-5.4775,-5.3939,-5.3724,-5.3577,-5.3379,-5.3771,-5.389,-5.3534,-5.4127,-5.4635,-5.4754,-5.5836,-5.6829,-5.7689,-5.8704,-5.9478,-6.0008,-6.0729,-6.1093,-6.1075,-5.9527,-5.8759,-5.8706,-5.7262,-5.66,-5.66,-5.66,-5.66,-5.6653,-5.7244,-5.8196,-5.9349,-6.0016,-6.1064,-6.2096,-6.215,-6.231,-6.2519,-4.3806,-4.3883,-4.4037,-4.4632,-4.4449,-4.4633,-4.5672,-4.552,-4.5657,-4.6697,-4.6819,-4.6972,-4.7339,-4.7451,-4.7615,-4.7696,-4.8266,-4.862,-4.862,-4.862,-4.862,-4.862,-4.862,-4.8481,-4.8158,-4.7788,-4.7046,-4.5984,-4.552,-4.5026,-4.4488,-4.4346,-4.3992,-4.3503,-4.3344,-4.3509,-4.3808,-4.4167,-4.471,-4.5635,-4.7062,-4.8104,-4.895,-5.0526,-5.1359,-5.1688,-5.2086,-5.2175,-5.203,-5.1794,-5.1704,-5.1835,-5.2164,-5.2466,-5.2764,-5.3348,-5.3501,-5.3501,-5.3501,-5.3501,-5.3687,-5.4414,-5.5261,-5.6111,-5.6789,-5.7335,-5.7797,-5.8192,-5.8116,-5.798,-5.7627,-5.7505,-5.7386,-5.7032,-5.6472,-5.6082,-5.6167,-5.5636,-5.5174,-5.5039,-5.4956,-5.4839,-5.4618,-5.4923,-5.4938,-5.4549,-5.4888,-5.5173,-5.5441,-5.6024,-5.6729,-5.7602,-5.8823,-5.9626,-6.0019,-6.0757,-6.0915,-6.054,-5.9309,-5.8542,-5.8167,-5.6954,-5.6401,-5.6401,-5.6401,-5.6401,-5.6454,-5.7257,-5.8154,-5.9091,-6.0011,-6.0952,-6.1804,-6.1914,-6.2096,-6.2203,-4.4572,-4.4572,-4.4587,-4.4358,-4.4511,-4.4695,-4.5124,-4.5356,-4.5602,-4.6119,-4.6211,-4.6257,-4.6349,-4.6376,-4.6517,-4.6662,-4.7814,-4.8444,-4.8327,-4.8312,-4.8312,-4.8312,-4.8312,-4.8035,-4.7465,-4.7357,-4.668,-4.5434,-4.4864,-4.4435,-4.4281,-4.4156,-4.3968,-4.3762,-4.3678,-4.3943,-4.4466,-4.4571,-4.5012,-4.5733,-4.7043,-4.7711,-4.8162,-5.0176,-5.0951,-5.1118,-5.1851,-5.2102,-5.203,-5.1663,-5.1499,-5.1573,-5.2036,-5.2236,-5.2466,-5.3195,-5.3433,-5.3501,-5.3501,-5.3501,-5.3653,-5.4279,-5.4515,-5.4921,-5.619,-5.6647,-5.6985,-5.7594,-5.7814,-5.7881,-5.7881,-5.7881,-5.7848,-5.7746,-5.6925,-5.6401,-5.6879,-5.6065,-5.5536,-5.5996,-5.5995,-5.5926,-5.5786,-5.5818,-5.5886,-5.5886,-5.5987,-5.6237,-5.6718,-5.6662,-5.6934,-5.75,-5.9068,-6.0001,-6.0209,-6.0694,-6.0576,-5.9898,-5.8988,-5.8221,-5.756,-5.6757,-5.6401,-5.6401,-5.6401,-5.6401,-5.6472,-5.7382,-5.8149,-5.8809,-6.0024,-6.0891,-6.1448,-6.1748,-6.1877,-6.1914,-4.4572,-4.4572,-4.4572,-4.4572,-4.4587,-4.4603,-4.4726,-4.4741,-4.4972,-4.5649,-4.5741,-4.5878,-4.6447,-4.6869,-4.714,-4.7221,-4.776,-4.7729,-4.6988,-4.6911,-4.6911,-4.6911,-4.6911,-4.6865,-4.6757,-4.6188,-4.5511,-4.4741,-4.4481,-4.4205,-4.4065,-4.4376,-4.4394,-4.4197,-4.4751,-4.505,-4.5185,-4.5768,-4.6456,-4.7221,-4.7356,-4.8171,-4.9505,-4.9852,-5.0384,-5.0951,-5.1778,-5.2013,-5.1794,-5.1573,-5.1499,-5.1499,-5.1729,-5.202,-5.2378,-5.2834,-5.3212,-5.3501,-5.3501,-5.3501,-5.3534,-5.3653,-5.4143,-5.4651,-5.4888,-5.5902,-5.6833,-5.6951,-5.7459,-5.7881,-5.7881,-5.7881,-5.7695,-5.707,-5.7306,-5.7243,-5.6335,-5.6505,-5.6626,-5.6235,-5.6064,-5.6012,-5.5943,-5.6345,-5.663,-5.663,-5.7205,-5.7594,-5.7712,-5.7493,-5.7734,-5.8358,-5.9093,-6.003,-6.1058,-6.0572,-6.0121,-5.9898,-5.8452,-5.7703,-5.756,-5.6757,-5.6401,-5.6401,-5.6401,-5.6401,-5.6508,-5.7953,-5.8613,-5.8863,-6.0402,-6.1045,-6.1152,-6.1211,-6.135,-6.1561,-4.4572,-4.4572,-4.4572,-4.4572,-4.4572,-4.4572,-4.4572,-4.4572,-4.4695,-4.5003,-4.5049,-4.5295,-4.5972,-4.6247,-4.6505,-4.6873,-4.7033,-4.6875,-4.649,-4.7038,-4.7369,-4.7369,-4.7369,-4.7201,-4.6865,-4.6097,-4.5578,-4.5273,-4.5209,-4.5114,-4.5065,-4.5097,-4.5071,-4.5004,-4.5237,-4.5499,-4.5873,-4.6187,-4.6771,-4.7425,-4.7347,-4.7779,-4.8521,-4.9192,-4.9987,-5.0787,-5.1797,-5.2438,-5.2698,-5.2579,-5.2503,-5.2579,-5.3058,-5.3353,-5.349,-5.3763,-5.3669,-5.3501,-5.3501,-5.3501,-5.3501,-5.3501,-5.3754,-5.411,-5.4499,-5.5124,-5.5835,-5.6647,-5.707,-5.7425,-5.7814,-5.7881,-5.778,-5.7442,-5.734,-5.7205,-5.7077,-5.6975,-5.6958,-5.7063,-5.7097,-5.7026,-5.7026,-5.726,-5.7391,-5.7391,-5.7695,-5.7881,-5.7881,-5.7808,-5.8048,-5.8755,-5.9543,-6.0229,-6.0816,-6.0439,-5.9811,-5.8856,-5.814,-5.7567,-5.7137,-5.6707,-5.6492,-5.6492,-5.6437,-5.6401,-5.6525,-5.8078,-5.872,-5.8881,-6.0469,-6.1093,-6.1093,-6.1093,-6.1193,-6.1292,-4.4572,-4.4572,-4.4572,-4.4572,-4.4572,-4.4572,-4.4572,-4.4572,-4.4572,-4.4572,-4.4572,-4.4833,-4.5511,-4.5726,-4.6017,-4.6693,-4.6747,-4.6676,-4.6676,-4.7471,-4.7828,-4.7509,-4.7494,-4.7266,-4.678,-4.6167,-4.5879,-4.5879,-4.5879,-4.5798,-4.5798,-4.5785,-4.5763,-4.5778,-4.5777,-4.6052,-4.6546,-4.6546,-4.6935,-4.7534,-4.7534,-4.7623,-4.7803,-4.8936,-4.9958,-5.0787,-5.1799,-5.2749,-5.3539,-5.3321,-5.3321,-5.3399,-5.4,-5.4378,-5.4485,-5.4586,-5.4192,-5.3721,-5.3551,-5.3501,-5.3501,-5.3501,-5.3501,-5.3653,-5.4211,-5.4465,-5.4905,-5.6055,-5.6562,-5.6968,-5.7526,-5.7763,-5.7831,-5.7662,0.0,-5.7188,-5.7577,-5.7306,-5.7256,-5.7814,-5.7881,-5.7881,-5.7881,-5.7881,-5.7881,-5.7881,-5.7881,-5.7881,-5.7881,-5.7729,-5.7939,-5.8576,-5.9741,-6.0303,-6.0176,-5.9978,-5.9258,-5.7999,-5.7801,-5.7388,-5.6794,-5.6689,-5.6653,-5.6653,-5.6546,-5.651,-5.6562,-5.8152,-5.8738,-5.8881,-6.0469,-6.1093,-6.1093,-6.1093,-6.1093,-6.1093,-4.4572,-4.4572,-4.4572,-4.4572,-4.4572,-4.4572,-4.4572,-4.4572,-4.4572,-4.4572,-4.4572,-4.4833,-4.5511,-4.5999,-4.6483,-4.7155,-4.7615,-4.7897,-4.7897,-4.7904,-4.7403,-4.6076,-4.6031,-4.6001,-4.5955,-4.591,-4.5879,-4.5879,-4.5701,-4.5604,-4.5619,-4.6032,-4.6247,-4.6277,-4.6875,-4.7189,-4.7234,-4.7234,-4.7608,-4.8222,-4.8222,-4.8492,-4.8849,-4.9683,-5.038,-5.1009,-5.1891,-5.2685,-5.3321,-5.3321,-5.3321,-5.3321,-5.3399,-5.3924,-5.451,-5.4535,-5.451,-5.4363,-5.3687,-5.3501,-5.3501,-5.3501,-5.3501,-5.3518,-5.3568,-5.411,-5.4617,-5.4735,-5.5852,-5.6816,-5.6867,-5.7442,-5.7679,-5.6985,0.0,0.0,-5.6968,-5.7408,-5.7831,-5.7881,-5.7881,-5.7881,-5.7881,-5.7881,-5.7881,-5.7881,-5.7881,-5.7881,-5.7881,-5.7256,-5.7141,-5.7754,-5.9094,-5.9731,-5.9493,-5.8753,-5.8267,-5.7981,-5.7244,-5.6848,-5.6794,-5.6794,-5.6794,-5.6794,-5.6794,-5.6689,-5.6725,-5.8355,-5.8869,-5.8881,-6.0469,-6.1093,-6.1093,-6.1093,-6.1093,-6.1093,-4.4587,-4.4572,-4.4572,-4.4572,-4.4572,-4.4572,-4.4572,-4.4572,-4.4572,-4.4572,-4.4572,-4.4987,-4.6095,-4.637,-4.6954,-4.7978,-4.8149,-4.8218,-4.8218,-4.8049,-4.7652,-4.6984,-4.6786,-4.6801,-4.6801,-4.6801,-4.6801,-4.6801,-4.6701,-4.6616,-4.6631,-4.6815,-4.6935,-4.695,-4.7189,-4.7534,-4.7923,-4.7923,-4.8297,-4.8895,-4.8895,-4.8865,-4.8951,-4.9491,-5.0499,-5.1701,-5.2277,-5.3402,-5.4616,-5.4616,-5.4616,-5.4696,-5.5251,-5.5639,-5.5845,-5.5917,-5.5319,-5.4532,-5.4245,-5.3856,-5.3501,-5.3501,-5.3501,-5.3501,-5.3501,-5.3721,-5.4042,-5.4499,-5.504,-5.5581,-5.6038,-5.6359,-5.6444,-5.6173,0.0,-5.6444,-5.6173,-5.6376,-5.6545,-5.6545,-5.6545,-5.6545,-5.6545,-5.6545,-5.6545,-5.6545,-5.6545,-5.6545,-5.6545,-5.6644,-5.6638,-5.6362,-5.7647,-5.8518,-5.8768,-5.8513,-5.8045,-5.7505,-5.718,-5.7054,-5.7054,-5.6951,-5.6951,-5.6899,-5.6847,-5.7029,-5.7568,-5.8699,-5.938,-5.9862,-6.084,-6.1211,-6.1211,-6.1152,-6.1093,-6.1093,-4.4358,-4.4511,-4.4572,-4.4572,-4.4572,-4.4572,-4.4572,-4.4572,-4.4572,-4.4572,-4.4572,-4.5003,-4.6157,-4.6465,-4.705,-4.8204,-4.8331,-4.837,-4.837,-4.8218,-4.7964,-4.7709,-4.7553,-4.7467,-4.7381,-4.7381,-4.7381,-4.7309,-4.7309,-4.7309,-4.7309,-4.7309,-4.7414,-4.7608,-4.7608,-4.7982,-4.8596,-4.8596,-4.897,-4.9568,-4.9477,-4.9429,-4.939,-4.9631,-5.0481,-5.1782,-5.2436,-5.3648,-5.4982,-5.5328,-5.5409,-5.5491,-5.6132,-5.6447,-5.6701,-5.6785,-5.6089,-5.5192,-5.4718,-5.4228,-5.3788,-5.3568,-5.3501,-5.3501,-5.3501,-5.3501,-5.3653,-5.4143,-5.4431,-5.4752,-5.526,-5.5547,-5.5716,-5.5716,-5.5716,-5.5716,-5.5716,-5.5716,-5.5716,-5.5716,-5.5716,-5.5716,-5.5716,-5.5716,-5.5716,-5.5716,-5.5716,-5.5615,-5.5378,-5.5775,-5.5847,-5.5455,-5.6394,-5.7207,-5.8021,-5.8021,-5.775,-5.7188,-5.7188,-5.7188,-5.7206,-5.7087,-5.7036,-5.7054,-5.7203,-5.7583,-5.8124,-5.9186,-5.9942,-6.0462,-6.1139,-6.1386,-6.1386,-6.127,-6.1288,-6.1288,-4.3988,-4.4358,-4.4572,-4.4572,-4.4572,-4.4572,-4.4572,-4.4572,-4.4572,-4.4572,-4.4572,-4.4833,-4.5511,-4.6188,-4.6865,-4.7542,-4.8219,-4.862,-4.862,-4.837,-4.8202,-4.8049,-4.7964,-4.788,-4.7639,-4.7624,-4.7467,-4.7309,-4.7309,-4.7309,-4.7309,-4.7309,-4.7653,-4.8297,-4.8282,-4.8656,-4.9284,-4.9284,-4.9643,-5.015,-4.998,-5.01,-5.0501,-5.0198,-5.0522,-5.1203,-5.223,-5.3212,-5.4163,-5.5065,-5.5409,-5.5409,-5.5409,-5.5974,-5.6701,-5.6802,-5.6799,-5.6478,-5.5006,-5.46,-5.4414,-5.3687,-5.3501,-5.3501,-5.3501,-5.3501,-5.3501,-5.3501,-5.4076,-5.4583,-5.4583,-5.5192,-5.57,-5.57,-5.57,-5.57,-5.57,-5.57,-5.57,-5.57,-5.57,-5.57,-5.57,-5.57,-5.57,-5.57,-5.57,-5.5378,-5.4617,-5.4583,-5.4847,-5.5361,-5.5385,-5.5961,-5.7188,-5.7206,-5.7188,-5.7188,-5.7188,-5.7188,-5.7188,-5.7188,-5.7188,-5.7243,-5.8058,-5.8298,-5.8338,-5.9944,-6.0556,-6.048,-6.1271,-6.1577,-6.1577,-6.1577,-6.1577,-6.1577,-4.4281,-4.4511,-4.4572,-4.4572,-4.4572,-4.4572,-4.4572,-4.4572,-4.4572,-4.4572,-4.4572,-4.4833,-4.5511,-4.6188,-4.6865,-4.7542,-4.8219,-4.862,-4.862,-4.8521,-4.8453,-4.8453,-4.8133,-4.7964,-4.788,-4.788,-4.7794,-4.7553,-4.7553,-4.7707,-4.7982,-4.7519,-4.7908,-4.8955,-4.8491,-4.891,-4.9942,-4.9942,-5.0224,-5.0619,-5.054,-5.0375,-5.0198,-5.0086,-5.0522,-5.1203,-5.223,-5.3212,-5.4163,-5.5065,-5.5409,-5.5507,-5.575,-5.6307,-5.6724,-5.7022,-5.6751,-5.6337,-5.6187,-5.5378,-5.4414,-5.3687,-5.3501,-5.3501,-5.3501,-5.3501,-5.3501,-5.3501,-5.3687,-5.3822,-5.3822,-5.4008,-5.4177,-5.4177,-5.4177,-5.4177,-5.4177,-5.4177,-5.4177,-5.4177,-5.4177,-5.4177,-5.4177,-5.4177,-5.4177,-5.4177,-5.4177,-5.4076,-5.3839,-5.4222,-5.4505,-5.4703,-5.5543,-5.6184,-5.6582,-5.6984,-5.7188,-5.7188,-5.7188,-5.7188,-5.7188,-5.7188,-5.7188,-5.7243,-5.8058,-5.8728,-5.9273,-6.0322,-6.1046,-6.1515,-6.1712,-6.1746,-6.1746,-6.1633,-6.1577,-6.1577,-4.4205,-4.4511,-4.4572,-4.4572,-4.4572,-4.4572,-4.4572,-4.4572,-4.4572,-4.4572,-4.4803,-4.5126,-4.5541,-4.6434,-4.7157,-4.7573,-4.8219,-4.862,-4.862,-4.862,-4.862,-4.862,-4.837,-4.8202,-4.8133,-4.8133,-4.7964,-4.7794,-4.7794,-4.7835,-4.7965,-4.7575,-4.8085,-4.9254,-4.885,-4.9404,-5.0631,-5.0631,-5.0653,-5.0807,-5.0728,-5.0456,-5.0086,-4.999,-5.0235,-5.0668,-5.1682,-5.2664,-5.3561,-5.4533,-5.5049,-5.5491,-5.591,-5.6244,-5.6541,-5.6911,-5.6763,-5.6421,-5.6505,-5.5926,-5.5067,-5.448,-5.394,-5.3501,-5.3501,-5.3501,-5.3501,-5.3501,-5.3501,-5.3501,-5.3501,-5.3501,-5.3501,-5.3501,-5.3501,-5.3501,-5.3501,-5.3501,-5.3501,-5.3501,-5.3501,-5.3501,-5.3501,-5.3501,-5.3501,-5.3501,-5.3501,-5.3501,-5.3501,-5.3832,-5.4299,-5.4765,-5.5543,-5.6184,-5.6635,-5.7036,-5.7188,-5.7188,-5.7188,-5.7188,-5.7188,-5.7188,-5.7369,-5.7713,-5.8528,-5.9343,-6.014,-6.0955,-6.1571,-6.2023,-6.1913,-6.1858,-6.1858,-6.1802,-6.1746,-6.1746,-4.391,-4.4358,-4.4572,-4.4572,-4.4572,-4.4572,-4.4572,-4.4633,-4.4664,-4.4664,-4.5249,-4.568,-4.568,-4.6834,-4.7604,-4.7604,-4.8219,-4.862,-4.862,-4.862,-4.862,-4.862,-4.862,-4.8537,-4.8286,-4.8286,-4.8218,-4.8049,-4.8049,-4.791,-4.7714,-4.7568,-4.8173,-4.9269,-4.9269,-4.9957,-5.1124,-5.1199,-5.1011,-5.0728,-5.0581,-5.0294,-5.0086,-4.9781,-4.9669,-4.9863,-5.0748,-5.1758,-5.2785,-5.3805,-5.4701,-5.5491,-5.591,-5.6006,-5.6086,-5.6541,-5.6619,-5.6624,-5.6337,-5.6178,-5.6141,-5.5829,-5.4683,-5.3687,-5.3619,-5.3551,-5.3501,-5.3501,-5.3501,-5.3501,-5.3501,-5.3501,-5.3501,-5.3501,-5.3501,-5.3501,-5.3501,-5.3501,-5.3501,-5.3501,-5.3501,-5.3501,-5.3501,-5.3501,-5.3501,-5.3501,-5.3501,-5.3501,-5.3501,-5.3568,-5.4093,-5.5266,-5.5443,-5.6017,-5.7087,-5.7188,-5.7188,-5.7188,-5.7188,-5.7188,-5.7188,-5.7261,-5.7713,-5.8456,-5.9343,-6.0122,-6.0883,-6.1679,-6.2023,-6.2023,-6.2023,-6.2023,-6.2023,-6.2023,-6.2023,-6.2005,-4.391,-4.4358,-4.4572,-4.4572,-4.4572,-4.4572,-4.4572,-4.5033,-4.5372,-4.5372,-4.5957,-4.6372,-4.6372,-4.7111,-4.7604,-4.7604,-4.8219,-4.862,-4.862,-4.862,-4.862,-4.862,-4.862,-4.862,-4.8537,-4.8537,-4.8453,-4.8202,-4.8049,-4.8152,-4.8392,-4.7707,-4.81,-4.9269,-4.9269,-4.9703,-5.0481,-5.0788,-5.0742,-5.0581,-5.0294,-4.999,-4.9781,-4.9683,-4.9669,-4.9863,-5.0748,-5.1758,-5.2874,-5.4533,-5.523,-5.5409,-5.5507,-5.5572,-5.5669,-5.607,-5.6228,-5.6274,-5.6498,-5.6413,-5.6168,-5.609,-5.5673,-5.5074,-5.4482,-5.3907,-5.3501,-5.3501,-5.3501,-5.3501,-5.3501,-5.3501,-5.3501,-5.3501,-5.3501,-5.3501,-5.3501,-5.3501,-5.3501,-5.3501,-5.3501,-5.3501,-5.3501,-5.3501,-5.3501,-5.3501,-5.3501,-5.3501,-5.3501,-5.3946,-5.4345,-5.4579,-5.5601,-5.6257,-5.6474,-5.6966,-5.7188,-5.7188,-5.7188,-5.7188,-5.7224,-5.784,-5.8239,-5.8474,-5.9923,-6.0647,-6.0883,-6.1679,-6.2023,-6.2023,-6.2023,-6.2023,-6.2023,-6.2023,-6.2023,-6.1933,-4.4514,-4.4754,-4.4978,-4.5214,-4.5199,-4.5292,-4.5541,-4.5834,-4.6065,-4.6065,-4.6665,-4.708,-4.708,-4.7681,-4.8081,-4.8081,-4.8419,-4.862,-4.862,-4.862,-4.862,-4.862,-4.862,-4.862,-4.862,-4.862,-4.8537,-4.8453,-4.837,-4.8301,-4.8309,-4.789,-4.8094,-4.882,-4.9044,-4.9461,-5.0102,-5.0476,-5.0567,-5.0294,-5.0183,-4.9975,-4.9766,-5.022,-5.0124,-4.9863,-5.1311,-5.2395,-5.3474,-5.4883,-5.5409,-5.5409,-5.5409,-5.5409,-5.5409,-5.5669,-5.575,-5.583,-5.6307,-5.6277,-5.621,-5.6421,-5.6185,-5.5825,-5.5224,-5.4837,-5.4566,-5.4566,-5.4279,-5.4025,-5.4025,-5.3737,-5.3501,-5.3501,-5.3501,-5.3501,-5.3501,-5.3501,-5.3501,-5.3501,-5.3501,-5.3501,-5.3501,-5.3501,-5.3501,-5.3501,-5.3501,-5.3501,-5.3501,-5.3783,-5.4235,-5.4826,-5.5467,-5.6111,-5.6706,-5.7036,-5.7387,-5.7768,-5.7387,-5.7387,-5.7786,-5.8202,-5.8818,-5.9597,-6.0448,-6.1027,-6.1426,-6.1842,-6.2023,-6.2023,-6.2023,-6.2023,-6.1969,-6.1589,-6.119,-6.081,-4.504,-4.5123,-4.5357,-4.5671,-4.5753,-4.593,-4.6429,-4.6601,-4.6677,-4.6773,-4.7357,-4.7773,-4.7773,-4.8281,-4.862,-4.862,-4.862,-4.862,-4.862,-4.862,-4.862,-4.862,-4.862,-4.862,-4.862,-4.862,-4.862,-4.862,-4.8537,-4.837,-4.7964,-4.7964,-4.8011,-4.8147,-4.8626,-4.9114,-4.9768,-5.0138,-5.0287,-5.0086,-5.0086,-4.9878,-4.9766,-5.0573,-5.0493,-5.0124,-5.1774,-5.302,-5.4163,-5.5065,-5.5409,-5.5409,-5.5409,-5.5409,-5.5409,-5.5409,-5.5409,-5.5491,-5.583,-5.6006,-5.6165,-5.6541,-5.6462,-5.6325,-5.601,-5.5815,-5.5716,-5.5716,-5.5209,-5.4786,-5.4786,-5.4194,-5.3687,-5.3687,-5.3585,-5.3501,-5.3501,-5.3501,-5.3501,-5.3501,-5.3501,-5.3501,-5.3501,-5.3501,-5.3501,-5.3501,-5.3501,-5.3501,-5.3501,-5.3501,-5.398,-5.5044,-5.5231,-5.5794,-5.6863,-5.7213,-5.7732,-5.8402,-5.7858,-5.7967,-5.8619,-5.8746,-5.9542,-6.0828,-6.0955,-6.139,-6.2023,-6.2023,-6.1933,-6.1806,-6.1806,-6.1734,-6.1534,-6.0846,-6.0176,-5.9579,-4.4704,-4.4956,-4.5206,-4.5274,-4.5274,-4.544,-4.5915,-4.6498,-4.7043,-4.7384,-4.8065,-4.8481,-4.8481,-4.8558,-4.862,-4.862,-4.862,-4.862,-4.862,-4.862,-4.862,-4.862,-4.862,-4.862,-4.862,-4.862,-4.862,-4.862,-4.8453,-4.8202,-4.7964,-4.7794,-4.7598,-4.7459,-4.8132,-4.8611,-4.9085,-4.9444,-4.986,-5.0086,-4.9878,-4.9781,-4.9669,-4.9863,-5.0302,-5.0937,-5.1203,-5.247,-5.4163,-5.5065,-5.5409,-5.5409,-5.5409,-5.5409,-5.5409,-5.5409,-5.5409,-5.5409,-5.5507,-5.575,-5.6086,-5.6165,-5.6691,-5.7122,-5.7096,-5.6398,-5.5716,-5.5716,-5.5632,-5.5564,-5.5564,-5.4955,-5.4448,-5.4448,-5.3923,-5.3501,-5.3501,-5.3501,-5.3501,-5.3501,-5.3501,-5.3501,-5.3501,-5.3501,-5.3501,-5.3501,-5.3501,-5.3501,-5.3501,-5.3501,-5.3568,-5.3734,-5.4799,-5.5502,-5.5618,-5.737,-5.8293,-5.8402,-5.8999,-5.9343,-5.947,-6.0176,-6.0593,-6.0846,-6.1553,-6.1915,-6.2023,-6.2023,-6.1607,-6.0973,-6.0973,-6.0557,-5.9923,-5.9814,-5.9705,-5.9506,-4.5288,-4.5464,-4.5623,-4.5984,-4.5984,-4.6141,-4.6566,-4.7144,-4.7593,-4.776,-4.8269,-4.862,-4.862,-4.862,-4.862,-4.862,-4.862,-4.862,-4.862,-4.862,-4.862,-4.862,-4.862,-4.862,-4.862,-4.8085,-4.7886,-4.7886,-4.7819,-4.7653,-4.7418,-4.7151,-4.6896,-4.68,-4.7642,-4.8373,-4.8966,-4.9311,-4.9772,-5.0086,-4.999,-4.9878,-4.9766,-5.0302,-5.0748,-5.1203,-5.2365,-5.3632,-5.4883,-5.5246,-5.5409,-5.5409,-5.5409,-5.5409,-5.5409,-5.5409,-5.5409,-5.5409,-5.5409,-5.5572,-5.575,-5.575,-5.6132,-5.6619,-5.6619,-5.6638,-5.6628,-5.6862,-5.6613,-5.6325,-5.6325,-5.5716,-5.5209,-5.5209,-5.4955,-5.4735,-5.4735,-5.4735,-5.4735,-5.4735,-5.4735,-5.4735,-5.4735,-5.4735,-5.4735,-5.4735,-5.4735,-5.4735,-5.4735,-5.5093,-5.5458,-5.583,-5.6726,-5.7388,-5.7725,-5.8609,-5.9307,-5.9742,-6.0104,-6.0285,-6.0285,-6.0647,-6.1064,-6.148,-6.139,-6.1335,-6.1299,-6.0846,-6.0466,-6.014,-6.014,-5.9651,-5.8927,-5.8927,-5.8655,-5.8202]}]]